GFSNGP_850_spd_000.txt.gz
Wind_Speed
21 20 18 22 29 30 25 27 17 37 31 32 31 30 37 36 29 27 26 37 37 34 29 20 15 13 12 8 10 13 16 14 12 16 21 24 27 31 30 29 29 29 31 32
14 21 20 23 29 32 28 30 31 33 35 32 40 33 29 29 30 26 34 40 34 32 28 19 17 14 9 14 12 14 17 14 14 20 21 26 31 30 28 28 29 29 31 31
6 7 5 10 24 22 17 15 16 21 26 23 23 24 21 23 28 35 39 26 33 31 25 15 14 11 9 14 13 15 17 13 18 20 25 30 30 28 28 30 31 31 31 31
6 4 7 3 17 19 18 19 22 21 22 25 23 22 25 38 38 33 30 31 28 23 14 11 13 14 16 10 14 16 11 16 18 23 28 30 27 27 28 29 31 31 31 32
4 8 20 13 7 7 11 15 16 16 14 22 30 39 31 31 26 28 30 31 23 21 16 17 17 19 10 13 12 10 12 14 22 27 29 27 27 27 28 29 30 31 31 32
4 10 15 11 24 8 5 14 9 8 21 25 25 14 18 40 22 29 29 24 24 23 18 21 11 6 11 12 10 8 13 19 27 27 27 26 27 27 28 29 30 31 33 31
12 10 12 13 4 1 4 10 13 32 36 36 21 28 42 32 34 31 26 22 25 21 13 6 7 12 14 9 7 13 18 22 25 26 24 27 26 26 28 28 31 33 32 31
5 7 11 4 3 5 17 39 43 44 44 41 37 36 33 25 29 26 27 23 15 2 3 5 10 12 8 6 10 16 19 23 24 24 25 24 24 26 26 27 31 32 31 31
12 10 19 21 23 32 42 41 47 39 41 35 36 41 20 31 29 23 24 9 3 4 8 10 12 7 5 10 14 17 21 22 22 24 22 21 23 24 24 25 26 27 28 30
14 15 30 32 36 42 47 39 40 41 34 33 32 20 31 26 22 26 11 2 3 8 11 8 7 8 10 12 16 19 21 22 24 20 24 23 21 20 22 23 23 23 27 29
18 26 40 33 36 38 42 42 41 37 33 33 22 27 21 21 22 13 2 3 6 10 8 4 7 9 11 14 18 19 21 23 20 20 23 23 19 20 21 20 20 22 23 26
18 36 33 41 43 42 47 43 41 34 34 27 18 18 16 17 13 4 2 5 10 9 6 5 8 10 14 17 18 19 21 19 20 23 22 19 20 21 19 23 21 19 20 22
33 36 43 47 49 43 38 40 39 32 25 23 14 14 15 10 2 2 4 9 9 5 5 7 10 12 15 17 18 19 19 20 21 19 17 17 18 20 24 23 20 19 20 19
35 36 37 37 35 38 39 34 29 25 19 15 12 12 2 2 2 5 8 9 7 6 7 9 12 14 16 17 17 16 17 19 18 17 15 15 16 18 20 21 23 22 20 19
32 28 27 33 35 28 26 28 29 25 15 14 10 1 4 5 8 9 7 6 6 7 9 11 13 15 16 16 14 14 16 15 18 17 13 14 14 16 17 18 18 18 20 18
31 29 26 19 24 26 27 28 24 18 9 8 3 4 5 11 8 5 6 7 6 8 10 12 13 14 14 12 12 13 11 16 17 14 12 12 12 14 14 15 15 16 18 20
15 15 17 23 24 26 21 15 11 9 5 1 4 9 11 5 5 7 7 8 8 9 11 13 14 12 11 10 11 10 10 11 15 10 10 10 11 11 12 13 13 14 16 16
12 16 16 18 18 13 12 12 12 7 3 4 7 7 6 7 7 7 7 8 9 10 12 14 15 12 10 10 11 11 12 11 11 9 9 9 8 9 9 10 11 12 14 15
16 19 19 15 7 11 5 1 2 4 6 7 8 8 7 8 8 8 8 9 10 10 11 15 16 11 10 10 11 11 11 10 8 8 7 8 7 7 8 8 9 10 11 13
21 19 16 7 9 9 8 5 5 7 8 8 8 9 9 8 8 9 10 10 10 10 10 13 14 12 11 10 10 10 10 10 8 8 7 5 5 5 6 7 7 7 9 10
22 17 11 11 11 8 7 5 8 7 9 11 11 10 9 8 8 10 11 12 12 11 12 13 15 13 9 8 9 9 9 8 7 7 5 4 4 4 4 5 6 7 7 7
18 12 11 11 11 7 5 8 9 10 10 9 7 7 7 9 10 12 13 12 12 12 15 13 10 11 11 9 9 9 8 7 6 6 4 4 3 3 3 4 5 6 6 7
20 22 15 12 12 8 4 12 8 8 8 8 8 8 10 12 14 15 13 13 14 15 14 12 15 15 11 10 10 10 7 6 6 5 4 3 3 3 3 3 3 4 5 5
25 21 18 11 12 6 10 9 8 8 7 6 9 11 11 11 12 11 12 12 12 13 14 14 13 11 10 10 10 10 7 6 5 4 3 2 2 2 3 3 4 4 4 5
26 18 14 12 11 10 12 9 8 6 7 9 9 8 9 11 13 11 10 11 12 11 12 11 8 6 9 10 10 9 7 6 5 5 3 2 1 1 2 2 3 3 4 4
18 16 16 11 13 14 11 9 8 7 9 9 8 9 10 11 12 12 10 11 13 10 9 10 7 8 9 9 9 8 7 6 5 4 4 3 1 1 1 1 2 3 4 6
12 16 14 15 17 13 11 11 9 8 10 8 8 9 11 11 10 10 11 14 15 11 9 10 10 10 11 10 9 8 7 6 5 5 4 4 2 2 1 1 3 4 5 6

GFSNGP_850_spd_003.txt.gz
Wind_Speed
19 22 22 23 26 31 26 26 22 33 30 32 29 27 28 30 27 26 34 37 34 27 35 39 30 25 18 15 14 14 13 14 16 15 16 15 16 18 21 23 25 26 28 29
17 23 21 21 25 30 27 28 29 30 33 24 32 28 29 25 27 38 41 36 35 31 39 32 27 23 16 15 15 17 18 16 14 15 15 15 17 20 23 25 25 27 28 29
7 14 9 11 18 17 16 20 23 20 23 24 21 19 25 35 39 38 36 38 33 37 35 28 25 17 16 16 17 14 12 13 13 13 14 16 19 23 24 25 26 28 29 28
5 4 7 7 23 22 17 19 20 23 21 15 22 34 38 34 32 27 36 36 36 37 28 22 18 15 16 13 11 11 12 12 12 13 15 18 21 23 25 26 26 27 28 28
4 11 21 16 12 19 15 16 19 14 13 26 39 39 28 25 29 34 31 36 34 29 25 27 21 17 16 17 9 12 10 10 12 13 17 20 22 24 25 25 26 28 27 28
5 10 13 10 22 7 14 15 7 13 20 31 34 15 12 22 36 28 33 32 27 24 31 27 20 8 4 7 11 11 11 10 12 14 18 21 22 24 24 25 27 28 30 30
12 10 12 16 20 4 7 12 23 34 34 31 19 28 36 36 34 38 28 28 21 31 24 12 6 6 8 10 11 8 10 10 13 16 19 20 22 23 25 26 27 32 35 34
4 8 10 3 6 3 14 35 39 37 35 36 35 34 32 28 34 27 28 21 31 17 6 4 6 7 9 9 5 8 9 12 15 17 18 20 21 24 24 24 26 32 32 31
11 9 21 38 35 38 39 41 34 37 36 30 32 34 32 26 25 25 15 29 12 6 5 7 7 6 6 7 10 10 13 14 16 18 19 19 21 23 23 23 26 29 29 32
20 18 29 36 44 45 37 33 39 36 35 36 38 31 28 23 25 18 26 12 4 5 8 9 5 4 4 9 13 14 13 15 17 17 19 19 20 20 21 23 25 27 30 32
23 31 38 33 33 34 33 37 34 32 36 34 28 29 23 22 23 24 18 5 4 7 9 8 4 4 7 11 16 15 14 17 16 16 18 19 18 19 21 23 24 28 27 29
14 38 31 40 38 38 34 30 34 34 32 31 26 23 17 18 21 16 5 4 6 10 8 5 4 5 8 13 14 17 19 14 17 19 18 18 20 21 19 22 25 23 23 25
35 37 44 43 36 29 32 34 27 27 30 34 25 16 17 17 6 2 5 7 9 8 5 4 6 8 9 17 19 20 19 19 18 15 16 18 19 20 23 24 23 22 23 22
40 40 32 31 30 33 26 26 28 30 29 19 14 21 11 4 5 7 9 8 5 4 4 6 9 11 16 18 20 18 17 18 14 16 16 16 18 19 21 21 25 25 22 22
30 28 28 30 26 23 25 29 31 28 23 16 20 9 3 5 8 10 6 8 9 9 9 11 12 12 16 17 16 15 16 13 18 18 14 16 17 17 19 18 19 21 21 20
26 24 18 16 20 26 30 32 25 23 22 17 9 5 5 9 10 5 9 10 9 8 11 12 13 15 16 15 14 11 11 17 20 14 13 14 15 15 16 16 17 18 18 23
15 15 18 21 24 29 27 20 18 24 18 12 9 9 12 11 8 10 11 12 11 11 12 13 15 16 18 15 14 9 11 11 16 12 12 13 14 14 15 14 14 15 16 17
11 15 19 22 27 24 17 17 13 10 10 10 11 11 11 11 11 12 13 12 12 13 13 14 17 20 17 15 14 13 11 11 11 12 12 12 12 12 13 13 12 13 14 14
14 18 24 27 22 17 16 16 13 12 13 13 13 12 12 13 13 12 13 13 13 12 12 15 16 18 19 16 13 11 10 10 10 10 11 11 11 11 10 11 11 11 11 11
23 24 25 25 20 20 19 18 15 12 12 12 13 14 14 13 12 12 13 13 13 13 14 14 17 18 15 15 12 9 11 10 9 9 10 9 10 10 10 10 10 9 9 9
27 26 24 23 22 21 17 15 12 9 13 14 14 13 11 11 11 12 14 13 14 17 14 15 17 14 14 12 13 12 12 9 8 8 8 8 8 9 9 8 9 9 8 8
26 25 27 23 22 20 14 13 8 12 14 13 12 11 10 11 13 15 16 15 14 16 16 17 17 15 16 14 13 14 13 11 7 6 7 7 7 7 7 7 7 7 7 7
27 28 30 26 27 22 13 12 9 13 12 12 10 10 12 14 14 15 13 13 14 14 15 15 16 15 15 13 13 13 13 11 7 7 5 5 5 5 6 5 4 5 5 6
26 27 27 28 22 16 13 9 13 11 11 8 10 11 13 13 13 12 14 14 14 16 14 14 13 12 10 10 12 13 12 10 8 7 5 6 5 5 4 4 3 4 5 5
29 31 31 25 18 14 11 14 13 11 8 9 11 11 11 13 15 14 14 12 12 14 13 13 12 9 8 10 11 13 11 10 8 6 6 5 4 4 4 4 3 3 4 4
26 26 23 18 14 11 10 12 10 9 8 9 10 11 13 14 15 14 12 12 14 16 14 13 12 12 12 12 13 13 11 10 10 8 6 5 5 3 4 4 3 2 2 3
27 18 14 16 15 16 14 12 11 10 11 11 11 12 12 14 12 10 9 11 12 11 11 13 13 12 12 13 13 12 11 10 9 8 8 5 5 4 4 3 2 1 1 2

GFSNGP_850_spd_006.txt.gz
Wind_Speed
17 19 20 23 25 24 23 21 19 24 22 23 19 18 17 21 23 28 29 27 27 35 34 33 34 31 25 26 21 15 12 12 13 15 19 19 15 14 19 23 28 29 32 31
7 19 20 19 22 25 25 22 21 20 21 16 24 21 23 28 31 28 22 24 33 31 36 37 32 27 22 20 15 13 13 16 21 14 12 13 15 18 25 27 27 30 29 31
8 9 11 11 14 16 13 17 17 16 21 18 15 18 23 31 28 18 24 30 30 34 37 31 26 21 23 17 15 17 19 20 11 10 10 14 17 22 24 28 27 29 31 29
3 3 6 7 20 24 20 16 17 19 21 15 18 30 30 25 21 25 25 37 38 37 31 26 27 29 33 26 15 18 13 10 7 9 12 16 20 23 25 27 29 31 29 29
3 8 17 16 17 13 19 13 16 10 18 30 32 31 26 17 24 33 37 32 35 30 27 27 29 34 27 20 19 9 8 6 8 11 14 19 21 22 27 29 28 27 27 32
3 13 15 2 18 27 14 15 14 18 22 25 21 13 11 29 27 27 24 27 26 27 28 37 31 17 6 7 7 8 8 8 10 13 15 18 21 26 27 24 27 29 36 29
10 10 10 14 19 15 7 5 26 23 25 27 14 15 31 36 28 25 25 26 24 22 35 19 9 5 7 9 12 7 7 10 12 13 17 19 22 24 24 27 30 29 27 35
5 5 11 5 13 5 18 29 33 28 26 29 30 30 27 28 21 29 26 26 21 30 16 8 6 7 8 8 2 5 13 13 13 15 18 21 21 24 25 27 25 26 34 33
9 7 29 40 38 31 45 36 37 33 35 24 30 31 28 26 25 20 22 19 28 13 8 8 9 6 6 8 11 15 14 13 17 20 21 18 24 22 23 22 25 31 30 35
16 19 30 38 44 41 37 34 32 31 26 31 27 28 30 25 21 19 18 26 15 7 7 9 7 6 6 8 12 14 16 17 20 20 20 23 21 19 21 24 27 30 33 31
21 29 33 32 31 37 39 37 22 27 21 22 27 30 27 21 20 19 26 14 7 7 9 10 6 5 6 10 13 16 18 20 18 19 22 20 18 19 20 22 25 27 27 28
17 33 29 38 40 40 29 20 21 21 23 26 27 23 20 21 26 21 12 7 7 9 9 8 5 6 8 10 16 20 21 20 20 19 17 17 20 21 21 20 23 23 23 24
29 45 45 40 33 27 22 22 21 24 22 20 18 19 23 21 14 10 10 10 9 8 7 6 7 7 11 17 21 19 20 18 18 14 17 18 19 23 25 26 24 22 24 25
40 31 22 21 21 19 16 20 25 20 16 17 19 19 18 11 10 10 11 8 9 7 6 8 11 11 16 18 20 21 20 18 14 19 20 17 19 21 21 24 27 25 23 25
21 21 18 16 17 19 21 24 23 18 17 19 17 15 11 10 12 13 10 12 12 11 11 13 13 15 16 18 20 19 17 17 17 23 19 15 17 20 19 22 21 22 24 25
13 13 12 15 20 23 26 27 20 16 20 16 21 16 13 14 14 13 13 15 14 12 13 14 15 16 18 21 18 14 11 14 17 21 16 17 18 19 18 20 19 20 21 23
9 14 19 20 22 25 26 23 18 24 18 19 15 16 17 15 15 14 15 16 15 14 15 15 15 16 19 21 16 12 12 15 15 15 16 17 17 18 16 18 17 17 17 18
9 12 16 21 24 27 28 25 28 20 14 14 15 17 16 15 16 16 16 16 15 15 14 13 15 17 21 20 16 13 10 13 12 13 14 16 16 14 15 16 15 15 15 16
13 19 24 27 28 28 29 27 25 20 16 14 14 16 17 18 17 16 15 15 15 14 14 17 16 17 20 17 15 13 11 14 14 11 14 17 12 14 14 13 15 13 12 14
23 26 28 28 29 29 29 28 24 18 15 11 13 18 16 15 14 14 13 14 13 13 16 17 17 18 19 18 16 15 11 16 15 13 11 12 12 13 12 12 13 13 11 12
26 30 32 31 29 29 28 24 22 17 13 9 16 14 13 12 13 14 15 15 13 16 18 17 16 16 17 15 16 16 15 16 12 12 11 12 11 10 11 11 11 12 12 10
32 30 32 32 30 32 28 30 25 12 10 13 14 12 11 10 13 14 12 13 15 16 17 17 15 13 14 16 17 15 14 14 13 11 9 11 10 8 9 9 8 9 10 10
32 29 28 31 32 33 31 28 18 9 11 14 11 9 11 11 11 12 12 14 16 15 17 16 15 15 13 12 12 12 13 13 12 10 10 9 9 9 7 10 6 9 9 7
28 30 32 34 31 32 30 21 12 10 13 11 9 9 11 10 11 9 13 17 15 14 15 16 15 14 12 10 10 11 12 12 11 10 11 10 9 7 8 8 6 7 8 5
33 31 33 35 32 28 23 12 11 14 11 9 9 10 11 10 13 16 16 16 13 14 16 16 15 13 12 12 12 12 13 13 11 11 10 8 10 6 5 8 7 7 7 5
29 33 39 29 25 18 10 11 13 11 8 7 8 10 10 12 15 17 14 11 12 13 13 14 15 16 14 13 13 13 14 13 13 11 9 9 9 7 6 7 6 5 5 4
31 32 27 22 16 13 14 12 12 10 12 10 10 11 11 12 15 16 10 10 10 11 12 14 14 15 15 14 12 14 13 13 13 11 11 9 8 7 7 6 5 3 3 2

GFSNGP_850_spd_009.txt.gz
Wind_Speed
8 7 10 16 20 21 16 16 13 24 19 17 8 7 12 17 20 17 16 19 28 34 35 38 36 30 27 28 31 19 15 10 9 10 12 14 16 19 10 15 21 26 28 29
6 12 11 8 21 21 20 15 12 13 18 7 14 22 24 23 23 22 22 31 35 37 35 36 30 26 28 32 27 19 16 19 16 14 16 21 13 15 16 21 25 25 30 30
12 3 5 7 13 4 6 12 11 7 4 19 18 24 25 26 17 16 25 32 37 35 36 29 26 27 32 30 34 32 24 21 21 24 15 11 10 11 21 23 27 30 32 34
4 2 4 8 14 21 17 8 8 8 14 21 22 24 25 26 17 26 37 33 34 34 28 27 31 32 39 33 22 20 16 8 6 5 4 6 15 19 23 26 28 32 31 28
2 3 9 9 9 3 11 16 4 10 21 26 23 32 18 13 18 27 30 29 29 26 25 35 31 38 24 10 11 12 9 3 2 6 12 14 18 20 23 28 31 28 28 32
2 4 6 7 4 16 14 11 11 23 15 22 25 13 12 23 33 31 30 26 23 23 33 29 31 18 10 12 12 7 2 6 6 10 16 16 18 22 27 27 26 30 30 26
3 5 7 7 9 9 4 9 22 18 19 23 11 17 26 32 24 29 20 23 21 30 27 27 15 11 8 10 7 6 3 8 16 15 16 18 23 25 24 26 26 23 25 30
2 5 8 5 12 5 14 26 35 32 21 26 25 24 26 26 30 22 21 24 26 25 23 13 11 7 7 5 6 11 15 14 15 17 19 21 21 22 24 23 23 26 30 31
9 6 11 29 25 33 39 37 37 29 19 21 17 26 29 32 22 19 21 22 26 19 12 11 8 7 7 8 11 12 15 17 17 19 19 19 22 22 20 21 25 27 30 29
6 5 25 31 41 38 36 34 23 18 20 16 20 20 23 22 27 29 31 31 15 8 9 9 8 9 9 10 12 16 18 19 19 19 19 20 18 17 19 21 26 26 26 27
14 24 32 27 28 33 24 20 16 10 14 15 21 21 23 31 34 31 25 14 9 7 9 10 6 10 12 15 18 18 21 21 19 18 17 15 17 18 19 21 18 23 23 24
15 28 23 33 25 28 13 10 11 15 16 18 18 25 32 27 24 17 14 12 10 14 8 8 7 9 10 13 17 21 20 20 16 15 15 21 19 18 15 17 19 19 17 20
22 30 37 24 21 15 11 15 17 18 22 20 24 25 22 18 15 10 12 10 9 9 9 12 12 14 16 17 19 20 21 16 14 14 20 22 16 17 22 20 21 17 18 22
38 36 14 8 8 10 13 17 19 16 18 20 22 16 14 13 13 11 8 12 13 12 13 12 13 13 14 16 18 19 16 14 16 16 20 18 15 18 18 20 23 21 20 23
11 7 7 9 12 13 15 19 20 19 21 24 17 11 7 8 10 10 12 13 13 13 13 14 13 13 14 16 19 18 13 13 12 15 20 16 16 17 18 17 18 19 20 21
4 4 5 11 15 19 22 24 24 26 26 22 13 10 12 13 13 13 13 14 15 14 13 12 12 13 14 17 18 17 11 13 15 18 16 16 17 18 15 16 17 17 18 20
9 6 9 16 21 26 26 25 29 29 29 20 16 15 14 14 13 14 15 14 13 12 12 13 12 13 15 17 17 15 13 11 13 14 12 14 18 14 15 16 17 14 15 16
5 6 14 21 25 29 31 32 31 31 29 25 20 16 14 14 17 15 14 12 11 10 11 11 13 15 15 17 16 14 14 12 15 14 11 15 14 14 14 14 15 14 13 14
6 12 28 27 27 26 28 30 30 29 30 23 19 12 13 16 15 12 11 11 12 12 13 15 17 16 16 17 14 15 15 13 16 13 12 13 12 13 12 13 13 14 12 13
20 25 27 31 32 28 28 27 27 30 23 23 16 10 14 15 12 11 12 12 10 10 13 15 14 12 14 15 13 15 17 15 15 12 13 11 11 11 11 12 12 13 12 11
24 26 32 39 35 32 30 27 28 27 27 23 8 10 14 12 11 11 12 12 10 13 13 14 13 11 12 11 12 15 15 15 14 14 11 11 12 11 10 11 10 11 12 11
28 34 39 36 32 34 32 33 27 26 25 14 8 12 12 8 10 10 10 8 12 13 12 13 12 13 13 10 10 12 12 13 13 11 11 12 11 10 10 10 8 10 12 10
34 39 35 34 34 35 36 34 30 22 18 11 9 11 8 8 8 9 10 10 13 11 12 12 13 12 12 10 9 8 10 13 13 12 12 13 12 10 7 9 9 9 10 9
36 35 34 34 35 35 37 35 23 17 12 6 11 9 8 8 8 7 9 13 12 11 11 13 13 13 11 10 10 9 11 13 13 12 12 12 11 11 9 8 10 9 10 7
37 34 36 33 32 33 34 26 17 12 8 9 10 8 8 7 8 10 12 11 9 9 11 10 12 13 14 11 10 9 11 13 13 12 13 13 12 12 10 8 10 8 6 5
36 38 36 34 30 34 25 19 11 8 7 9 8 7 8 9 10 11 9 8 8 9 9 10 12 13 13 14 12 10 11 11 12 12 11 9 10 11 9 7 8 5 3 3
34 34 33 33 35 30 18 13 11 10 8 10 11 11 11 10 10 10 9 8 8 8 11 12 11 11 12 13 13 13 12 10 11 12 12 11 10 10 9 8 6 3 3 2

GFSNGP_850_spd_012.txt.gz
Wind_Speed
6 8 5 16 17 17 11 14 6 15 12 13 3 2 9 14 14 19 23 20 27 32 35 33 33 31 32 27 32 37 31 25 19 16 15 12 9 9 10 17 16 15 22 25
9 7 8 18 15 13 13 14 11 10 13 2 12 13 14 20 27 27 20 24 35 32 34 32 31 29 26 30 34 36 29 21 21 18 16 17 15 13 12 12 13 19 24 26
6 4 5 10 7 5 6 7 8 7 5 5 9 12 17 31 29 29 21 32 39 33 32 31 31 27 32 32 31 18 14 14 15 13 12 12 7 4 8 13 19 24 26 29
3 1 4 8 5 6 5 7 7 3 4 9 14 22 23 23 23 20 28 36 35 33 31 32 29 32 32 24 10 11 9 8 7 6 7 4 6 10 17 21 24 27 30 29
2 3 6 10 9 2 2 7 4 4 12 19 29 31 23 19 21 25 33 30 31 26 31 28 30 31 25 15 10 9 9 8 6 3 8 13 19 20 21 23 27 29 28 31
3 4 5 8 4 4 2 5 6 13 14 24 25 11 12 20 20 27 32 31 27 26 24 27 30 26 18 13 11 5 5 8 10 12 18 17 19 21 23 25 25 28 27 25
3 6 8 9 10 5 4 9 14 22 26 23 8 11 20 21 25 26 26 24 24 25 27 31 21 15 6 6 6 6 9 14 16 16 18 19 21 21 21 25 25 24 26 28
2 3 8 4 2 1 9 15 29 31 18 11 12 16 19 22 18 24 29 32 31 33 25 16 16 9 8 6 9 12 13 14 16 18 20 20 20 21 22 21 22 25 28 28
9 7 5 8 22 21 29 32 23 12 12 14 13 15 18 24 27 35 35 35 26 15 14 13 8 9 10 11 9 15 15 17 21 21 20 20 22 20 19 21 22 25 24 26
6 8 16 24 37 38 26 19 13 14 11 14 12 21 21 26 33 30 28 21 18 15 14 9 10 6 9 13 14 16 19 22 24 21 21 19 17 18 19 19 19 20 25 25
14 22 31 30 23 19 11 8 7 5 4 19 17 19 22 28 28 23 22 20 17 13 11 7 7 10 15 15 14 17 21 22 21 19 17 15 18 16 15 15 16 21 21 21
14 24 20 24 16 5 9 6 7 15 23 20 19 18 26 24 20 19 15 12 10 10 13 15 14 14 14 16 18 19 20 21 17 15 14 18 18 16 13 16 17 18 15 19
25 33 31 13 3 4 2 9 13 17 20 21 19 23 23 20 17 17 17 16 14 12 14 15 15 15 16 16 17 19 21 18 15 14 15 19 18 18 21 20 18 16 16 18
33 29 11 5 6 5 10 19 20 20 21 22 24 26 19 15 14 14 14 15 17 17 18 16 15 16 15 14 17 19 20 17 16 13 16 17 17 18 19 20 21 19 17 19
9 3 8 4 8 13 13 18 22 21 23 24 25 24 19 15 15 16 16 17 18 18 16 15 14 14 13 14 17 18 18 17 15 14 16 16 17 17 18 16 18 18 17 17
10 12 8 8 15 18 23 22 22 26 25 27 26 23 19 16 16 16 16 17 17 15 13 13 12 13 13 15 17 17 16 16 13 17 18 15 15 18 15 16 16 17 16 18
12 10 12 12 15 20 22 23 23 27 29 27 24 23 20 17 14 14 18 15 13 13 13 13 12 12 14 15 17 15 13 12 12 17 15 13 16 14 15 14 16 16 14 16
7 5 12 19 23 27 28 26 25 26 27 25 25 20 22 17 12 14 16 13 11 12 12 11 13 13 14 13 14 11 13 12 13 17 15 14 13 14 13 14 15 14 14 14
12 21 25 26 26 28 25 24 24 26 25 26 24 23 21 10 11 14 14 12 12 12 11 13 14 14 11 13 13 13 14 15 15 15 13 13 13 14 13 13 14 13 14 14
26 26 24 24 28 30 29 27 26 29 29 25 25 24 17 8 11 14 11 10 10 9 12 11 11 10 10 12 12 9 13 14 16 14 14 13 14 15 14 13 13 12 13 14
27 26 28 32 37 33 31 31 31 35 33 27 23 22 12 8 14 11 8 10 8 11 9 10 10 11 12 12 8 9 12 10 12 13 12 13 14 14 13 13 12 11 13 12
30 31 33 37 36 36 34 34 31 29 35 30 23 18 9 11 11 10 9 9 10 10 8 8 9 12 12 11 10 8 7 10 13 12 12 12 14 13 12 11 11 12 12 11
34 34 35 36 38 34 37 34 30 34 35 27 20 12 9 9 9 9 9 9 10 8 8 8 11 12 12 11 10 8 9 11 12 11 11 12 13 12 12 10 10 11 12 10
37 38 37 36 35 36 36 34 31 37 29 20 11 8 9 10 9 9 7 10 9 7 7 8 9 10 13 13 10 8 10 11 11 11 11 11 13 13 13 10 10 12 9 7
35 33 34 34 33 35 32 34 36 32 20 10 7 6 9 9 8 8 8 8 6 6 6 6 8 10 11 12 13 11 11 11 11 10 10 12 11 12 12 10 9 7 5 4
35 34 34 33 36 33 31 32 30 17 9 6 5 7 9 7 9 10 10 7 7 7 7 7 9 10 10 11 12 13 13 10 10 10 10 9 8 9 9 8 7 5 4 2
37 33 36 36 33 27 25 24 15 9 8 5 7 8 10 12 12 11 10 8 7 8 8 9 9 8 10 10 10 11 12 11 10 11 11 10 9 8 8 7 5 4 3 2

GFSNGP_850_spd_015.txt.gz
Wind_Speed
5 7 7 13 12 16 7 10 6 10 11 12 5 5 14 19 22 25 26 26 22 28 34 32 31 34 35 33 33 38 38 36 24 19 16 14 16 15 13 11 16 15 18 20
4 7 9 15 13 11 12 9 8 9 9 0 6 11 14 20 23 27 26 26 27 31 32 35 33 34 33 31 35 35 27 20 16 15 14 8 10 17 18 9 11 15 19 23
5 5 9 6 7 4 4 5 5 5 5 3 7 13 20 26 29 26 30 24 28 34 38 35 34 34 30 32 31 20 14 13 10 8 8 9 10 12 12 13 16 19 22 26
3 3 2 8 3 6 9 9 6 4 3 8 17 23 27 22 12 19 22 27 31 34 36 37 35 31 32 30 25 18 15 13 13 12 11 10 13 17 17 18 20 24 27 28
3 4 6 10 10 2 4 6 5 5 5 19 26 25 18 9 17 23 23 28 31 31 33 33 35 35 31 25 19 13 9 7 7 11 16 17 19 18 21 23 24 25 27 28
2 4 5 8 3 2 3 7 8 3 10 18 18 9 4 13 19 20 20 23 29 33 34 35 35 21 19 19 7 10 9 11 14 15 16 18 21 23 22 23 25 26 26 27
3 7 8 10 11 3 4 5 10 13 21 20 6 9 13 18 19 17 27 33 37 36 29 22 20 18 21 7 9 7 13 16 14 17 20 23 23 23 24 25 24 24 27 29
2 3 8 6 1 5 10 25 17 21 11 7 6 9 17 20 22 27 32 33 30 28 23 20 17 14 17 11 13 9 17 16 19 22 23 23 23 23 22 23 25 27 27 27
9 6 5 11 13 28 19 21 16 8 8 3 9 16 20 24 23 29 30 28 27 26 24 23 17 13 11 9 13 18 16 21 23 24 22 22 21 21 23 23 24 25 26 29
5 7 24 22 32 36 33 14 13 9 2 11 16 19 21 20 24 29 29 27 24 20 15 9 7 7 11 15 17 19 19 23 24 24 21 19 19 21 21 21 24 24 26 28
10 22 28 30 18 21 17 11 2 4 4 18 20 26 23 21 26 26 24 20 20 18 17 16 16 15 16 15 14 19 20 21 22 21 19 19 20 21 20 20 21 24 25 24
10 25 23 27 19 9 10 4 5 12 15 19 21 22 22 25 25 22 19 20 18 15 15 18 19 20 17 17 18 19 21 22 22 20 19 19 22 23 18 20 21 20 21 20
27 33 24 19 2 5 11 10 15 18 17 19 20 21 24 27 24 20 19 18 18 19 20 21 21 18 17 17 17 18 21 23 22 19 18 20 22 21 24 24 20 21 20 19
27 18 4 2 3 5 14 15 16 19 20 23 24 23 24 25 24 21 19 20 20 20 20 20 19 18 17 16 16 18 20 22 21 18 17 20 20 21 22 23 24 24 21 19
8 4 5 8 7 11 16 21 23 25 26 28 27 26 24 23 24 23 21 19 17 20 20 19 17 17 17 16 17 19 21 21 20 17 18 20 19 18 21 19 20 21 22 18
14 15 10 11 11 13 23 27 25 26 26 29 30 26 21 21 24 24 21 17 19 21 19 17 16 16 16 15 17 19 19 16 17 18 20 21 18 19 18 18 18 20 20 20
12 7 13 14 18 24 26 25 25 25 26 26 26 25 24 26 22 27 18 15 20 19 16 15 15 15 18 18 17 17 12 13 15 17 20 18 18 16 17 17 17 18 18 18
11 13 17 24 28 25 25 29 29 27 26 26 28 29 28 25 25 20 11 14 19 16 15 15 16 15 15 12 15 15 12 15 17 17 18 17 17 16 17 17 16 17 16 17
14 18 21 21 22 22 26 31 28 27 27 28 29 30 29 27 23 18 12 17 16 15 14 15 14 12 11 10 13 14 12 14 18 18 18 17 16 16 16 15 15 15 15 16
22 21 21 23 23 24 30 29 30 30 31 27 29 31 35 27 21 14 13 16 13 13 13 13 11 9 11 11 11 10 11 13 15 17 16 15 15 16 15 15 14 14 14 14
24 23 25 27 29 30 30 31 28 31 33 28 30 34 31 23 17 11 15 14 9 10 14 11 9 9 10 12 12 10 11 10 13 16 14 14 15 16 15 13 12 12 13 13
27 30 32 33 33 33 33 31 30 31 27 29 32 33 27 19 13 11 13 11 12 14 11 10 9 10 12 13 12 11 8 10 13 15 14 13 14 15 15 13 11 12 12 12
28 31 32 32 32 32 33 31 30 27 30 29 35 27 21 10 8 10 13 12 13 11 11 8 9 10 11 13 11 9 9 11 14 14 14 13 13 15 15 13 11 11 11 10
30 32 33 35 34 33 34 36 36 29 28 32 24 14 8 7 8 11 12 10 10 11 10 8 7 9 10 11 12 11 11 12 14 14 14 13 12 14 14 14 10 10 8 7
31 33 35 37 32 34 36 35 31 25 28 21 6 7 7 6 9 11 12 14 12 10 9 10 9 11 12 12 12 13 13 14 14 12 12 13 13 12 12 12 9 8 7 5
31 33 35 30 26 28 32 28 28 26 20 8 6 6 5 9 8 9 11 10 9 10 11 11 12 12 13 14 13 14 13 14 13 13 12 13 13 11 10 10 8 7 5 4
34 35 31 31 32 28 29 25 25 20 10 8 7 6 8 9 10 12 14 11 9 9 11 12 14 14 11 13 14 13 13 14 13 12 13 13 13 12 11 9 8 7 5 4

GFSNGP_850_spd_021.txt.gz
Wind_Speed
5 10 4 8 12 11 13 13 8 16 16 19 12 8 5 15 19 19 18 16 16 16 16 20 27 32 37 37 34 30 26 27 22 22 18 13 12 11 12 14 17 19 20 19
4 5 4 8 14 14 13 14 13 18 22 20 10 6 10 14 15 15 12 12 13 14 21 26 32 34 33 31 28 24 26 26 20 19 11 14 13 17 17 18 20 19 17 20
4 4 8 7 4 4 3 6 5 7 10 4 7 7 14 16 13 9 9 13 17 20 26 30 32 32 32 30 26 25 24 17 15 14 14 14 16 19 20 21 21 21 23 24
3 4 2 2 2 6 6 15 9 11 10 9 9 13 18 15 6 7 12 16 20 22 28 32 33 31 26 24 24 19 13 10 13 15 16 16 18 22 24 23 22 23 24 24
2 3 7 10 4 1 5 9 3 3 1 9 13 16 22 12 11 11 16 20 20 25 31 31 30 26 23 19 19 14 13 11 15 15 18 21 23 26 24 24 24 24 23 24
2 3 5 4 2 2 3 8 1 2 13 13 24 12 11 6 11 11 15 20 23 27 30 28 24 21 19 19 22 17 14 14 16 19 20 23 25 24 24 23 23 23 24 23
7 6 8 7 7 0 1 5 3 14 18 20 14 13 4 16 12 17 20 22 23 27 27 26 21 19 17 17 18 16 17 18 18 20 23 25 24 23 23 22 22 22 23 23
2 4 7 4 1 3 4 16 25 23 18 10 3 8 13 16 22 22 24 24 24 28 26 23 19 18 18 16 16 18 19 20 20 22 23 23 23 21 21 22 23 24 25 23
9 7 5 5 17 24 24 20 14 8 2 4 11 13 19 21 23 26 24 23 26 27 26 22 18 17 19 19 21 20 20 18 20 19 21 22 22 21 22 22 22 22 20 21
2 8 12 25 31 18 10 3 6 2 3 10 12 14 20 26 27 28 27 26 28 27 26 25 20 19 22 21 21 19 18 19 18 19 20 21 20 19 20 19 19 19 20 21
8 19 24 17 8 9 1 9 5 4 6 10 14 17 22 28 31 31 29 29 30 29 26 26 23 24 25 22 19 18 18 18 17 19 20 20 19 19 20 18 20 20 18 19
6 19 19 13 4 4 6 5 8 9 11 15 18 23 25 30 32 32 33 31 29 27 26 25 25 26 23 20 19 17 17 16 17 19 20 20 19 21 17 16 19 18 18 19
20 14 6 3 3 7 6 9 12 15 20 24 26 25 26 28 30 31 30 28 27 27 27 27 27 24 20 20 17 16 16 16 17 19 18 18 19 22 22 21 18 16 18 18
4 3 5 3 4 6 10 13 20 22 22 24 26 29 30 31 32 31 33 32 32 31 31 27 25 20 21 17 15 15 15 16 17 15 15 18 20 21 21 21 23 22 20 20
8 5 11 9 5 10 17 20 24 26 26 28 30 30 29 31 33 34 34 33 35 32 27 27 22 19 17 14 13 14 15 16 12 11 14 17 19 19 19 20 21 21 21 20
11 9 5 7 12 16 19 22 26 30 30 31 33 36 35 36 36 35 37 35 34 33 28 24 18 14 13 12 13 15 14 11 10 12 15 17 19 18 18 19 19 19 19 21
3 9 12 14 17 20 22 24 27 30 33 35 37 36 38 36 34 35 34 33 34 32 27 18 13 12 12 12 13 13 12 12 11 12 14 18 18 17 17 19 18 17 17 18
8 11 13 16 20 23 27 29 31 32 33 35 35 36 36 35 33 33 35 33 35 29 19 11 10 12 12 11 12 11 13 13 11 10 13 16 15 15 16 18 17 16 16 16
12 15 18 19 21 24 26 28 29 31 34 34 34 36 35 35 33 31 31 35 30 19 9 7 11 13 9 8 9 10 12 9 9 10 12 15 15 15 15 17 17 15 15 15
18 19 19 21 22 23 26 28 30 34 35 32 34 36 38 37 33 28 29 31 19 8 6 9 11 9 7 9 10 12 12 10 9 10 13 15 16 15 15 16 16 15 14 14
21 20 20 23 24 26 28 29 32 33 33 30 33 34 32 31 24 26 28 18 5 4 7 9 10 8 7 9 9 11 9 8 9 11 14 15 16 16 15 15 15 15 13 13
20 21 22 24 25 29 31 32 30 30 29 33 31 30 30 29 29 24 13 4 4 7 8 9 11 8 7 7 10 11 11 10 10 12 13 15 15 15 15 14 14 15 13 12
21 23 25 24 26 29 33 32 30 27 27 28 29 29 28 26 16 5 1 3 6 8 8 9 11 8 7 7 10 11 11 12 13 13 14 13 13 14 15 15 13 14 13 11
24 24 24 25 27 31 35 33 30 29 26 25 26 25 21 9 3 4 6 8 9 6 8 10 11 9 8 9 11 12 13 13 13 13 14 15 14 14 14 15 13 12 12 10
22 23 25 27 30 32 36 30 29 27 26 26 26 23 11 8 7 7 8 9 10 13 12 11 10 11 11 12 15 16 14 14 14 13 12 13 12 14 15 15 14 12 11 10
21 24 28 29 30 33 32 28 24 25 25 26 27 18 11 10 9 10 8 8 11 13 11 10 12 11 12 14 16 14 14 15 14 12 12 12 13 13 14 15 15 13 12 10
23 27 30 32 32 30 26 24 22 24 25 24 26 15 11 13 12 13 13 12 15 16 15 14 12 11 13 14 14 15 16 15 14 14 13 13 13 13 13 14 15 14 13 11

GFSNGP_850_spd_024.txt.gz
Wind_Speed
8 11 14 13 15 13 16 17 11 18 17 16 16 15 15 7 11 17 18 15 12 13 13 13 15 18 18 19 19 18 18 20 18 13 15 16 12 13 12 15 16 17 18 15
4 7 10 13 16 15 16 16 17 18 19 16 13 12 5 10 16 19 17 12 10 9 12 14 16 19 19 18 18 18 18 17 11 10 10 11 12 13 13 15 17 16 16 17
3 8 14 5 4 2 4 6 8 12 13 12 13 8 12 17 20 20 12 10 10 13 13 16 18 20 19 18 17 18 16 14 11 11 10 10 11 14 16 18 17 17 17 17
2 4 3 3 7 11 14 14 10 12 11 8 10 11 16 22 12 8 6 9 12 12 16 17 18 19 19 18 17 16 15 14 12 12 11 12 14 15 18 17 17 18 17 16
2 3 13 12 3 2 3 15 10 6 6 14 21 26 24 10 3 4 6 9 14 14 15 17 20 19 19 17 16 16 14 12 13 15 15 14 16 17 17 17 17 17 16 18
2 3 5 5 4 3 4 9 6 11 15 25 25 10 8 8 9 9 12 16 16 17 17 19 20 18 17 16 14 13 10 12 14 14 15 16 16 16 16 16 17 17 17 18
6 6 8 8 4 1 4 4 11 20 21 17 10 5 5 9 11 12 14 17 19 18 19 21 19 16 15 15 15 13 14 15 15 15 15 16 15 15 16 16 17 20 20 19
3 4 6 1 4 3 12 21 21 20 10 5 7 5 8 12 14 15 18 20 20 21 22 23 19 16 17 17 17 17 16 15 14 14 14 14 15 15 16 16 18 20 20 19
6 7 12 17 17 19 16 16 7 4 5 5 6 8 12 15 18 20 21 22 22 23 26 24 22 20 20 20 18 16 14 13 14 13 13 14 16 16 16 16 16 18 17 18
7 10 17 17 22 7 8 11 5 7 6 7 9 14 17 20 22 24 25 26 26 26 27 27 23 22 21 20 16 14 14 13 13 12 14 14 14 13 14 15 15 15 17 18
14 19 21 10 4 4 1 5 4 2 5 10 15 19 21 23 24 24 25 25 25 24 25 26 25 24 21 19 15 14 13 12 12 11 12 13 12 12 12 12 16 15 15 16
5 12 8 3 2 0 2 3 3 7 11 15 17 19 22 24 25 25 26 27 25 25 26 27 27 25 21 15 12 14 12 11 11 13 11 10 11 12 16 19 18 16 16 18
9 8 2 6 1 6 2 3 7 13 16 19 20 20 22 25 27 29 26 26 26 28 29 29 28 22 17 15 15 15 14 13 10 12 9 9 10 11 13 13 18 20 20 18
3 3 5 4 2 3 4 9 14 16 17 19 21 23 25 28 30 28 27 27 26 26 25 25 24 21 16 14 11 13 12 12 13 9 8 9 11 12 11 12 13 14 16 20
2 2 3 5 1 6 10 14 17 19 21 23 23 24 26 29 29 30 28 27 26 25 24 25 27 23 16 8 9 10 12 9 10 8 9 11 12 12 11 11 12 13 13 13
9 5 2 2 7 10 14 17 19 22 24 25 26 28 27 28 30 32 29 26 27 28 28 32 22 13 7 7 10 8 9 10 7 7 8 9 10 11 10 10 11 12 12 12
2 1 5 9 12 14 15 17 19 23 26 28 30 37 37 37 38 34 33 32 26 27 31 26 13 8 6 9 10 7 6 8 10 8 7 9 10 9 9 10 10 11 10 12
2 5 9 12 15 16 18 19 20 25 28 33 35 36 37 37 38 38 34 29 24 26 26 13 5 5 8 10 7 7 6 8 6 6 6 7 9 9 9 9 9 10 9 10
6 10 12 14 14 17 21 22 26 29 31 33 34 35 35 39 34 31 27 22 24 23 11 5 4 7 10 8 7 6 7 8 6 6 6 9 8 9 10 10 9 9 8 8
13 14 15 17 18 20 23 24 27 31 32 31 32 32 36 34 32 29 26 24 20 10 6 4 7 9 7 7 8 5 8 6 6 6 8 9 9 10 11 11 12 9 8 7
20 19 18 18 22 23 22 24 27 31 30 29 29 29 32 32 31 28 24 16 9 3 4 6 7 4 5 5 5 7 7 6 7 8 9 10 11 10 11 10 10 9 8 7
20 19 18 20 23 25 24 26 29 31 30 32 29 25 29 29 28 20 9 4 4 5 7 5 5 9 5 6 5 8 7 7 7 7 8 9 10 11 11 11 11 9 9 8
18 19 21 22 22 24 27 28 31 32 32 29 24 23 24 26 20 11 5 6 7 9 8 7 9 11 8 7 7 9 9 10 10 9 11 12 12 11 11 11 11 12 10 9
20 21 22 21 22 25 30 32 33 32 28 24 20 21 24 24 15 10 9 10 12 9 8 10 11 10 8 8 10 12 12 11 10 10 11 10 11 12 12 13 13 12 12 11
22 22 21 21 25 23 25 26 28 25 26 23 20 21 24 21 15 12 12 12 11 12 13 13 12 11 11 10 11 13 12 10 11 12 11 11 11 11 12 14 14 13 12 11
22 19 19 24 28 29 26 21 23 26 27 23 23 24 24 21 16 14 15 13 13 14 14 17 14 11 11 12 13 13 11 12 12 12 12 11 11 12 12 14 14 15 13 12
18 20 25 27 23 23 25 21 24 27 25 22 25 24 22 23 17 17 18 21 21 18 19 19 19 16 12 12 12 11 12 13 14 13 12 11 11 12 12 13 13 14 14 13

GFSNGP_850_spd_027.txt.gz
Wind_Speed
7 11 12 14 13 14 16 16 15 18 19 16 17 13 18 14 10 14 18 20 18 16 18 15 14 16 17 19 18 18 18 18 18 20 14 15 14 14 15 16 17 19 21 21
4 6 12 17 16 16 17 13 12 14 15 11 15 16 14 17 18 21 21 18 13 13 14 14 16 18 19 19 18 17 18 18 16 13 14 15 14 14 15 17 20 21 21 20
4 9 14 6 3 7 7 7 11 11 12 15 11 14 21 25 22 19 14 17 11 12 13 16 17 18 20 19 19 19 18 17 17 15 14 13 14 16 17 20 21 21 21 20
3 5 2 7 16 14 12 9 10 12 12 8 12 19 24 14 9 10 13 11 12 13 15 17 20 20 20 21 21 19 19 18 16 15 15 15 17 18 20 20 20 20 20 20
2 4 14 12 3 6 9 15 11 5 9 19 23 24 20 8 8 15 11 15 13 16 19 21 22 22 23 24 22 20 19 16 16 14 16 17 18 19 19 19 20 20 19 19
3 4 4 6 9 4 7 11 4 12 22 24 25 12 7 11 20 16 17 17 20 21 23 24 25 25 25 25 24 22 20 18 16 18 17 18 18 18 18 19 20 19 20 23
7 6 9 9 4 3 5 3 19 20 13 12 6 8 16 20 19 15 17 20 22 24 25 26 26 27 28 28 28 26 22 17 18 18 17 17 16 16 19 19 19 21 26 25
3 3 6 2 5 5 9 17 14 13 11 11 11 11 14 15 17 18 21 24 25 27 28 29 29 30 31 30 30 26 20 19 19 17 15 15 15 17 19 18 17 23 23 23
8 5 14 14 10 6 7 6 7 7 9 5 7 10 13 17 20 23 26 27 27 28 29 29 29 29 32 28 27 20 18 20 17 15 14 14 16 17 17 17 17 20 19 21
7 7 15 20 10 6 7 5 5 4 3 6 10 14 18 21 24 26 26 27 28 28 29 30 30 31 31 32 24 21 20 18 14 14 13 14 14 15 14 14 16 16 18 19
13 19 17 6 6 11 8 6 3 3 7 10 14 19 22 25 26 26 27 28 29 29 29 30 32 33 32 32 22 18 17 14 12 12 12 15 12 13 14 15 19 21 18 17
7 1 2 2 4 2 1 2 4 7 12 15 18 22 24 26 27 27 29 30 30 31 30 32 32 30 29 26 17 15 16 11 12 12 14 14 11 12 15 18 19 21 22 21
5 3 5 1 1 2 0 4 7 12 15 19 21 22 25 26 27 29 30 29 30 31 30 30 26 26 24 26 24 23 12 10 12 14 13 13 12 12 15 14 18 19 20 21
5 4 3 3 3 3 4 8 12 15 17 19 22 23 24 26 28 28 30 31 32 31 28 25 24 25 28 23 20 11 9 12 13 11 12 12 12 13 13 14 14 13 16 21
4 2 2 4 3 3 7 11 15 18 20 21 21 22 22 26 29 31 31 30 28 27 27 24 24 31 23 15 9 8 12 10 13 13 11 11 12 12 13 13 14 13 14 15
6 6 4 1 3 7 11 14 16 18 20 21 22 22 25 28 28 28 28 31 32 30 25 24 26 24 14 8 8 8 9 13 11 9 11 11 12 12 12 12 12 12 13 14
8 3 1 5 8 11 13 15 17 18 19 20 23 32 33 34 35 30 32 28 26 25 21 23 22 12 9 8 8 7 9 10 12 13 10 10 12 11 12 12 12 12 12 17
3 1 5 8 11 14 15 15 16 18 20 26 30 32 33 33 33 35 33 31 28 25 22 19 10 7 7 7 7 8 9 9 10 9 9 9 11 11 11 11 12 13 12 12
2 5 9 12 13 14 15 17 17 22 25 27 31 32 33 32 29 30 31 29 24 21 15 13 7 7 9 10 8 8 9 10 11 10 10 11 12 12 13 13 13 13 12 12
6 10 13 14 15 17 19 21 22 24 25 28 31 31 33 28 27 27 28 25 19 15 10 7 7 9 9 8 11 7 9 9 8 9 10 11 12 12 14 13 14 13 13 12
17 17 17 19 18 18 20 20 22 25 28 28 30 30 27 26 24 25 23 15 13 9 8 9 9 5 10 10 9 8 10 9 8 10 10 11 12 13 13 14 14 14 13 13
15 17 20 19 20 22 20 20 23 27 28 30 29 24 22 22 23 24 15 11 11 10 12 10 10 10 11 14 8 10 11 11 11 11 11 12 13 12 13 14 13 14 14 14
17 17 17 20 21 22 22 23 25 27 30 29 26 22 20 20 21 24 16 13 14 13 14 12 13 15 16 14 9 11 13 14 14 14 13 12 13 15 14 14 13 12 13 13
15 16 18 21 22 22 24 21 21 23 28 26 26 22 19 22 22 26 17 15 16 16 17 13 16 18 16 15 11 13 15 16 16 15 14 14 13 12 14 15 15 13 13 14
20 21 20 17 17 17 21 23 23 22 22 28 26 22 18 23 25 26 19 20 17 18 17 16 16 16 17 16 15 16 17 17 15 15 15 13 13 12 12 13 15 16 14 15
16 15 15 16 17 18 20 23 25 26 25 26 27 26 24 25 24 24 24 18 19 21 22 21 20 21 18 17 18 18 18 17 15 15 15 15 13 13 13 13 13 15 17 15
15 16 16 18 19 21 22 25 28 27 26 26 29 28 27 28 25 24 22 21 21 22 23 23 23 24 21 18 17 18 18 18 16 16 16 13 13 13 14 14 14 12 15 16

GFSNGP_850_spd_030.txt.gz
Wind_Speed
6 9 9 10 13 13 15 13 11 12 15 12 6 8 13 22 23 19 21 15 14 15 19 21 18 14 16 18 20 20 22 20 19 20 16 22 21 19 17 16 16 20 21 21
3 6 9 16 17 11 8 11 11 9 12 12 13 17 18 18 18 20 16 17 20 18 18 17 13 16 18 20 22 23 23 24 24 21 20 14 18 17 17 19 18 20 21 21
3 9 10 3 2 11 11 10 7 7 9 9 15 17 18 17 16 15 15 20 22 18 18 16 16 17 21 23 21 22 26 25 20 18 14 22 21 19 18 20 20 20 21 21
3 4 2 7 14 6 8 10 13 12 8 16 16 17 16 12 11 14 18 18 16 17 17 19 22 24 24 22 22 24 25 25 24 19 17 16 17 19 19 19 20 21 20 20
1 3 10 9 9 4 6 11 9 11 16 18 19 18 4 12 17 17 16 17 19 21 21 24 25 25 26 27 28 29 27 30 23 20 14 14 17 19 18 19 20 20 17 23
2 2 3 4 10 6 7 6 11 13 13 12 19 10 9 16 19 18 16 17 21 23 25 26 26 27 29 29 30 31 32 20 20 18 19 13 16 17 18 18 19 21 26 26
5 4 6 8 9 5 4 3 10 8 6 13 6 7 15 15 16 16 18 21 24 27 27 28 30 30 30 32 32 30 37 25 13 14 19 14 12 16 17 19 20 21 26 28
3 3 6 4 7 2 5 13 6 8 6 5 4 7 11 15 17 19 22 25 26 28 29 27 28 30 30 29 32 34 31 30 22 16 15 10 12 15 17 18 18 22 27 27
9 5 9 6 10 4 2 8 7 7 3 4 6 9 13 16 20 22 24 26 27 27 29 30 30 28 28 32 29 29 34 25 19 12 14 8 13 15 17 17 19 23 25 23
3 8 13 6 9 10 9 5 4 3 1 4 8 11 16 19 23 25 26 27 25 28 30 29 28 29 32 30 30 36 28 17 16 21 11 10 14 14 17 17 22 23 22 25
10 14 8 11 10 4 5 6 2 1 3 7 12 15 18 21 24 25 26 26 30 29 29 31 32 28 27 28 29 30 23 23 23 12 9 13 16 15 17 18 19 22 22 23
7 2 1 5 2 4 4 4 2 3 7 10 13 16 19 22 23 24 26 28 29 30 31 32 30 28 27 23 25 30 24 23 18 9 12 18 16 13 16 19 19 19 21 21
1 5 5 5 4 4 6 3 3 6 9 13 14 17 19 21 22 25 26 28 29 31 32 30 29 26 22 23 32 24 20 11 8 11 14 15 15 15 17 18 18 19 20 21
8 6 4 3 3 7 5 4 5 8 11 14 16 17 18 19 22 25 26 28 28 30 32 32 29 28 22 29 28 16 13 11 11 10 12 13 13 14 15 17 20 19 18 19
8 2 2 5 6 5 3 5 8 12 14 15 15 16 17 20 26 27 28 25 35 34 29 28 25 24 26 25 15 8 9 10 11 13 10 11 12 14 14 18 17 18 16 18
8 7 6 4 2 2 5 8 11 13 15 15 16 18 21 27 28 31 28 31 31 34 31 29 25 24 20 12 9 7 8 12 14 12 12 11 12 13 17 16 17 16 16 17
11 8 3 1 3 5 8 11 11 13 16 18 18 25 27 28 31 33 32 32 30 30 26 23 20 20 11 9 7 8 7 12 14 12 12 11 12 15 14 16 16 16 16 19
4 5 1 2 5 9 11 12 16 16 19 22 24 26 29 31 31 34 31 31 30 26 22 18 17 12 8 8 10 10 14 13 11 12 11 11 11 14 15 14 16 16 16 18
4 1 3 6 8 11 15 19 17 20 21 22 25 29 31 32 32 28 27 27 27 22 18 17 10 9 11 11 12 9 10 11 12 12 11 11 13 13 14 14 16 17 17 16
1 3 8 12 15 17 18 17 19 21 20 22 26 29 33 32 28 26 23 26 22 19 17 13 11 13 13 13 12 10 10 10 11 11 11 12 13 14 15 17 16 16 16 16
10 15 17 19 20 19 18 20 21 21 21 25 27 31 31 29 26 22 23 26 21 19 14 13 14 11 7 12 16 15 11 13 13 12 12 12 13 14 14 15 16 16 16 16
14 18 21 20 21 21 20 21 21 23 27 27 27 30 29 29 27 23 21 23 21 18 17 16 15 14 14 16 19 14 13 15 15 15 15 14 15 16 17 17 16 16 15 17
19 19 18 18 19 23 25 24 22 20 24 26 29 26 27 29 25 22 24 24 25 20 19 19 15 17 19 20 21 17 14 15 16 18 20 19 17 17 17 17 18 19 17 15
18 19 20 22 23 22 21 18 18 19 25 27 28 26 27 25 25 22 25 27 26 23 22 20 18 16 16 18 20 18 16 16 18 20 20 18 19 17 15 16 16 17 19 18
20 21 22 19 16 19 19 21 24 21 24 28 27 28 25 23 27 29 27 26 25 25 23 21 19 19 21 20 20 18 18 19 20 22 20 20 18 17 17 16 16 16 17 19
19 19 20 19 20 21 24 22 23 28 30 32 30 28 27 28 27 28 28 24 23 23 22 23 23 23 24 25 24 22 21 21 22 23 20 20 20 18 17 17 16 16 14 18
22 20 18 19 20 24 23 25 27 30 28 28 28 24 24 24 24 23 23 23 24 23 23 21 22 25 26 26 26 24 22 21 21 21 21 21 20 17 17 16 17 17 15 13

GFSNGP_850_spd_033.txt.gz
Wind_Speed
5 6 4 3 5 7 5 6 3 7 3 6 10 9 14 17 16 15 16 17 19 17 20 22 18 13 16 17 24 28 27 27 25 25 30 28 26 21 21 17 15 18 20 21
3 7 7 4 8 8 4 2 3 4 4 14 15 17 20 16 14 13 12 15 19 20 21 17 17 17 19 25 29 25 24 28 29 30 30 31 25 18 16 17 18 16 18 20
3 5 6 4 3 4 3 5 3 3 3 12 15 16 15 13 12 13 15 20 19 18 15 18 20 22 25 25 30 31 29 28 33 25 24 22 16 17 18 14 16 14 19 21
2 4 3 4 5 7 5 7 7 10 11 15 14 11 8 10 15 16 18 17 17 18 20 22 22 20 19 21 23 25 28 29 24 26 24 24 19 14 12 15 15 18 17 20
3 1 6 6 2 3 4 2 6 7 9 10 11 1 5 12 13 13 12 14 18 21 21 18 21 25 28 30 32 34 28 32 33 31 30 18 14 11 14 13 15 15 16 21
2 4 6 6 4 4 0 3 5 10 8 10 14 5 4 13 11 14 16 18 18 19 20 25 24 26 31 33 32 24 29 26 30 32 27 16 19 17 8 13 14 15 19 22
2 3 7 8 0 4 4 5 10 7 4 4 2 3 10 9 13 15 17 19 20 22 25 23 27 31 33 26 23 27 31 31 37 33 28 21 7 10 9 11 14 18 21 25
2 2 7 10 5 6 5 11 10 3 2 1 2 2 7 10 14 16 17 20 23 23 23 26 31 28 24 27 24 28 32 35 36 29 12 10 14 9 11 15 17 20 23 26
8 6 8 8 7 10 10 13 3 1 3 1 1 4 7 11 13 17 21 24 21 23 29 29 28 24 30 24 26 32 35 32 29 17 21 13 10 10 11 16 20 21 24 25
4 6 8 17 16 12 9 5 4 5 3 1 3 7 10 12 15 19 20 20 26 29 27 28 29 31 28 29 31 36 31 31 23 22 13 8 9 13 16 19 17 19 22 22
2 7 14 11 12 8 1 1 6 7 4 2 4 9 8 12 17 17 19 25 27 27 30 34 36 34 27 26 26 29 27 30 21 15 11 8 12 17 14 14 17 19 19 20
5 6 5 8 12 3 1 9 8 4 1 4 6 7 12 15 15 19 25 26 28 30 33 33 34 32 29 26 29 25 28 25 10 8 9 13 15 13 11 14 16 16 17 19
8 8 6 8 8 4 10 9 6 3 2 3 8 12 14 15 19 21 25 26 29 31 31 35 29 29 27 27 26 26 24 15 10 9 12 14 13 12 14 12 12 15 16 18
8 8 8 8 4 10 11 7 5 1 4 9 12 14 17 19 20 24 25 28 28 29 33 31 30 28 24 22 23 18 11 10 9 9 10 11 11 11 11 13 17 16 16 17
8 2 5 8 8 9 6 4 0 4 8 12 15 18 20 20 23 26 27 28 27 30 31 28 27 24 20 23 16 9 7 9 10 12 12 9 10 10 12 14 15 15 15 16
9 12 10 10 9 7 2 3 5 9 14 16 19 19 19 23 25 27 28 28 27 31 30 25 24 20 19 18 12 8 7 9 10 13 12 12 11 10 12 13 15 15 15 16
17 12 12 8 4 1 2 7 11 14 19 19 17 19 22 24 27 29 30 27 25 27 23 21 20 18 18 11 8 9 9 12 14 16 10 10 10 11 11 15 12 13 14 16
11 13 11 7 2 3 7 12 17 19 17 17 18 19 21 26 29 32 30 27 26 26 20 18 21 17 14 11 13 13 13 15 11 11 12 11 10 11 12 12 12 14 15 18
11 8 5 2 5 10 13 16 15 14 17 17 18 20 25 28 29 27 26 26 23 26 25 23 19 14 13 14 14 15 11 11 12 12 11 10 11 11 12 14 14 15 15 16
7 3 3 9 11 13 14 14 15 18 18 18 19 24 25 28 26 23 25 27 22 21 25 22 19 15 15 14 13 15 20 14 12 13 12 12 12 14 14 15 15 16 15 16
4 8 12 15 16 15 15 16 17 19 18 18 20 22 26 27 25 25 31 28 22 20 22 24 21 17 15 15 17 17 21 18 14 15 15 14 14 14 15 15 15 16 17 17
9 14 16 15 15 17 17 19 19 19 18 19 20 23 25 27 28 32 24 22 22 22 24 24 23 20 18 18 20 21 22 21 19 17 17 17 18 19 20 18 17 16 17 18
15 14 15 16 17 19 21 18 15 16 19 20 22 23 29 29 30 30 30 24 24 28 27 25 24 24 22 20 21 21 20 20 18 17 17 18 20 19 19 20 17 16 17 17
18 18 19 19 20 20 17 16 18 19 21 22 21 26 30 30 31 27 25 31 27 28 27 24 27 25 24 22 22 23 21 20 19 19 19 20 21 20 21 20 18 17 16 15
19 20 19 19 19 19 19 21 23 25 23 25 31 32 33 26 25 27 27 27 27 25 24 23 23 23 22 22 24 25 25 24 21 20 20 21 22 21 19 18 18 17 19 19
20 21 21 20 20 20 19 21 23 23 27 32 33 33 27 22 20 21 22 23 23 23 23 23 23 22 23 24 25 26 26 27 25 21 21 21 22 20 20 21 18 17 16 17
24 25 23 22 20 21 23 24 23 26 29 26 30 27 22 20 20 21 23 24 23 23 24 25 25 24 24 25 27 28 28 28 26 23 19 21 20 19 20 20 19 18 17 16

GFSNGP_850_spd_036.txt.gz
Wind_Speed
2 3 2 1 1 4 2 5 5 5 5 3 5 8 14 12 8 7 9 13 15 15 14 11 15 17 18 20 25 29 28 28 26 28 30 34 27 27 26 22 14 17 18 17
2 6 6 3 5 4 4 2 4 8 5 4 12 12 10 8 7 8 11 12 12 11 12 15 18 22 23 23 21 19 19 24 23 26 23 24 21 30 28 17 16 14 14 15
3 4 5 5 5 3 3 2 3 4 4 7 4 9 9 5 5 7 8 9 12 14 17 19 18 17 17 22 25 25 27 19 21 24 28 20 25 26 33 23 9 11 15 16
2 3 1 5 5 4 9 3 7 9 7 8 8 8 7 6 7 7 7 10 12 14 13 14 15 18 18 22 26 25 19 24 27 29 29 33 31 30 18 13 13 15 13 13
3 2 5 2 4 5 5 5 6 8 9 5 4 8 3 5 4 7 10 11 11 10 13 14 15 21 27 31 30 25 25 29 31 31 35 33 28 20 20 9 9 13 11 15
3 4 6 5 3 6 7 5 13 13 11 6 6 1 3 1 4 6 8 6 9 13 15 19 25 28 31 28 26 27 30 29 31 34 31 25 19 12 4 8 11 10 13 16
2 2 7 7 7 5 5 7 17 13 10 7 5 4 2 1 4 6 5 8 13 18 20 22 27 28 24 23 29 30 27 29 35 28 22 14 9 5 8 8 10 12 14 19
2 2 8 11 6 7 6 16 18 13 9 6 2 6 4 1 1 5 11 15 19 23 25 27 27 26 28 30 27 29 31 32 29 28 19 17 12 13 15 7 10 15 16 17
9 6 6 20 8 11 15 16 15 10 8 4 8 4 1 1 5 10 14 19 23 24 26 25 26 28 30 31 26 26 26 28 29 27 17 10 11 9 8 11 15 16 16 18
3 4 8 14 9 9 11 12 9 5 6 9 6 3 2 3 9 13 18 21 22 24 25 27 28 29 32 30 25 25 30 25 27 25 12 8 8 8 12 14 13 15 16 16
2 2 6 9 10 13 11 6 6 8 10 6 5 3 4 8 12 15 18 21 21 23 26 27 29 32 29 25 21 24 24 23 23 10 5 7 7 10 12 12 15 14 14 15
6 10 7 7 19 15 9 9 14 12 10 6 3 4 8 11 14 17 21 21 21 24 26 27 31 31 28 23 23 22 19 17 13 8 6 9 11 11 10 12 12 12 13 16
7 9 8 8 16 10 11 15 12 10 7 5 4 7 12 15 18 21 20 21 23 26 27 28 31 30 23 19 20 20 15 9 11 7 8 9 10 10 11 6 8 12 12 14
9 13 12 14 8 12 14 11 11 9 5 3 6 11 16 18 20 19 21 23 26 27 28 27 29 26 20 18 20 17 11 8 10 10 11 9 8 9 9 11 15 14 13 14
14 8 7 13 13 18 14 12 10 5 3 8 12 16 19 17 19 21 23 25 27 28 26 26 25 22 17 17 17 13 10 9 10 11 15 12 10 10 10 10 13 14 13 13
12 10 15 19 15 14 13 7 3 4 9 14 16 18 16 18 20 22 24 27 28 26 24 23 20 17 17 17 12 10 10 11 10 12 15 13 9 10 10 12 12 12 12 14
23 17 18 18 13 8 3 2 6 10 14 17 16 16 17 19 21 24 28 27 23 24 19 20 18 18 19 15 11 12 12 15 14 16 14 11 11 9 11 11 11 13 12 13
17 15 11 9 8 5 3 7 11 14 15 15 16 17 17 19 24 27 27 24 26 24 17 17 20 18 16 15 16 15 16 14 15 13 13 12 11 11 10 10 13 15 13 12
13 12 11 5 0 5 9 11 12 12 13 14 16 16 17 20 22 24 23 23 28 27 20 15 19 22 17 15 16 16 15 15 15 14 12 11 12 12 13 14 13 12 13 13
11 6 2 5 9 11 11 11 12 13 13 14 15 17 17 18 18 23 24 26 29 20 19 18 20 23 20 17 17 16 16 17 17 17 16 16 15 15 14 14 14 15 14 13
2 4 9 13 13 12 12 12 14 15 14 13 15 17 18 20 20 26 28 33 26 21 20 20 21 22 21 21 19 20 19 19 20 22 20 18 19 18 18 18 18 17 15 15
8 13 13 12 13 14 14 15 17 15 13 15 16 20 22 24 28 35 29 26 26 23 27 27 24 23 22 22 24 23 23 24 22 23 22 20 20 21 22 22 21 19 18 17
12 12 14 15 16 18 18 17 12 13 15 16 19 23 25 27 33 36 38 28 23 26 27 28 29 25 22 22 24 26 26 25 23 23 22 21 21 21 23 23 22 21 20 17
13 14 16 16 16 16 17 16 14 16 18 21 22 24 28 32 35 33 23 22 23 23 23 23 23 23 23 23 23 24 26 26 26 25 25 22 21 22 23 23 23 24 20 20
16 17 18 19 20 20 19 17 18 20 24 25 25 28 30 26 32 27 19 20 21 23 24 23 22 22 22 23 22 24 25 26 27 28 28 27 23 22 22 21 20 19 18 18
17 18 20 21 22 22 21 20 23 23 25 27 29 29 26 27 20 18 19 20 24 23 22 23 22 21 23 25 25 26 26 26 27 27 27 27 25 20 19 19 18 19 17 17
18 20 22 23 22 23 24 26 27 28 26 28 28 25 23 21 19 16 20 25 23 24 24 23 24 25 25 25 24 25 26 28 27 27 26 26 23 18 17 17 18 17 17 17

GFSNGP_850_spd_039.txt.gz
Wind_Speed
4 4 2 1 4 5 6 5 6 5 8 5 9 9 14 12 9 5 2 4 3 4 5 5 8 10 12 14 14 16 23 27 30 27 27 24 28 23 23 28 30 31 22 19
1 5 6 3 5 7 5 4 5 3 3 5 13 13 13 11 6 1 2 2 4 4 6 9 10 10 13 17 22 26 30 29 24 23 27 31 28 25 28 29 30 28 18 10
3 4 4 6 8 8 4 2 6 6 7 12 6 12 12 8 2 3 1 2 1 5 7 7 11 15 18 21 25 27 22 19 22 26 27 30 33 27 25 26 23 12 15 14
2 3 1 6 5 5 5 2 3 3 8 12 13 10 10 5 3 3 3 2 4 4 6 10 13 16 21 24 24 20 19 25 27 27 31 35 28 23 18 17 14 11 10 11
3 3 5 4 4 6 6 7 6 7 8 10 9 9 10 9 7 5 3 2 0 5 10 13 16 20 22 22 17 23 26 29 28 27 33 28 25 16 12 13 10 11 8 10
3 4 6 5 2 9 5 5 16 16 16 14 15 3 5 14 9 6 4 4 5 9 12 16 19 21 23 24 25 28 27 26 26 28 27 26 21 15 11 11 11 9 11 14
2 3 8 6 5 7 5 7 22 26 26 21 7 10 4 12 8 6 5 4 7 12 17 20 21 23 26 27 28 28 24 26 23 27 28 25 21 17 12 10 11 7 11 17
3 2 7 10 5 7 6 6 19 24 21 19 13 8 11 9 8 6 5 8 13 18 20 21 23 26 26 28 30 28 22 22 25 30 25 25 18 12 13 9 5 10 15 16
9 6 4 17 7 16 8 8 19 19 17 13 10 12 11 9 7 6 9 11 16 20 22 21 23 24 26 29 28 24 19 23 24 23 24 22 13 12 9 7 10 13 14 15
3 4 11 12 21 11 10 8 14 14 13 10 11 12 10 8 7 7 10 15 19 21 21 21 22 23 27 27 26 22 23 24 26 23 19 12 9 7 7 9 11 13 13 12
4 5 4 11 17 15 12 12 14 12 11 13 15 11 9 7 7 9 13 17 20 21 21 23 24 26 27 28 24 22 21 19 17 17 10 9 8 7 9 10 12 12 12 13
6 10 8 6 15 17 17 15 12 15 15 12 11 9 6 5 9 13 16 18 19 21 23 24 26 28 29 24 19 19 21 17 12 13 10 9 12 11 10 10 11 10 13 13
6 6 14 10 10 18 14 12 15 15 13 12 10 5 5 7 12 15 16 18 20 23 25 26 28 28 26 20 17 17 17 11 11 13 13 14 14 10 10 7 8 10 12 12
13 9 6 14 10 16 12 17 14 12 12 8 5 3 7 12 15 15 18 20 23 26 28 27 25 24 22 17 15 16 14 12 12 14 14 13 13 10 11 11 11 13 11 10
12 8 4 10 10 15 16 14 16 11 8 5 4 9 13 15 15 17 19 22 26 28 26 24 22 20 19 16 17 12 13 12 14 14 12 17 18 12 12 10 12 12 10 10
9 4 9 13 17 13 14 10 6 5 3 5 10 13 14 15 16 18 20 24 27 26 25 23 22 19 18 19 18 13 12 13 11 12 15 18 15 12 13 11 12 12 11 12
16 14 18 21 18 12 7 5 4 4 8 12 14 14 16 17 17 18 22 24 22 23 25 25 19 17 19 18 17 14 14 15 16 16 15 14 14 14 12 12 12 12 11 11
17 19 15 10 10 7 5 4 8 11 12 12 14 16 16 16 17 18 21 22 24 26 25 21 17 17 20 20 18 17 17 14 12 12 13 14 16 13 13 14 14 15 14 13
12 13 12 10 5 2 6 9 10 10 11 13 14 14 14 16 16 20 21 24 30 31 27 22 20 17 19 20 18 19 19 19 18 16 14 15 15 14 16 17 17 16 15 13
15 11 6 2 6 8 8 9 10 10 11 13 14 14 14 16 19 22 23 27 30 27 25 22 19 22 21 21 21 21 21 20 19 18 18 19 21 20 19 17 18 18 19 18
7 4 7 9 9 9 10 11 13 14 14 13 13 15 18 20 22 24 28 34 35 26 24 22 24 23 20 22 21 21 26 23 23 24 24 23 23 22 22 21 21 22 22 23
7 8 9 9 11 13 13 15 16 17 15 14 15 19 22 24 24 27 30 32 33 25 23 24 24 24 24 23 22 23 22 24 27 27 27 26 25 26 23 22 23 22 22 21
9 10 11 13 15 17 18 17 17 18 18 18 20 21 23 25 26 31 35 32 27 23 22 23 23 23 23 23 22 22 24 25 25 28 28 27 26 27 26 23 23 23 23 22
9 10 12 14 15 17 20 20 20 19 21 22 22 25 25 26 30 29 28 28 21 22 24 26 25 22 22 23 22 23 25 25 25 26 27 28 28 29 30 27 21 20 21 19
9 11 13 15 18 20 22 23 24 24 25 27 29 27 26 28 29 29 26 22 23 23 28 28 26 26 24 23 23 23 25 26 27 27 27 27 26 26 26 26 22 20 20 18
13 16 19 20 22 24 25 26 28 29 29 31 30 27 27 24 25 25 23 24 22 24 28 27 26 24 24 24 24 25 26 25 24 27 27 28 27 25 25 21 18 17 18 17
19 23 27 29 28 28 30 32 33 35 31 28 32 31 28 26 25 25 25 20 22 26 25 24 22 21 21 22 23 23 23 23 21 21 24 26 26 23 22 16 14 15 16 16

GFSNGP_850_spd_042.txt.gz
Wind_Speed
2 3 2 2 4 6 6 5 5 4 7 6 9 8 18 18 14 9 4 0 1 1 2 4 6 7 7 10 13 18 23 25 23 20 19 25 28 31 30 25 25 27 29 29
2 4 6 3 5 7 5 3 7 3 7 5 8 17 16 16 12 7 3 3 4 3 3 5 4 6 10 14 19 22 24 22 18 22 26 25 28 31 26 21 21 20 16 15
4 4 4 6 9 9 5 5 7 6 8 9 4 14 20 16 11 7 5 7 6 5 4 3 7 9 14 18 21 23 22 20 23 25 24 25 31 26 26 19 13 15 11 10
2 3 2 5 2 6 7 5 6 2 4 13 12 17 16 14 11 8 8 7 5 5 4 5 8 13 18 20 21 22 23 23 23 24 25 27 27 25 23 15 14 13 11 12
4 3 6 5 4 6 7 7 8 7 6 9 12 10 11 16 11 8 8 7 6 5 6 8 13 18 19 21 22 23 23 23 23 25 27 27 27 23 18 20 15 12 13 10
3 4 6 6 2 6 4 5 9 14 14 15 14 3 6 13 16 13 9 8 6 5 8 12 16 18 20 21 23 25 27 27 25 24 24 28 26 24 22 18 16 13 10 10
2 3 8 6 4 4 5 6 11 20 24 24 8 12 5 11 16 11 10 8 6 8 11 15 18 19 21 22 24 27 28 27 22 22 27 26 24 21 16 13 13 12 8 13
3 2 7 9 4 7 5 6 13 21 23 31 19 9 8 12 12 11 9 7 7 10 14 18 19 20 22 24 26 28 28 26 22 23 24 24 26 17 16 15 10 8 12 15
8 6 4 17 5 13 4 5 11 19 20 22 19 15 15 13 13 12 8 6 9 14 18 18 20 22 25 26 28 30 28 25 23 21 19 19 16 13 10 10 9 11 13 14
2 4 11 15 22 21 11 12 10 13 17 20 18 13 13 12 12 8 5 8 14 17 19 20 21 23 26 28 28 28 25 23 23 17 15 15 11 11 10 10 10 12 13 13
5 10 10 18 18 21 19 14 11 14 14 13 13 12 10 12 7 5 8 12 16 18 19 21 23 25 27 28 27 23 20 20 19 16 12 13 10 10 13 12 14 14 13 13
6 9 6 8 9 11 14 13 13 14 13 13 6 11 8 6 4 7 12 15 17 17 20 22 25 27 27 25 22 19 18 20 18 10 14 13 15 18 19 12 11 12 13 14
6 6 9 10 9 9 11 12 12 13 13 8 12 6 7 3 7 11 13 14 17 19 22 25 28 27 23 20 18 16 16 17 15 14 14 16 18 18 16 11 13 14 13 13
10 8 6 7 3 8 9 10 13 12 14 7 4 5 4 7 10 11 13 15 18 21 24 27 26 25 18 18 18 17 16 14 15 15 17 19 19 18 19 18 17 13 11 13
4 2 3 5 10 11 13 16 18 13 6 3 6 5 8 11 10 13 14 17 20 23 25 25 25 25 19 17 17 19 19 15 14 17 16 15 18 20 21 16 16 15 14 13
2 3 7 12 15 18 19 16 11 6 4 7 7 10 11 11 13 14 15 18 22 24 27 25 25 26 19 18 19 20 17 16 16 17 17 17 18 18 16 17 16 15 16 15
10 15 18 22 21 15 12 9 2 3 5 8 10 10 12 14 14 15 17 19 23 23 26 28 29 26 20 19 21 22 22 21 16 18 17 18 18 18 18 18 16 17 17 14
10 18 14 15 14 10 5 1 4 7 9 9 12 13 15 16 16 17 18 20 22 24 25 27 27 25 23 21 22 23 22 22 22 21 20 19 17 15 16 17 19 19 18 16
19 19 16 12 9 4 5 7 8 9 11 13 16 17 17 16 16 18 19 22 24 28 32 32 28 26 23 21 23 24 27 25 23 22 23 21 22 21 20 21 20 19 20 19
16 12 8 4 4 5 6 8 10 12 13 16 18 19 18 16 18 20 22 26 26 29 33 31 27 25 23 26 21 23 25 25 27 28 24 22 22 23 22 22 23 23 21 21
8 5 3 4 5 6 8 10 13 15 15 18 20 20 21 21 21 22 25 28 30 30 32 28 25 24 21 20 20 21 24 23 24 26 26 30 29 27 27 26 26 24 25 24
5 5 5 6 8 9 10 13 15 18 20 22 22 23 25 27 25 27 27 28 32 31 30 25 24 24 24 24 23 23 23 24 24 24 25 26 27 29 31 29 28 26 24 24
5 6 6 8 10 13 14 16 18 20 23 24 26 27 28 29 30 30 32 30 28 28 28 25 24 28 26 24 22 22 21 23 24 25 26 26 25 25 26 26 28 28 27 23
5 6 8 10 13 16 21 23 25 25 26 28 29 28 28 32 35 32 29 27 28 27 26 24 25 28 26 25 24 23 22 23 24 26 26 25 25 25 26 25 24 24 24 24
6 8 11 15 20 22 25 29 32 32 33 33 34 33 31 29 34 31 29 26 27 25 24 23 27 27 24 23 22 22 22 22 23 23 23 25 26 25 25 25 24 23 18 19
11 14 17 19 21 23 26 29 32 33 33 35 37 35 31 29 32 33 29 28 27 24 22 23 26 24 21 20 20 20 20 21 21 21 21 22 22 23 25 28 23 17 14 15
15 19 21 24 26 28 29 30 32 34 32 31 34 35 34 34 29 27 27 26 21 20 20 22 22 20 18 17 17 18 18 18 19 20 19 18 17 18 19 17 15 13 11 11

GFSNGP_850_spd_045.txt.gz
Wind_Speed
2 2 1 2 4 9 8 4 6 4 9 5 11 13 17 17 18 18 16 12 8 7 6 4 2 3 3 7 12 16 18 18 16 14 18 20 23 26 26 24 25 25 22 19
3 2 3 3 4 7 6 4 10 4 12 7 2 11 17 20 19 17 14 10 9 9 6 4 4 3 7 11 15 18 17 16 16 19 21 23 25 26 24 24 23 16 16 14
3 2 3 5 9 12 6 6 7 10 8 8 6 14 21 22 21 19 14 12 11 7 5 5 3 6 11 15 17 17 17 18 19 20 22 23 23 24 23 21 19 18 14 11
2 1 1 4 2 1 10 6 12 2 4 9 5 11 17 23 23 18 13 13 11 9 8 5 5 9 13 16 18 18 19 20 22 22 22 22 21 24 23 22 20 20 14 11
3 3 5 5 3 5 6 5 12 11 5 6 8 9 9 21 19 16 13 12 10 8 6 5 6 11 15 17 18 19 21 22 23 22 22 22 25 26 23 23 21 17 14 11
3 2 5 5 2 4 3 4 3 10 11 13 14 5 6 24 22 17 13 10 10 8 5 5 10 14 17 17 19 20 22 24 25 24 22 22 26 25 24 23 16 11 11 11
2 3 7 6 2 4 3 4 6 16 18 19 8 8 4 14 21 15 11 11 10 6 5 9 13 16 17 18 19 22 24 26 26 24 24 25 24 24 24 16 15 13 9 10
3 1 6 7 4 5 3 3 7 16 18 24 19 12 10 14 17 15 13 9 6 5 8 12 14 16 18 19 22 24 26 26 25 25 25 19 17 19 13 11 11 11 11 14
8 5 4 13 7 10 3 4 4 10 14 20 18 15 15 16 16 12 9 9 5 8 11 13 15 17 19 21 24 26 27 26 22 23 20 16 16 13 11 11 10 11 13 15
1 2 9 19 20 24 20 12 10 10 11 15 20 14 16 18 11 10 10 5 8 11 13 14 16 18 21 23 26 28 25 20 19 20 18 13 14 11 11 12 14 15 15 16
4 10 12 15 14 15 16 15 14 10 9 11 16 15 18 10 11 10 4 8 11 13 14 16 18 20 23 26 26 23 22 20 18 18 14 13 13 12 16 19 20 17 16 14
5 3 4 6 7 7 7 7 5 8 12 13 15 14 13 11 7 4 9 10 12 14 16 17 20 24 25 23 20 20 20 19 18 18 15 14 14 16 16 17 14 13 12 14
4 9 8 9 8 6 1 6 10 11 16 15 16 13 9 6 6 9 10 12 13 15 16 19 22 24 25 21 19 20 20 19 19 17 16 16 18 20 18 18 16 17 15 15
5 5 3 4 2 3 5 11 17 18 20 15 11 11 4 7 8 10 12 13 13 15 17 19 22 22 22 23 20 19 18 20 20 19 17 18 21 19 19 19 18 16 13 15
5 4 2 6 9 13 16 22 23 17 11 12 7 2 7 9 10 11 12 13 14 15 16 19 22 24 24 23 22 19 19 20 20 20 19 19 17 19 21 21 17 16 16 15
6 10 13 15 20 22 20 14 14 12 9 3 4 7 10 10 11 12 13 13 15 16 18 20 23 25 26 23 20 20 21 21 21 22 22 22 21 22 22 21 18 17 16 17
14 15 18 25 18 15 16 11 7 4 3 5 8 10 10 12 13 14 14 14 18 20 21 22 25 28 27 24 22 21 22 22 23 23 21 22 23 23 21 21 20 19 19 18
11 18 18 18 17 13 8 4 1 3 5 7 9 11 13 16 17 17 16 18 19 22 20 21 27 29 29 25 22 24 25 26 26 27 27 23 23 25 25 23 22 22 21 18
22 21 17 13 8 4 2 3 4 6 8 11 14 16 19 20 20 20 20 21 21 24 24 25 29 29 28 25 23 24 27 26 26 27 26 25 28 24 22 24 24 23 23 23
16 13 9 5 3 3 4 5 7 9 11 14 16 19 22 21 20 22 24 27 24 26 26 28 30 30 28 25 21 21 21 22 24 25 23 22 25 25 29 31 27 27 27 27
8 5 4 4 4 4 6 7 8 10 13 15 19 22 25 27 26 27 30 31 30 28 27 30 29 28 25 22 23 22 23 23 24 23 23 24 23 23 24 25 25 28 30 29
6 4 4 4 5 5 6 9 12 15 19 22 23 25 28 31 31 31 31 33 33 33 30 30 27 26 22 23 25 24 21 20 22 22 23 24 25 25 24 23 23 23 24 25
4 3 3 4 7 9 11 14 19 23 26 27 28 29 30 33 34 34 36 36 34 35 32 26 23 24 21 23 25 24 23 23 23 22 22 23 24 24 24 23 22 23 24 23
2 2 4 7 11 16 20 24 26 28 29 30 30 30 30 32 36 32 29 26 25 27 26 23 23 21 20 24 23 21 21 21 21 21 21 22 23 21 23 24 23 21 22 23
3 7 10 14 18 20 23 26 29 31 33 34 34 34 32 29 27 33 30 29 32 30 27 26 22 19 20 20 18 17 17 17 18 18 18 18 18 19 20 20 21 22 21 20
8 11 14 16 18 21 24 27 30 31 33 36 36 35 34 33 31 29 29 29 30 25 24 23 17 16 17 16 14 14 15 14 14 15 16 16 16 16 16 15 16 17 16 16
9 12 15 18 21 24 26 27 30 31 32 33 37 36 35 33 30 28 28 27 25 18 16 14 13 13 13 13 13 13 14 15 15 15 16 16 16 16 15 14 13 11 9 6

GFSNGP_850_spd_051.txt.gz
Wind_Speed
15 5 7 8 8 11 16 17 15 13 16 8 4 10 11 11 14 17 19 21 20 19 18 17 17 15 12 8 6 6 6 8 10 10 11 13 14 15 16 17 17 19 19 18
5 7 8 11 12 13 14 17 18 19 17 16 10 5 9 11 15 18 19 20 20 18 18 17 16 14 10 8 6 5 7 9 9 11 13 14 16 17 18 17 18 19 19 20
6 3 5 6 15 17 17 17 14 16 15 11 2 6 12 11 14 17 18 19 18 18 17 16 14 12 9 7 5 5 8 9 10 12 14 15 17 17 17 18 19 20 21 20
1 1 1 3 1 5 7 13 15 14 13 11 9 5 6 9 12 14 16 17 17 16 15 13 12 10 8 5 4 7 9 10 11 13 15 17 17 17 17 18 19 20 20 18
3 6 8 11 7 2 3 7 6 8 9 3 1 3 9 8 9 12 14 15 14 14 13 12 11 8 5 5 7 8 10 11 13 14 16 17 17 17 18 18 18 20 17 16
3 3 4 3 4 1 1 6 7 4 1 4 6 4 6 7 8 10 12 13 14 13 14 12 9 4 4 7 8 10 11 12 14 15 17 17 17 18 16 16 17 16 17 11
5 3 6 1 4 2 4 3 5 5 2 5 6 6 4 5 9 11 12 12 14 14 12 9 4 3 7 10 10 11 12 13 15 16 17 17 17 17 15 15 17 23 17 17
3 2 6 7 7 2 4 3 5 3 3 4 2 3 2 7 9 11 14 15 13 12 8 5 0 6 8 10 11 12 14 15 16 16 16 16 17 17 15 16 18 19 15 16
7 3 4 8 3 2 3 4 4 5 4 4 6 3 5 9 12 13 13 13 10 8 3 0 4 5 9 10 12 13 15 15 16 16 17 15 17 18 17 17 15 16 15 14
1 3 5 4 4 4 5 7 7 6 7 8 9 7 7 10 11 13 11 10 7 4 1 4 6 10 10 11 13 14 15 16 16 18 19 17 14 15 16 16 14 15 15 16
5 10 5 4 4 5 5 3 3 3 4 4 4 8 11 12 12 12 9 8 3 2 6 8 9 10 10 12 13 13 14 16 17 17 19 21 19 16 17 16 17 17 17 17
3 5 4 6 5 6 3 3 3 4 7 9 12 14 15 14 13 12 9 2 2 8 12 10 10 11 11 11 12 14 15 15 16 19 22 22 21 20 19 21 21 23 23 23
2 2 3 4 6 6 6 8 10 11 12 16 16 17 16 14 8 6 2 7 8 9 11 12 12 12 11 12 14 15 17 18 18 19 20 23 23 21 23 21 22 23 23 21
2 2 4 5 7 10 13 15 15 15 15 15 15 13 9 4 2 5 6 8 10 11 13 13 14 15 14 14 16 18 20 22 24 24 24 22 23 24 25 26 27 23 20 21
7 9 13 13 13 14 13 13 17 19 17 12 8 4 1 2 5 7 8 10 12 13 15 16 17 18 16 20 21 19 21 22 25 27 28 29 26 25 24 25 25 25 23 21
9 11 12 14 14 14 13 14 14 11 7 5 3 3 4 6 7 9 11 13 16 17 18 21 26 27 26 22 22 23 22 23 25 28 31 29 27 26 26 25 25 25 24 23
12 13 14 16 14 12 12 8 7 6 5 5 4 5 7 9 12 12 14 17 22 25 27 29 32 30 30 29 25 24 23 23 25 24 25 28 29 30 29 29 29 29 28 25
11 14 13 15 14 10 9 8 7 6 5 4 5 7 10 14 17 21 24 27 29 31 30 31 31 30 31 29 27 28 29 30 28 25 24 26 26 26 26 27 28 29 29 27
19 18 14 12 10 10 9 6 5 4 4 6 9 12 16 19 22 25 27 29 31 31 28 25 27 31 32 34 34 35 31 26 25 22 22 23 23 24 25 26 26 25 25 26
16 14 13 11 9 7 6 5 4 4 7 10 14 18 20 23 25 27 29 29 22 22 28 28 31 31 31 31 32 34 27 23 21 20 22 23 23 24 25 25 24 24 24 23
14 11 10 8 7 6 4 3 4 7 11 14 18 21 23 26 26 28 26 26 24 24 29 31 29 30 28 29 31 27 23 22 20 21 21 23 23 24 24 22 21 22 24 25
11 9 8 7 5 3 1 5 9 12 14 17 20 22 26 25 26 23 21 23 27 32 33 33 32 32 31 33 29 30 26 19 20 19 18 16 18 18 18 19 21 23 22 21
9 8 6 4 2 1 6 8 11 15 18 20 22 25 26 24 22 26 31 26 31 29 32 34 34 33 32 30 27 20 19 19 16 15 14 13 14 15 16 16 17 17 19 20
8 7 4 2 2 4 4 9 13 13 17 18 19 22 24 25 24 21 23 28 28 29 28 28 31 29 24 15 12 12 13 12 13 10 11 12 12 13 14 15 15 15 15 15
6 3 1 0 2 4 8 12 12 12 16 18 18 18 20 18 20 24 23 23 24 25 22 24 26 22 20 17 14 10 8 11 11 10 12 12 14 14 15 16 16 17 16 15
5 3 0 3 4 7 10 13 14 13 16 15 16 16 16 17 17 18 18 19 19 20 20 22 23 22 19 17 16 15 13 15 15 15 15 15 16 16 17 19 19 19 19 18
2 1 1 3 8 10 13 14 13 13 12 15 15 14 15 15 16 16 16 17 18 19 19 20 21 21 20 19 18 17 17 16 18 17 16 17 17 18 18 19 20 20 20 20

GFSNGP_850_spd_054.txt.gz
Wind_Speed
15 15 7 10 12 7 10 10 10 11 15 12 4 12 14 11 10 10 11 12 13 15 15 16 18 15 15 11 9 8 8 7 7 9 10 10 13 15 18 19 20 18 19 22
9 10 12 11 15 14 14 15 14 14 14 12 11 12 4 3 9 11 14 14 16 16 16 17 16 16 13 12 9 9 5 5 7 10 12 13 15 16 17 18 19 20 21 25
3 6 7 5 10 16 16 15 11 12 11 8 3 2 4 6 10 6 9 14 15 15 15 16 14 16 13 11 11 5 5 5 7 11 13 14 15 16 17 19 19 19 24 26
1 1 1 10 0 4 4 8 9 11 9 8 8 8 5 4 2 6 5 8 11 12 12 13 14 13 14 10 5 3 4 8 9 11 15 16 16 17 17 18 19 21 24 26
3 4 9 13 3 1 0 3 10 8 9 11 11 7 7 5 1 3 6 7 10 12 13 13 12 11 8 6 4 3 6 12 11 14 17 16 17 17 21 24 22 20 23 20
3 3 5 0 5 2 1 2 7 6 6 6 3 1 4 6 5 3 6 9 11 12 12 14 12 9 6 3 5 8 9 15 16 15 16 17 18 19 20 24 14 20 22 22
4 2 6 6 8 1 2 3 6 7 8 5 2 6 4 4 5 6 8 10 12 14 15 12 9 5 1 6 7 8 13 18 16 14 16 17 18 19 18 19 20 25 26 25
3 2 6 6 5 1 4 5 5 6 6 7 9 6 5 6 8 10 12 15 15 16 13 10 6 4 4 5 10 17 19 17 16 14 18 17 19 19 18 20 22 25 26 21
7 4 5 8 9 6 4 4 4 3 6 3 4 2 4 7 11 14 15 13 12 11 9 5 3 3 7 11 13 14 16 14 14 15 19 24 22 19 18 21 25 25 18 19
3 4 7 7 6 6 7 6 5 4 4 5 6 5 9 13 13 13 12 12 10 6 3 3 4 9 12 12 12 13 15 14 16 17 20 24 27 23 16 17 19 22 21 19
5 7 2 14 11 7 5 5 4 6 6 5 1 10 15 15 13 13 10 5 5 3 2 5 11 13 12 11 14 13 14 15 17 20 18 24 26 23 23 21 21 24 23 22
1 7 7 11 7 5 6 7 8 9 13 16 16 18 17 14 8 5 5 4 2 3 10 11 10 11 13 13 12 15 18 21 20 22 23 25 22 26 28 25 23 22 24 27
6 8 12 12 11 11 13 13 14 15 15 17 14 12 13 14 9 5 1 3 7 9 10 12 14 15 14 15 19 21 22 24 26 24 26 28 25 27 30 30 26 26 25 26
6 11 9 6 14 14 16 16 16 16 15 17 18 15 12 7 4 2 4 6 8 11 13 14 15 17 18 19 20 22 26 30 25 25 28 30 30 29 29 30 30 27 26 26
10 10 20 19 17 15 14 14 16 17 15 13 10 8 6 5 4 5 6 8 11 13 15 16 19 22 24 26 30 34 32 28 28 28 29 30 32 32 29 28 29 30 28 26
13 15 16 17 16 15 15 14 13 12 11 10 8 6 5 3 5 8 8 11 17 21 23 26 28 29 30 29 31 32 33 33 33 30 31 34 33 29 28 30 31 33 31 30
15 15 16 17 16 15 13 13 13 12 9 6 6 6 6 7 9 12 16 19 23 26 28 29 28 25 25 27 28 32 35 36 36 35 34 35 26 27 29 28 29 30 30 28
13 16 16 18 18 15 14 13 10 8 8 6 5 5 8 12 16 19 22 26 27 28 24 18 22 29 32 34 35 35 36 38 38 38 32 29 27 22 22 22 23 25 26 26
19 21 18 16 15 15 13 11 9 7 6 4 6 10 14 16 19 22 24 26 25 25 22 28 33 33 32 28 30 31 34 33 33 35 26 26 23 23 25 25 26 27 26 24
20 18 18 17 14 11 12 10 7 4 4 7 10 13 17 20 22 23 24 22 18 21 27 31 36 34 29 31 30 33 35 35 32 33 26 22 20 20 20 20 19 20 20 20
18 17 16 14 13 11 9 7 3 3 7 11 14 17 19 21 22 22 21 20 18 26 33 32 29 29 34 37 36 33 33 30 25 20 14 17 22 20 21 23 24 23 19 17
16 15 14 12 9 8 5 2 4 6 9 12 15 18 21 21 20 19 16 17 27 26 28 28 31 34 35 31 25 23 21 16 12 14 16 15 18 19 17 16 16 16 16 17
15 13 12 10 6 4 1 3 7 10 13 15 18 19 20 19 18 20 21 23 23 25 28 25 30 29 27 24 22 22 19 15 14 14 12 12 10 12 12 13 15 15 16 15
13 11 9 6 4 3 1 6 7 9 13 13 14 17 19 18 18 16 18 19 21 23 20 23 25 25 24 23 22 20 17 19 18 15 13 11 12 13 12 14 16 16 16 15
11 9 7 5 3 2 3 7 6 8 11 10 13 14 15 14 17 18 18 17 19 19 19 21 25 25 24 22 21 20 18 20 22 20 17 16 16 16 17 17 18 18 18 18
9 6 4 4 1 2 5 8 8 9 11 12 13 14 15 16 16 17 18 18 18 19 20 21 23 25 25 23 21 20 19 19 20 20 19 18 18 18 19 19 18 18 18 19
7 6 4 1 4 6 9 10 10 11 11 15 16 11 14 16 17 17 17 19 20 20 21 20 20 21 24 22 21 20 20 20 19 20 19 19 18 19 19 19 19 19 19 19

GFSNGP_850_spd_057.txt.gz
Wind_Speed
4 6 4 5 0 5 4 6 6 8 7 10 5 11 18 15 11 18 29 29 29 31 27 22 19 17 19 20 16 12 9 10 11 10 14 15 16 18 18 19 20 21 19 20
1 5 8 4 5 6 6 6 4 3 5 4 9 17 15 9 10 11 22 24 23 21 21 20 19 21 19 15 10 13 15 10 10 13 14 14 15 17 21 20 19 20 22 25
2 4 6 6 6 6 6 5 4 4 7 5 5 9 10 9 6 7 19 19 17 18 19 18 20 20 15 15 16 17 13 9 8 10 14 18 21 22 20 18 19 19 18 22
3 3 1 8 5 5 4 1 5 6 6 10 10 14 13 12 9 10 12 14 14 17 18 20 19 19 20 17 15 9 5 3 8 11 15 20 21 20 18 21 23 24 26 25
4 4 5 9 1 2 3 3 5 7 7 14 12 24 23 17 14 13 13 13 14 16 20 22 22 20 19 13 8 8 4 5 10 11 20 21 20 20 22 25 24 23 20 21
3 4 6 6 3 5 4 1 7 13 6 8 9 5 3 12 14 14 12 14 20 21 21 21 20 18 18 14 7 2 7 12 11 19 20 18 19 21 23 24 25 23 23 23
2 2 7 7 7 3 6 6 9 13 15 12 5 6 10 11 15 14 18 20 21 21 21 20 19 17 12 7 2 10 8 18 20 18 19 19 21 21 23 21 20 25 28 28
3 2 6 10 5 6 5 10 11 16 15 16 12 11 16 16 18 20 23 22 21 21 18 14 11 6 1 10 5 9 17 16 17 17 15 20 24 25 21 22 24 23 27 30
7 6 7 12 19 14 12 15 12 10 7 9 10 15 15 19 19 18 17 17 16 14 12 6 2 7 7 4 12 13 14 17 17 17 17 21 25 27 28 30 22 26 25 25
4 3 7 24 21 16 13 14 8 6 3 1 5 17 22 22 19 17 14 12 8 5 1 5 5 4 10 12 14 14 17 17 16 18 20 23 26 28 30 33 25 21 25 27
2 10 21 16 16 13 13 14 10 7 6 7 18 25 24 21 17 12 8 5 1 2 2 3 8 11 12 13 14 18 18 18 21 24 24 25 26 28 30 28 23 24 26 24
4 8 12 11 11 16 18 18 13 12 17 20 20 22 18 17 12 9 8 7 7 6 7 8 10 11 12 16 19 20 23 26 29 28 29 29 28 29 28 30 27 25 24 23
9 17 25 24 21 17 19 16 13 13 15 17 16 14 13 15 13 11 9 8 6 6 6 9 14 15 16 18 20 25 30 31 31 30 30 34 29 30 33 32 32 29 26 22
21 25 21 14 18 16 15 16 14 17 18 19 20 18 16 14 12 10 8 4 2 7 10 10 13 15 17 21 24 27 29 33 36 40 40 36 34 33 34 36 37 34 27 24
14 9 26 26 20 17 16 18 22 23 22 18 17 16 14 12 9 5 1 5 7 10 13 16 19 20 22 23 25 27 29 31 32 34 38 40 39 36 37 36 30 30 28 30
26 28 24 20 19 19 20 21 24 19 19 14 11 9 7 5 4 3 4 9 14 17 19 19 18 19 21 25 29 33 35 36 37 38 39 40 40 39 33 29 24 25 27 30
31 24 22 22 22 20 16 18 22 17 13 11 10 8 6 5 4 6 11 14 16 15 14 16 19 23 29 32 32 31 30 32 33 35 38 34 33 37 30 22 19 19 19 20
16 17 17 25 27 26 22 19 16 14 13 11 8 5 4 6 10 13 15 16 15 15 17 20 25 30 34 33 28 30 32 33 35 36 37 34 31 27 21 16 19 20 21 22
19 24 24 23 21 19 19 18 15 14 12 8 4 5 8 10 12 14 15 16 18 20 24 28 32 31 27 30 31 31 30 30 30 32 33 33 30 28 15 14 13 11 10 13
27 26 26 23 16 17 19 15 13 10 7 4 5 6 9 12 14 15 15 14 15 19 24 25 25 28 29 29 28 24 25 25 24 25 22 18 12 8 14 17 19 20 21 20
26 22 20 20 20 17 14 12 8 5 3 4 7 10 12 13 13 15 16 16 19 22 21 24 24 27 28 28 27 24 24 24 25 27 23 20 20 20 18 16 15 14 15 15
23 22 21 19 18 16 12 8 4 3 4 6 9 11 12 12 14 14 13 16 18 20 20 21 22 23 24 24 24 23 23 23 23 23 21 18 16 16 14 15 15 16 15 15
21 20 18 15 13 11 8 4 2 4 6 9 11 12 13 13 14 15 15 16 17 18 19 19 20 21 22 23 23 22 22 23 22 21 19 18 18 18 18 18 19 19 19 18
20 17 15 13 10 7 5 3 2 5 7 9 11 13 13 14 13 12 12 14 17 17 18 20 21 22 23 23 22 21 20 22 22 20 19 18 18 18 19 20 20 19 18 18
16 16 14 11 10 7 3 3 3 5 7 9 11 12 13 14 14 14 16 18 18 20 20 20 22 23 24 24 23 22 21 20 21 20 20 19 19 19 20 20 19 19 19 19
16 15 14 10 6 3 1 2 5 7 9 10 10 10 10 13 15 18 18 19 20 21 21 23 22 22 23 23 23 22 21 21 20 20 20 19 19 20 20 20 20 19 19 20
11 8 7 6 2 1 3 6 7 8 11 12 13 10 10 13 17 19 20 21 20 18 20 22 21 21 21 21 21 22 20 20 19 20 19 18 20 20 21 21 20 20 20 21

GFSNGP_850_spd_060.txt.gz
Wind_Speed
5 3 3 1 3 2 4 4 5 7 7 8 7 8 20 23 15 27 32 32 34 34 36 39 35 32 30 24 19 18 17 16 14 12 8 7 11 13 11 16 24 26 23 22
3 3 3 3 3 5 4 3 5 5 6 5 5 3 13 19 14 20 28 30 33 34 33 31 33 29 23 22 21 21 18 16 15 11 9 9 5 13 28 24 24 23 22 24
4 3 4 6 6 7 5 5 5 5 6 2 5 9 6 7 7 11 21 28 31 32 35 31 26 25 27 27 24 20 17 15 12 10 5 8 20 15 19 21 20 21 22 25
3 3 2 7 4 6 6 3 4 7 3 6 12 16 13 8 8 11 18 24 27 27 26 27 27 28 26 23 21 20 17 14 8 5 15 13 15 18 20 20 20 22 24 25
4 3 5 8 3 6 5 2 4 7 6 16 24 26 17 12 12 15 18 22 24 24 25 26 26 25 25 23 20 17 13 6 5 16 13 15 18 18 19 20 22 23 25 26
3 4 6 7 4 5 5 0 1 8 6 9 6 4 3 13 16 20 20 22 24 25 27 28 28 26 23 19 15 9 2 7 20 12 16 17 19 19 20 22 25 28 29 28
2 3 7 8 8 2 5 6 9 12 10 7 5 8 17 19 20 21 23 26 27 29 29 26 24 20 16 10 3 8 16 15 13 17 16 18 19 20 22 24 24 25 27 25
3 3 6 9 3 7 6 14 17 16 18 23 24 23 22 22 23 24 26 27 25 25 22 18 14 9 4 6 15 16 10 13 16 16 17 18 20 22 24 26 28 29 33 31
8 6 5 4 7 15 21 23 17 17 16 20 25 24 23 23 24 24 24 22 17 14 12 8 3 7 16 7 6 11 13 15 16 18 18 19 22 24 27 28 30 31 30 29
4 2 4 16 19 22 19 19 17 15 16 18 24 25 24 24 23 22 19 15 11 8 4 0 3 2 5 8 12 13 15 18 19 20 22 23 26 27 29 31 30 30 28 28
4 3 16 11 18 21 19 16 13 11 9 17 24 24 26 24 21 18 14 11 6 4 6 4 5 7 8 11 14 18 21 23 25 27 29 32 34 33 32 34 32 31 28 26
5 21 8 12 17 21 20 16 12 8 17 19 18 26 24 22 16 12 10 10 8 7 6 4 5 6 9 11 13 17 21 24 26 30 33 36 37 40 38 37 35 33 30 27
10 25 18 25 23 19 17 17 17 18 21 26 23 21 19 19 18 16 12 8 6 4 1 5 10 10 13 16 19 22 26 29 30 32 34 35 36 36 42 43 41 39 35 31
26 32 24 26 18 19 19 20 21 23 23 22 24 22 23 20 15 13 11 8 3 3 7 9 12 15 17 20 22 23 25 28 31 34 36 37 38 40 40 41 41 45 37 35
26 6 23 26 25 22 21 26 29 29 26 24 20 19 16 15 13 9 5 1 2 6 8 11 13 15 18 22 25 29 32 34 34 34 34 33 31 33 36 35 38 36 37 26
19 22 29 27 25 26 29 28 27 26 23 22 20 16 13 10 7 4 1 3 6 9 11 12 15 19 23 27 30 32 32 32 33 35 35 36 39 38 38 34 32 22 17 19
32 24 27 26 28 30 28 25 25 24 20 17 15 13 10 8 4 1 2 6 8 9 11 15 19 22 25 26 28 30 31 30 29 28 28 30 31 34 34 30 28 19 14 14
12 23 23 30 34 32 26 25 23 20 18 16 14 10 7 3 1 3 6 7 8 10 13 17 21 22 23 24 24 23 23 23 24 24 23 25 24 22 23 22 20 13 9 9
23 25 27 27 26 27 28 25 21 18 16 13 10 6 2 2 3 6 7 9 11 14 18 19 20 21 21 20 21 21 21 22 23 23 24 27 27 31 28 27 23 19 19 19
26 27 27 29 26 25 25 21 19 17 14 9 5 2 1 3 5 7 9 11 13 15 16 17 18 18 18 19 20 20 21 22 22 23 23 23 22 22 22 20 19 19 18 16
30 30 29 24 24 23 20 18 15 13 10 6 3 1 2 5 7 8 9 10 12 13 14 15 17 17 18 19 20 20 21 22 22 22 21 20 19 19 20 20 20 20 20 19
30 28 26 25 24 22 17 14 11 8 6 3 1 3 4 5 8 10 11 10 12 14 14 16 17 18 19 20 21 21 21 21 21 21 20 20 20 20 20 21 21 21 21 20
25 24 23 21 20 18 16 11 9 5 2 1 3 5 7 8 9 10 10 12 13 15 17 18 19 20 22 21 21 21 21 21 21 20 19 19 19 20 20 21 22 21 20 20
22 21 20 18 16 14 12 9 5 1 2 5 7 8 8 9 10 11 12 13 15 16 18 19 20 21 22 21 21 20 20 19 20 19 19 19 19 19 19 20 21 21 20 20
20 20 18 17 14 11 8 6 3 2 5 6 7 9 10 11 11 11 13 15 16 18 20 20 22 22 21 21 21 21 20 20 19 19 19 19 19 20 20 20 20 21 21 21
20 19 16 12 9 7 5 6 6 6 7 7 8 9 10 11 11 12 14 16 18 21 21 21 22 23 21 22 21 21 21 19 18 19 19 18 19 20 20 20 21 21 22 22
18 16 15 12 8 6 5 5 5 7 8 9 10 11 11 11 13 15 17 19 20 22 21 21 21 22 21 21 21 20 20 19 18 18 18 18 19 21 21 21 21 21 22 22

GFSNGP_850_spd_063.txt.gz
Wind_Speed
4 4 4 4 4 5 6 6 6 7 7 9 8 8 16 20 24 23 28 33 38 37 37 38 39 40 36 31 30 31 30 24 24 21 17 15 13 11 8 10 19 23 23 22
3 2 3 3 6 5 4 3 6 6 6 7 6 7 6 11 18 25 28 31 34 35 36 37 41 37 31 29 28 27 24 23 19 18 17 14 8 7 15 24 20 19 22 22
5 1 3 5 8 8 6 6 6 6 9 2 2 4 6 6 6 7 14 21 26 31 34 34 33 31 29 27 27 23 19 18 19 15 10 7 10 17 19 17 19 19 20 21
2 2 1 7 3 4 6 3 5 2 2 5 7 11 12 10 4 4 7 13 19 23 24 24 25 27 26 25 20 20 21 19 14 7 5 13 18 18 17 18 19 20 21 23
4 4 5 5 4 7 7 5 2 6 6 10 11 8 12 11 7 6 6 9 13 17 20 25 26 25 24 22 22 21 17 12 5 6 19 22 16 18 19 20 20 21 23 26
3 5 7 7 3 3 5 4 5 7 8 8 2 3 3 3 6 9 11 14 17 20 21 21 21 22 23 22 18 14 10 5 10 20 21 17 19 20 19 19 21 23 25 26
3 3 7 7 6 7 5 7 12 16 16 10 4 4 12 10 10 11 13 16 17 18 19 20 23 21 19 15 12 7 8 17 21 13 17 18 19 19 20 21 24 26 29 29
3 3 6 8 5 9 7 10 15 14 14 10 12 17 17 15 15 15 16 18 19 23 23 21 17 13 9 3 7 15 19 12 14 16 17 18 19 20 22 24 27 29 32 34
9 6 4 8 5 9 21 24 17 19 17 17 21 20 18 18 18 19 21 22 21 19 19 16 11 6 5 7 6 8 10 11 13 16 17 19 22 25 27 28 31 33 33 35
4 4 3 6 10 22 20 23 22 19 19 18 22 22 21 21 22 23 21 19 17 15 12 8 4 1 1 3 4 8 11 14 16 20 23 25 28 31 34 36 38 39 38 39
1 1 6 8 14 24 22 22 22 22 21 22 22 24 24 25 25 22 19 16 12 10 7 5 4 3 2 6 10 13 16 19 22 25 27 31 33 34 36 40 39 38 41 43
6 19 9 15 22 22 23 22 20 20 24 24 23 26 27 27 23 19 17 15 12 8 6 6 3 3 7 10 14 17 21 24 27 30 32 34 37 42 40 40 41 39 39 37
8 28 12 27 25 22 21 19 18 19 22 27 24 28 28 27 22 21 17 14 10 9 5 2 5 8 10 14 17 19 22 25 28 31 34 36 37 37 41 43 35 38 37 36
20 31 18 28 18 23 21 21 20 22 25 27 32 30 28 26 22 17 15 12 9 5 3 5 8 10 14 17 20 23 26 28 29 30 32 33 33 33 32 37 40 43 39 32
26 12 26 27 29 26 25 28 30 31 31 29 27 27 22 21 18 15 12 7 4 3 4 7 10 13 17 20 23 25 26 27 28 29 29 28 28 29 31 34 35 35 33 29
16 16 28 33 32 30 30 30 32 32 29 28 26 23 20 17 14 11 7 5 3 4 7 10 14 17 20 21 22 23 24 25 25 26 26 23 22 24 26 28 28 29 29 24
32 21 32 30 31 32 31 30 29 30 28 26 24 21 17 14 11 8 4 2 4 7 10 13 15 17 19 20 21 23 23 22 22 22 21 21 23 27 28 31 30 27 22 19
14 22 27 33 35 34 30 27 28 27 25 22 20 17 14 10 7 4 2 3 7 10 11 13 15 16 18 19 19 20 20 21 21 22 22 22 23 22 23 24 24 24 23 22
14 24 25 28 31 32 31 29 26 23 22 19 17 14 10 6 3 2 3 6 8 10 12 13 15 16 16 17 18 19 19 20 21 21 21 21 21 21 22 22 23 22 22 23
25 23 26 31 29 28 31 27 24 22 19 16 12 9 6 3 2 4 6 7 9 11 13 14 15 16 17 17 18 20 21 22 23 22 21 21 21 22 22 22 24 24 24 23
24 28 30 30 30 28 24 22 21 19 17 12 8 5 3 3 3 5 7 9 10 12 13 14 16 16 17 18 20 21 22 21 22 22 22 22 22 22 22 23 23 23 23 24
29 29 30 29 27 25 23 20 15 13 12 9 6 4 3 3 4 6 8 10 11 13 14 14 16 18 19 20 20 20 20 21 21 21 21 22 22 23 23 23 24 24 23 23
31 28 25 25 26 24 18 15 13 9 8 6 4 2 2 4 7 8 10 11 13 14 14 16 16 17 19 20 20 20 20 21 21 21 21 21 22 22 23 23 23 23 23 24
24 24 25 23 18 15 18 15 11 8 5 3 2 3 5 7 9 10 11 11 11 13 15 17 18 18 19 20 21 21 21 21 21 21 20 20 21 21 21 23 23 23 23 23
24 22 20 17 15 14 12 10 8 5 3 3 5 7 9 10 11 10 11 12 13 15 18 19 19 19 20 21 22 21 21 21 21 21 21 21 21 21 21 22 23 24 24 24
21 20 17 14 12 10 8 6 5 5 6 7 9 10 11 11 12 11 13 14 16 18 19 20 19 19 21 22 22 22 21 21 21 20 21 21 21 21 22 22 23 23 23 23
17 16 15 13 10 7 5 6 6 7 8 10 11 11 11 10 12 14 14 16 18 20 21 20 19 19 20 22 22 22 21 21 20 21 21 21 21 22 23 23 23 22 22 22

GFSNGP_850_spd_066.txt.gz
Wind_Speed
4 4 5 6 5 8 7 6 6 7 8 9 7 6 11 14 15 15 20 23 27 29 31 34 32 29 28 29 31 30 31 29 24 17 17 16 11 9 7 9 12 15 23 19
3 2 4 2 7 6 6 4 6 5 7 9 11 8 9 11 12 12 16 23 25 28 30 29 29 27 28 27 26 25 27 23 16 16 14 12 10 6 8 12 17 26 19 20
4 3 3 6 8 9 7 5 7 8 10 4 3 3 4 9 8 5 6 10 16 21 24 26 25 25 26 24 22 23 22 17 16 14 13 10 7 9 12 22 26 20 20 20
3 2 0 7 1 4 8 7 6 5 4 5 6 10 8 7 6 8 5 2 4 10 14 19 18 18 18 21 23 21 18 15 14 11 6 4 10 18 25 19 20 21 20 20
5 4 5 5 4 7 7 9 6 6 5 8 16 8 8 8 7 7 6 5 4 5 8 13 15 17 21 21 18 16 15 14 11 4 8 15 21 19 18 21 21 21 21 22
3 5 7 8 4 6 3 8 8 11 7 9 10 3 2 5 8 8 7 7 7 9 11 13 16 18 19 18 17 17 13 7 4 11 16 22 15 20 20 21 21 23 25 25
2 3 7 7 4 9 6 8 9 23 22 15 4 4 12 10 10 9 9 10 11 13 14 15 15 16 18 18 15 10 4 6 13 20 15 16 17 19 20 21 25 27 29 30
3 3 6 11 6 9 8 3 17 19 22 13 11 15 16 14 14 14 14 16 16 19 22 20 17 15 15 11 6 4 7 9 10 11 11 14 16 18 21 26 30 33 35 38
9 7 4 20 7 15 8 11 18 21 20 17 18 19 19 18 17 17 19 23 23 24 26 21 17 11 9 5 1 5 8 8 9 12 15 18 22 25 28 30 34 37 40 44
3 5 7 11 16 11 16 19 21 20 21 20 20 22 21 20 22 24 25 25 23 22 20 17 12 7 2 6 5 6 8 10 13 16 19 22 25 28 31 34 36 38 40 43
4 5 3 11 18 17 18 18 21 21 21 21 21 24 23 26 27 27 25 23 19 17 15 10 3 1 2 3 5 8 11 14 18 22 25 28 30 32 34 34 33 34 34 34
7 17 12 10 25 21 22 24 24 25 24 21 22 24 26 28 27 26 24 20 17 12 5 3 5 4 4 6 9 12 15 18 22 26 28 30 32 34 32 33 33 32 32 30
3 10 16 10 25 27 26 24 24 23 22 24 23 24 28 31 27 24 21 17 8 6 9 9 5 4 5 8 12 15 19 21 23 24 26 28 29 30 35 36 32 32 33 30
9 14 11 23 16 25 25 25 23 21 21 23 27 30 32 30 26 21 18 14 11 11 8 5 3 5 8 11 15 17 18 20 21 22 23 24 25 25 26 30 35 38 34 29
15 9 10 20 23 25 23 24 24 25 25 27 28 30 28 27 24 20 17 13 11 8 5 3 4 7 10 13 15 17 18 19 20 22 22 22 22 23 24 26 28 29 32 30
10 7 16 24 27 25 23 24 27 29 30 32 31 28 25 23 21 19 16 12 8 6 4 5 7 10 12 14 16 16 16 18 19 20 20 21 21 23 24 25 27 27 27 27
20 15 20 25 33 31 30 29 29 31 32 30 29 26 24 21 18 15 12 9 7 5 4 6 9 12 13 14 15 16 17 18 18 19 20 21 21 22 24 24 25 25 24 24
17 16 24 26 34 36 30 28 29 30 28 28 25 23 19 16 13 12 9 6 4 5 6 9 10 12 13 14 15 16 17 18 19 21 21 21 21 22 23 24 24 25 26 25
10 17 20 23 26 29 31 30 27 27 27 25 22 20 16 12 9 7 5 4 5 7 8 9 10 12 13 14 15 17 19 19 20 21 21 21 22 22 23 24 25 25 26 26
19 21 22 26 27 27 27 26 29 27 23 21 18 15 12 10 8 6 4 4 6 7 9 10 12 13 15 16 17 19 20 21 21 21 21 21 22 22 23 23 24 25 25 25
23 23 23 24 26 25 28 28 24 23 21 16 12 10 9 8 6 4 4 6 8 10 11 13 14 15 16 17 18 19 20 19 20 21 21 22 22 22 22 22 22 23 24 24
21 22 24 26 29 31 26 22 19 20 15 13 12 8 6 4 3 4 5 7 9 11 13 14 15 16 17 18 18 19 19 19 20 20 20 21 22 22 22 22 23 24 24 24
21 24 27 28 27 25 22 19 15 11 12 10 7 5 3 3 4 5 7 8 10 11 13 15 16 17 18 18 18 20 20 21 20 20 20 21 22 23 23 23 24 24 25 25
27 26 26 24 24 21 18 15 13 12 9 6 4 1 2 4 6 7 9 10 11 13 14 16 18 19 18 19 19 20 21 21 21 20 21 21 22 22 22 23 23 24 24 24
26 25 25 22 17 13 13 12 10 7 4 1 3 5 6 7 9 9 10 12 13 14 16 18 19 20 19 20 20 21 20 21 21 21 21 21 22 22 22 23 23 24 24 24
22 20 17 14 13 12 9 7 5 2 2 5 6 7 8 9 11 12 12 14 15 16 18 19 20 20 19 20 20 21 21 21 21 21 21 22 23 23 22 22 23 23 24 23
16 14 13 11 9 7 5 3 0 3 6 8 9 11 12 12 12 13 15 16 18 18 19 20 20 19 18 19 20 22 22 22 22 22 22 22 22 23 22 23 23 23 23 23

GFSNGP_850_spd_069.txt.gz
Wind_Speed
5 4 5 5 5 11 10 7 7 12 11 11 10 5 6 7 8 12 12 13 18 20 21 22 23 23 26 23 23 24 24 23 21 22 18 12 16 15 9 2 5 9 10 21
4 3 6 4 6 8 7 4 9 8 9 11 8 7 9 9 8 11 13 12 13 16 18 20 21 25 24 23 20 18 17 19 22 18 15 12 14 8 0 5 4 13 22 19
5 1 4 4 7 10 5 5 7 10 11 1 5 5 4 5 4 4 4 3 4 8 12 15 16 17 16 13 11 12 17 20 18 13 13 11 3 4 5 11 23 16 16 19
3 1 4 5 2 2 8 9 10 8 7 6 4 5 3 2 3 5 7 8 9 7 8 11 11 12 12 13 13 17 19 16 13 15 11 8 5 8 14 20 14 16 19 20
5 5 4 3 5 6 7 14 8 12 7 5 11 8 2 5 7 8 10 12 12 11 10 11 12 13 16 17 18 18 17 17 17 13 7 3 14 16 14 14 16 18 19 20
3 5 9 6 4 9 5 12 8 12 9 12 14 5 4 9 10 11 11 12 12 13 13 13 15 16 19 21 20 18 18 17 10 3 7 13 14 12 13 15 17 19 21 23
3 4 6 5 5 12 5 10 4 16 12 20 8 3 15 15 14 14 13 14 15 15 17 18 20 21 22 22 21 19 14 8 4 8 10 9 10 11 14 16 20 23 27 30
3 2 8 11 6 9 8 6 6 14 19 22 10 16 19 18 18 17 18 19 18 21 22 23 22 21 24 22 18 13 8 2 8 9 8 10 12 15 18 22 25 28 32 35
9 7 4 28 11 25 9 7 9 16 22 24 22 22 22 22 21 21 22 23 25 27 30 27 24 20 21 15 10 5 4 6 4 7 10 13 15 18 20 23 25 28 29 32
2 5 6 13 23 12 16 17 13 18 27 27 24 25 25 25 25 26 27 29 29 28 28 26 20 15 11 7 2 2 3 4 7 9 11 14 16 18 19 20 22 23 23 27
3 4 4 13 21 20 18 16 15 18 25 27 26 27 27 28 28 30 31 29 27 25 24 20 14 9 5 4 5 3 4 6 9 11 14 16 17 17 18 18 19 21 21 22
7 13 9 9 23 24 24 23 21 24 26 25 26 29 30 30 32 33 31 28 25 20 16 13 9 9 8 4 3 4 6 9 11 13 15 16 17 17 17 17 18 17 18 20
3 5 17 14 15 21 27 25 25 27 28 29 27 28 31 35 33 31 28 25 20 16 13 12 11 7 4 2 3 6 9 10 12 14 15 16 17 18 20 20 19 19 20 20
10 8 7 13 11 21 22 23 24 23 23 24 29 31 35 36 34 30 27 21 16 15 14 11 7 4 2 3 6 8 10 12 13 14 15 17 18 19 20 21 23 22 23 23
8 10 11 12 13 21 23 24 24 23 23 25 27 32 35 36 33 28 23 19 17 13 12 9 5 2 3 5 7 9 10 11 12 13 14 15 17 18 19 21 22 23 25 25
10 8 10 14 19 22 23 23 26 25 24 26 30 32 32 31 31 27 23 14 13 11 8 5 2 2 5 7 8 9 10 11 12 13 14 15 16 18 19 20 21 23 25 27
18 15 18 18 22 22 21 22 23 26 29 31 31 30 29 28 25 23 16 16 11 8 5 2 2 4 6 8 9 10 11 12 13 14 15 16 17 18 19 20 21 22 23 23
11 10 16 17 29 29 25 21 23 27 32 33 33 29 27 23 16 15 16 12 8 5 3 2 4 6 8 9 10 11 12 14 15 15 16 17 18 19 20 20 21 22 23 22
6 9 13 18 20 21 21 23 26 28 29 30 30 26 18 14 17 15 10 7 5 3 2 4 6 8 10 11 11 13 14 14 15 16 16 17 18 19 19 20 21 21 22 22
15 16 17 19 19 20 25 27 27 29 29 26 22 19 20 16 9 8 7 5 3 3 4 6 8 10 11 12 13 14 15 15 16 16 17 17 18 19 19 19 20 20 21 21
18 18 19 22 24 24 25 27 28 26 22 19 19 14 10 12 10 6 4 3 4 5 6 8 10 11 12 13 14 15 15 16 16 16 17 17 18 18 19 19 19 20 20 21
20 21 23 23 27 30 27 25 24 23 20 16 11 11 10 8 5 3 3 3 4 7 8 10 12 13 14 14 15 16 16 17 17 17 17 18 18 19 19 19 20 20 20 21
20 22 25 28 30 29 26 22 21 17 13 12 11 9 5 3 2 2 4 5 6 8 9 11 13 14 16 16 17 17 18 18 18 18 18 18 19 20 20 20 20 21 21 22
27 28 29 29 28 27 26 20 14 13 11 11 6 4 1 2 3 5 6 6 8 9 11 13 14 16 17 18 19 19 19 19 19 19 19 19 19 20 21 22 21 21 21 22
29 28 25 22 19 17 16 15 13 11 7 4 2 2 3 5 6 7 9 10 11 12 14 15 16 18 20 20 19 19 19 20 20 20 19 20 20 21 22 22 22 22 22 22
23 22 18 15 16 15 13 11 7 4 2 3 4 5 6 8 10 11 11 12 14 15 17 18 19 20 20 20 19 18 19 20 20 20 20 21 22 22 22 22 22 22 22 22
20 18 17 16 14 10 7 5 3 3 3 4 6 8 9 10 11 11 12 14 16 17 18 19 20 20 19 19 19 19 20 20 21 21 21 22 22 22 22 22 23 23 22 22

GFSNGP_850_spd_072.txt.gz
Wind_Speed
17 15 12 16 14 16 17 18 17 14 17 13 14 15 15 8 5 6 9 8 9 12 13 13 14 15 18 21 23 21 20 22 24 19 16 17 5 3 12 16 10 14 8 13
13 11 12 15 16 15 17 16 14 17 18 14 18 13 12 11 8 7 5 7 8 10 13 14 15 16 19 21 20 18 17 14 17 18 18 16 9 12 12 10 11 9 13 14
12 7 6 8 15 15 15 13 15 16 17 14 14 14 17 11 8 7 5 4 4 8 12 13 14 16 17 16 16 16 15 17 18 18 19 12 13 12 11 5 10 14 13 12
6 4 8 9 3 15 18 17 16 16 18 16 15 9 5 5 4 1 3 5 7 8 10 11 13 14 15 16 17 18 19 19 20 18 16 14 11 6 5 10 12 9 9 10
5 10 10 5 5 9 11 16 15 15 18 17 8 7 8 6 7 6 7 9 10 11 13 14 14 15 16 17 17 19 20 20 18 17 15 11 7 9 8 7 7 9 10 11
4 6 8 5 12 13 5 14 11 12 12 8 11 7 4 12 12 11 11 11 13 15 16 17 18 18 18 20 21 21 21 21 18 14 8 5 6 6 6 7 8 8 10 12
10 5 5 4 7 13 9 13 2 9 9 13 12 1 15 17 15 13 13 14 16 16 17 18 20 21 23 23 24 24 23 20 14 8 7 7 6 6 7 7 10 14 20 22
5 4 9 12 11 10 13 4 7 9 11 16 12 11 15 15 16 15 16 17 16 18 19 18 20 22 23 22 23 22 19 14 11 7 6 5 5 7 8 11 15 19 21 21
8 6 3 25 16 23 7 9 9 12 12 17 19 17 19 18 18 17 18 18 19 20 22 21 19 19 21 19 17 16 14 10 7 6 5 6 7 10 12 13 15 15 15 14
5 9 11 12 19 9 9 7 4 7 13 20 23 22 22 21 20 20 20 20 21 23 23 23 20 19 17 17 15 10 8 8 7 6 6 8 10 11 11 11 12 12 13 14
12 12 7 11 18 18 16 13 11 11 14 20 23 24 24 24 23 22 22 22 21 22 22 22 21 20 17 14 11 10 8 7 6 6 7 8 9 8 8 10 12 12 12 12
7 17 12 12 9 18 19 19 16 17 16 19 23 26 26 25 24 25 25 24 23 22 23 22 20 16 13 12 10 8 7 6 6 7 7 6 6 7 10 9 11 12 12 15
6 6 7 9 4 11 13 12 14 18 19 23 21 24 25 26 25 26 25 24 23 24 23 21 17 15 13 10 8 6 6 6 6 5 5 6 6 5 4 10 13 13 13 15
15 10 7 9 3 9 10 10 13 15 17 21 22 23 24 24 25 23 22 21 22 23 21 18 16 13 10 8 6 4 5 5 4 5 6 6 6 7 7 8 8 8 14 17
16 15 11 11 8 7 7 11 15 15 17 20 21 24 25 26 25 23 21 21 20 19 17 15 13 10 8 5 3 3 4 5 6 7 7 8 8 9 8 9 10 10 12 13
9 8 9 8 9 6 12 13 16 18 18 20 21 22 24 25 24 23 22 22 19 15 12 10 7 5 4 2 2 3 5 6 7 8 9 9 10 10 9 10 11 11 12 13
5 4 7 7 6 10 12 12 12 17 21 21 25 28 31 31 30 28 24 17 13 12 11 5 3 2 2 2 3 5 6 8 9 9 10 11 12 12 11 12 11 12 12 14
6 4 3 6 13 14 14 16 18 21 24 26 29 31 30 29 27 23 20 16 14 7 5 4 5 4 4 4 6 7 8 9 10 11 12 13 13 14 13 13 13 13 14 15
4 6 8 11 12 14 15 16 18 19 20 23 27 28 25 23 20 18 18 13 8 6 6 5 4 4 6 7 8 9 10 11 12 13 13 14 14 14 14 14 15 15 16 16
14 14 16 17 16 15 18 19 22 25 28 29 29 27 23 19 18 13 9 7 7 6 4 3 4 6 8 9 9 11 11 12 12 13 14 14 14 15 14 14 16 15 15 15
19 19 20 20 22 22 23 26 30 32 30 25 23 23 20 16 12 9 7 6 4 2 2 4 6 8 10 11 11 12 13 13 14 13 13 14 14 12 12 13 14 15 16 17
21 24 26 27 28 31 29 29 29 28 26 21 16 14 12 11 9 6 3 2 2 3 5 7 9 10 11 12 13 13 13 13 13 13 12 12 12 12 12 14 15 16 18 18
26 27 30 33 34 33 29 26 23 20 18 16 14 12 10 8 5 3 0 3 4 6 7 9 11 13 14 15 15 15 15 15 13 12 12 12 12 13 14 15 17 19 18 19
31 30 31 30 29 27 26 20 19 18 16 15 12 8 4 2 1 2 3 5 7 9 9 13 14 15 15 17 17 16 14 11 12 12 12 14 13 13 14 16 19 19 20 20
29 27 26 23 21 20 19 17 17 14 9 7 5 4 3 2 3 5 7 8 8 9 11 14 15 16 17 16 16 15 14 12 13 16 14 13 14 15 16 17 19 20 22 22
24 22 21 20 18 16 14 12 12 10 7 6 5 6 6 7 7 7 7 8 11 12 14 16 17 18 17 14 14 14 14 13 14 13 16 16 16 17 19 20 21 23 23 23
25 22 20 19 16 14 12 10 9 8 7 6 5 6 6 7 8 8 9 11 14 15 15 15 16 16 17 17 15 14 14 13 15 19 20 20 20 20 21 22 23 23 23 22

GFSNGP_850_spd_078.txt.gz
Wind_Speed
19 19 18 18 20 19 20 16 16 12 17 15 13 11 1 8 20 8 5 8 7 10 15 17 14 15 18 19 24 28 32 36 31 29 25 28 26 23 23 22 21 16 9 15
18 19 21 18 18 19 20 19 19 16 17 14 16 16 11 13 8 10 8 7 4 2 8 17 18 16 20 24 27 31 28 25 23 21 25 25 24 24 19 23 20 11 12 15
15 18 18 18 16 13 12 13 11 13 11 9 10 11 10 7 3 7 11 5 4 5 7 15 20 23 26 29 28 26 21 18 17 21 23 23 22 21 23 22 16 14 13 12
8 2 22 10 11 14 11 12 14 14 10 10 13 17 13 1 1 5 4 5 6 7 9 15 20 23 24 24 22 23 18 16 17 21 24 25 23 22 20 18 16 13 10 14
6 12 12 17 9 6 8 13 12 12 13 14 15 1 6 3 6 5 9 9 10 12 14 18 19 18 18 20 19 16 17 17 20 22 27 24 21 19 17 15 11 14 14 11
3 5 10 7 10 3 9 12 13 14 12 9 12 2 1 2 7 11 12 12 14 17 18 16 15 15 16 19 19 18 18 20 23 25 25 20 18 18 12 12 12 11 12 15
9 5 4 8 13 19 15 6 17 12 7 3 2 5 11 9 10 10 13 14 16 18 15 12 14 16 16 18 19 18 21 22 22 19 17 16 13 13 14 13 15 18 20 17
6 4 11 4 5 15 6 18 12 17 8 6 7 9 12 12 14 16 16 18 18 18 19 19 19 18 20 20 21 23 21 21 21 19 16 15 16 15 14 14 16 16 15 14
6 5 4 10 13 17 14 10 13 8 5 7 12 13 13 17 18 18 18 18 17 18 19 17 16 17 21 22 23 23 23 20 20 20 16 15 13 12 12 11 11 13 13 11
7 9 11 12 20 21 12 10 6 5 4 6 12 15 16 18 18 20 19 19 19 21 20 19 18 19 21 22 22 21 20 19 17 16 14 14 13 13 12 13 12 12 10 12
10 9 16 19 26 21 12 7 8 8 9 10 15 17 19 19 19 19 20 20 20 20 22 20 20 18 17 19 19 20 19 17 17 17 14 14 13 10 9 9 9 11 13 15
2 7 8 10 16 10 12 20 28 15 13 11 14 15 18 19 20 21 20 20 21 21 21 20 19 17 15 14 16 16 16 15 13 12 10 7 6 6 7 8 10 12 13 14
7 7 4 3 3 3 5 2 4 9 11 9 8 12 16 16 18 19 20 20 21 22 21 21 21 19 17 17 18 16 14 9 7 5 5 5 6 5 6 9 12 14 15 15
19 18 5 3 4 3 1 3 3 1 2 4 7 10 15 17 18 19 17 18 21 24 24 22 19 15 14 13 12 9 8 6 5 5 4 3 7 9 9 10 12 13 15 16
3 2 3 3 3 3 2 4 7 9 8 10 11 15 18 21 21 20 22 24 25 24 21 17 15 18 15 11 8 6 3 1 3 7 9 9 9 10 12 12 13 13 13 12
18 8 5 5 5 4 5 8 11 11 13 14 16 19 23 27 30 29 27 26 22 15 15 17 17 16 14 9 6 4 4 4 6 8 8 10 12 12 12 11 13 14 13 14
11 7 6 7 7 7 9 9 13 17 21 23 27 27 28 30 29 26 23 17 14 17 17 13 12 10 8 6 3 0 5 6 7 9 11 12 12 13 13 13 12 14 15 17
12 11 9 12 14 16 18 20 21 22 24 25 27 26 26 24 23 19 17 18 19 17 13 9 7 5 4 2 3 5 6 9 12 11 12 12 14 15 14 15 14 14 16 17
17 18 18 20 18 17 19 20 19 18 20 24 25 24 20 20 22 23 21 17 14 11 9 6 5 5 4 3 7 10 10 10 10 11 13 15 14 12 14 15 14 17 18 18
18 18 18 21 20 19 23 20 20 23 21 20 22 26 29 28 25 21 16 13 10 8 6 4 3 4 6 6 7 9 10 10 11 12 11 14 13 12 16 13 14 16 18 19
22 22 24 26 29 28 27 25 26 27 26 26 28 29 26 22 17 13 10 8 8 6 5 4 4 5 5 8 9 11 11 11 11 12 12 13 14 14 15 16 17 18 18 19
31 32 34 34 34 34 30 29 30 31 29 27 25 22 20 17 12 10 9 8 7 6 4 4 5 8 10 10 10 11 12 11 13 13 14 14 15 16 17 17 18 19 20 21
36 37 37 38 39 39 36 33 31 29 27 24 21 18 17 15 11 8 9 7 6 5 4 8 11 12 12 12 11 12 13 14 13 14 16 16 16 17 18 17 18 19 20 20
38 38 38 36 35 34 33 28 26 24 23 21 19 16 13 11 10 8 6 3 4 3 7 11 15 15 13 12 13 14 15 15 15 14 16 20 17 15 16 18 18 19 20 22
35 33 32 30 31 29 26 22 22 20 18 17 15 12 11 10 8 6 6 6 5 6 10 16 17 19 13 9 11 13 15 15 16 19 16 16 19 18 16 17 18 20 22 23
32 31 29 28 26 23 21 20 20 16 14 15 14 13 11 11 9 9 9 9 10 10 10 10 15 14 15 15 18 15 15 16 16 16 18 19 19 16 18 19 19 20 21 22
28 27 26 25 22 20 17 15 16 18 14 11 11 9 9 9 8 7 5 8 8 7 9 10 12 14 14 17 15 17 18 15 16 18 18 18 17 18 18 19 20 21 22 21

GFSNGP_850_spd_081.txt.gz
Wind_Speed
11 20 18 19 12 14 11 7 10 10 15 11 8 7 7 13 8 8 11 18 20 24 21 20 18 19 22 26 31 38 38 32 34 37 34 29 33 30 27 26 28 28 25 26
11 14 15 9 19 11 14 11 7 8 10 8 12 12 11 15 16 17 20 10 10 11 16 22 23 23 21 24 27 28 28 28 30 31 32 25 25 27 30 30 27 28 24 19
7 10 12 8 15 11 17 13 10 9 8 6 5 3 3 2 9 7 6 15 12 12 11 23 26 25 26 25 25 27 29 27 27 23 22 23 24 28 28 28 27 26 18 18
2 1 13 5 7 6 12 9 4 1 2 3 6 6 5 11 11 11 12 11 10 10 12 20 25 25 24 25 26 24 18 15 15 16 17 19 25 26 27 27 26 18 16 15
2 6 6 12 3 5 5 6 4 2 2 4 11 9 7 10 9 8 8 10 11 11 13 21 22 22 21 20 17 15 14 15 15 15 20 24 26 27 27 25 19 17 14 15
2 1 7 1 8 2 2 4 5 1 4 6 5 4 4 11 7 9 11 12 13 14 16 17 17 16 16 16 14 14 15 13 15 17 21 23 25 24 22 19 17 17 19 21
1 3 7 6 8 1 5 6 8 3 4 1 4 5 15 14 8 6 10 12 13 15 16 15 15 15 15 14 15 14 14 14 16 20 25 25 23 20 20 19 19 19 18 19
4 4 5 12 2 4 4 15 18 12 11 7 13 17 17 12 8 8 12 16 15 17 15 13 13 14 15 16 15 16 17 19 21 21 20 19 19 18 19 20 20 20 19 18
10 6 8 5 4 6 11 13 5 5 3 9 19 17 14 10 10 12 14 17 16 14 13 11 10 8 15 18 19 18 15 19 23 22 19 18 19 21 20 19 19 19 19 18
3 7 11 15 9 12 12 19 14 6 4 6 11 14 11 12 15 17 16 17 16 17 17 15 10 13 17 21 19 19 24 23 23 23 22 20 20 19 19 17 16 16 15 15
6 8 7 14 19 21 24 24 12 8 5 2 7 11 11 15 16 16 16 17 18 20 21 17 17 19 19 19 22 24 24 22 21 19 18 16 15 13 12 12 12 13 14 15
5 12 11 8 14 21 30 24 28 21 14 9 6 13 13 16 15 17 19 21 22 22 24 24 24 23 22 20 22 24 22 19 16 15 12 7 7 8 9 10 9 11 12 15
3 6 10 9 7 7 8 3 1 4 6 6 5 13 18 19 21 23 24 25 28 27 27 27 26 23 17 17 18 18 17 13 10 8 6 4 5 7 8 10 16 18 14 12
10 5 6 8 8 6 5 5 5 8 9 9 11 19 23 27 28 28 30 30 31 30 27 23 21 19 15 12 10 11 12 10 7 4 4 7 8 9 11 11 11 13 16 15
8 2 10 15 8 8 8 7 9 16 17 22 24 29 32 35 33 32 32 31 28 25 20 16 14 12 12 13 13 9 6 8 8 7 9 8 6 9 10 13 14 15 15 15
14 10 14 14 12 13 13 14 19 21 22 27 30 33 36 37 36 32 28 24 20 18 11 7 7 10 9 9 8 6 4 5 5 4 5 7 11 13 11 12 14 14 15 14
17 17 22 20 20 20 19 18 19 20 24 26 28 30 31 33 32 29 25 18 12 11 11 11 11 9 6 4 3 2 0 2 4 7 11 11 12 12 13 14 14 14 15 17
21 20 18 20 23 22 21 21 22 24 25 27 29 30 30 28 27 22 18 14 15 17 15 11 9 7 5 3 2 4 4 7 9 9 10 11 12 13 13 13 14 15 16 16
21 24 24 22 20 21 23 23 23 23 25 27 28 26 24 23 22 22 20 19 17 15 13 8 6 5 5 5 4 5 6 6 7 9 11 13 14 13 12 13 16 16 16 17
20 19 20 22 20 21 25 25 26 27 25 23 25 25 25 24 23 22 17 17 14 12 10 8 7 7 6 5 7 8 9 10 11 11 12 13 14 14 15 15 14 17 19 20
21 21 24 25 27 26 27 27 28 29 27 25 28 30 29 23 20 17 15 15 13 10 9 8 8 7 7 7 9 11 11 12 12 13 14 14 15 16 16 17 18 19 20 21
26 28 31 32 33 33 30 31 33 33 32 31 29 26 23 20 17 17 16 14 11 7 7 6 8 9 9 8 10 12 13 13 14 14 14 16 17 17 18 19 18 17 19 22
36 37 38 39 40 40 37 36 35 33 31 27 24 21 20 20 16 14 15 10 6 4 4 8 11 10 8 8 10 12 13 14 15 15 15 16 19 21 19 16 18 20 19 20
41 41 41 40 39 38 37 32 31 28 27 23 22 20 17 16 16 12 9 6 4 3 7 10 12 14 11 11 12 13 15 16 15 17 18 19 16 17 22 22 19 19 21 23
40 39 37 35 35 33 30 27 27 24 23 23 22 17 15 12 11 12 8 7 5 6 10 12 15 16 18 17 17 16 14 15 17 17 17 20 22 23 21 19 20 23 24 25
36 34 32 31 30 27 24 23 25 21 21 21 19 15 13 12 10 8 8 8 7 7 9 11 13 15 17 17 17 16 17 18 17 18 20 21 22 21 22 22 22 22 24 25
32 30 30 29 26 24 22 21 22 20 16 16 17 13 11 9 7 5 5 6 8 10 11 11 13 15 16 17 16 15 16 15 16 19 20 21 21 20 21 22 22 22 21 21

GFSNGP_850_spd_084.txt.gz
Wind_Speed
7 10 10 12 14 9 17 9 11 9 11 9 8 9 14 24 24 16 18 19 21 27 26 22 22 24 25 31 37 41 43 44 44 43 40 40 38 31 30 36 35 29 32 32
6 10 11 6 23 19 4 4 9 7 9 9 13 14 10 19 24 23 18 5 15 20 27 26 25 24 28 31 32 36 40 40 37 40 39 35 31 32 34 31 33 30 33 28
5 4 10 6 10 14 6 6 5 6 9 5 6 8 16 22 18 18 18 17 17 18 24 29 27 28 28 29 32 32 32 33 37 39 34 28 24 18 25 29 30 30 29 27
3 4 13 8 7 13 19 14 8 5 4 7 7 7 8 13 15 17 18 20 17 15 15 21 27 29 29 29 30 29 27 30 28 22 17 19 19 21 22 25 33 32 30 26
1 3 4 10 7 6 7 8 8 7 7 5 4 9 3 16 16 17 16 14 11 10 10 12 22 26 28 28 28 26 22 18 15 13 14 17 20 22 24 28 29 28 21 22
3 3 8 4 10 8 1 5 4 7 7 5 11 4 5 14 14 13 12 9 10 11 11 14 18 19 19 18 16 15 14 13 13 14 16 17 19 22 23 24 26 24 22 20
3 3 6 9 9 9 4 6 4 9 5 6 4 6 13 19 16 13 11 11 11 11 12 14 14 14 14 15 14 13 11 12 12 13 14 16 19 20 24 24 21 20 18 18
2 3 6 4 8 6 5 4 5 5 4 10 10 14 24 21 18 15 14 13 12 11 11 11 10 10 12 12 12 11 10 11 12 13 15 16 21 24 22 21 19 19 19 21
9 7 10 8 5 2 3 3 7 11 4 12 19 23 23 20 17 15 13 13 12 10 10 7 5 6 9 10 10 9 11 10 12 15 18 19 19 18 17 16 19 19 16 14
3 6 9 17 12 14 11 5 6 6 5 10 15 16 19 17 17 18 15 13 12 11 11 11 7 3 5 10 12 13 13 13 15 15 17 15 15 16 16 15 13 12 12 12
4 7 6 12 21 19 21 20 13 2 4 6 6 13 13 17 19 18 16 14 16 18 18 16 14 14 16 15 13 13 15 17 17 17 16 16 15 14 13 10 6 4 7 11
5 13 6 13 27 16 23 23 16 14 9 7 8 8 15 21 20 18 19 22 22 23 22 22 22 22 21 18 17 18 20 19 16 16 15 14 10 5 3 1 5 11 13 13
5 11 11 12 12 8 17 16 16 16 16 11 9 11 22 25 25 25 26 26 26 26 25 25 24 22 19 17 17 18 19 18 17 16 12 11 11 10 12 12 13 15 16 15
11 10 9 12 5 9 12 13 10 10 10 12 16 25 30 31 31 30 31 30 30 29 28 25 24 23 21 18 16 14 11 8 5 5 7 8 7 8 10 12 13 15 15 18
16 6 7 15 14 15 15 14 16 21 24 28 29 32 31 34 33 32 31 31 30 27 26 22 17 14 10 6 4 3 4 4 4 4 4 6 8 10 11 11 13 14 13 14
9 12 19 19 20 17 15 15 19 23 23 27 30 31 32 33 35 35 33 29 26 24 17 11 9 8 4 1 1 2 2 1 2 3 4 5 7 9 11 11 12 13 14 14
18 17 23 23 21 19 17 19 21 24 26 28 30 30 33 35 35 31 27 22 18 18 15 12 13 10 8 6 5 4 2 3 4 5 7 8 9 11 12 13 13 14 14 15
19 25 20 22 23 22 22 22 23 25 27 29 31 33 34 31 31 27 23 20 19 19 17 15 12 9 7 5 5 5 6 6 6 7 7 8 9 10 11 12 13 14 15 16
25 26 24 23 22 24 26 27 27 28 29 31 33 32 29 27 26 25 23 21 20 19 18 12 10 7 7 8 7 7 7 6 7 8 9 10 11 11 12 13 14 13 13 16
26 26 25 27 25 26 30 30 31 33 32 29 30 30 30 28 26 25 21 23 20 18 14 12 10 8 8 7 7 8 8 9 9 10 11 12 12 14 15 15 16 17 18 18
25 28 29 30 31 31 32 32 32 33 31 30 31 33 32 28 24 21 19 22 18 14 12 10 8 8 7 7 9 10 10 11 12 13 13 14 14 15 15 16 18 17 15 16
28 31 33 34 35 36 33 32 33 34 33 33 32 30 28 25 21 20 19 18 16 9 8 8 9 8 7 8 10 11 12 13 13 14 14 15 16 18 18 17 16 18 19 18
32 35 38 39 42 43 40 38 36 34 32 29 27 26 25 23 19 17 19 13 8 6 7 9 9 8 7 10 11 12 13 14 14 14 15 15 15 16 19 22 23 21 20 21
40 41 43 42 42 41 39 34 32 30 28 25 24 20 18 18 19 15 13 9 5 4 7 9 11 13 14 14 14 13 13 13 15 16 16 17 19 20 22 22 21 22 23 24
42 42 40 39 38 36 34 30 29 27 26 25 22 18 15 14 11 14 8 6 4 6 9 11 12 14 14 14 15 16 16 17 18 18 18 18 19 20 22 21 21 21 22 23
37 36 35 33 33 30 28 26 28 24 21 21 19 16 15 14 12 10 8 6 6 7 9 10 11 12 14 15 15 15 15 15 16 17 18 19 19 18 18 19 20 21 21 22
33 31 30 29 25 25 24 23 23 21 18 17 18 14 12 10 9 7 6 6 7 7 8 10 12 12 13 13 14 14 14 14 15 17 16 16 16 18 19 20 20 22 23 24

GFSNGP_850_spd_087.txt.gz
Wind_Speed
12 17 12 3 5 4 4 6 10 7 11 11 10 9 12 17 21 23 17 21 27 32 33 31 33 33 34 33 36 38 42 44 46 47 49 47 46 43 43 44 40 39 34 34
11 8 17 18 15 10 9 6 8 7 10 8 14 21 12 19 17 17 21 26 25 26 29 30 30 30 30 31 31 33 35 38 39 39 39 40 39 40 40 37 38 39 33 31
6 4 4 5 16 16 15 4 4 8 8 6 7 9 14 23 21 20 25 25 22 19 24 29 32 31 29 30 31 32 33 34 33 33 33 34 33 29 27 26 30 29 28 31
4 2 5 4 8 13 14 18 11 9 6 9 13 23 24 20 18 20 22 24 19 19 18 21 26 28 30 30 29 29 28 26 26 28 29 27 23 19 19 23 21 24 29 34
2 4 4 2 5 9 9 11 11 12 9 6 10 4 3 14 15 19 21 20 19 14 10 10 13 17 21 25 25 23 21 22 21 20 18 14 13 16 19 21 20 24 28 31
2 6 8 2 6 6 9 10 10 10 11 7 4 4 5 14 13 14 14 14 13 10 8 8 8 12 14 14 15 14 13 12 10 9 9 10 13 15 18 20 20 19 18 18
5 3 7 9 6 4 5 7 5 7 10 9 5 8 8 19 19 18 15 12 10 8 7 6 7 8 8 8 7 6 6 7 7 8 11 11 12 13 14 15 17 21 22 21
3 2 6 6 3 2 5 17 11 6 21 14 16 5 7 20 21 19 17 14 11 9 9 8 7 6 6 6 6 7 7 7 9 9 9 9 11 11 12 16 19 18 17 18
9 6 6 13 5 6 12 3 2 12 12 10 12 14 25 23 20 18 15 13 12 11 12 10 6 4 4 6 6 8 9 8 7 7 6 7 8 12 14 14 13 14 16 17
2 9 16 21 18 14 19 18 13 14 15 6 9 13 18 18 18 18 16 15 15 14 13 11 9 7 6 8 5 4 5 5 5 6 7 9 10 10 10 11 13 13 11 9
6 7 12 26 26 20 20 19 18 19 12 4 5 13 15 17 16 18 18 17 16 15 14 13 11 10 9 7 4 5 5 5 6 8 10 12 12 12 12 12 8 3 3 6
6 13 5 13 19 9 19 18 25 16 20 9 6 15 19 22 22 21 21 20 19 17 16 17 14 13 12 11 8 6 8 10 11 11 12 11 8 6 3 6 10 13 13 10
4 19 22 31 22 10 15 9 11 16 17 16 11 6 15 26 24 24 23 23 22 21 21 21 19 18 15 14 13 13 15 16 11 7 3 2 5 7 7 7 7 9 10 12
21 22 18 20 7 6 8 6 5 12 12 18 19 25 32 28 25 24 24 24 25 25 24 23 22 21 19 17 14 11 6 5 2 0 1 3 4 5 6 7 8 10 12 12
28 22 23 21 8 8 9 5 14 11 11 20 27 29 29 30 27 28 29 30 30 30 29 25 22 19 12 8 5 4 3 2 2 2 2 3 5 6 7 8 9 10 10 11
15 15 9 13 12 11 10 14 14 20 20 24 27 28 30 34 35 34 33 31 28 27 22 18 16 14 8 6 6 7 6 5 3 3 3 5 7 8 9 10 11 11 12 12
13 13 16 16 15 13 13 16 17 22 24 25 28 30 32 35 36 34 30 25 23 23 19 16 17 14 12 10 8 8 7 6 6 6 7 9 10 10 11 11 12 12 13 14
15 21 23 21 22 20 20 21 23 25 27 29 31 33 35 33 34 31 27 24 23 23 20 18 15 12 11 10 9 8 8 8 8 9 10 10 11 12 13 13 13 13 13 14
6 14 21 23 22 24 26 28 29 31 34 36 37 36 33 32 30 29 26 24 23 22 20 15 13 11 10 11 10 10 9 9 10 10 11 12 13 14 15 15 16 16 17 18
14 19 23 26 26 28 32 32 34 37 36 36 36 36 35 32 30 28 24 25 23 21 16 13 10 9 10 10 11 11 11 11 12 12 13 14 14 15 16 16 17 18 18 18
25 25 28 31 34 33 33 35 36 37 35 32 33 35 35 31 27 24 23 24 21 16 13 10 9 10 10 11 11 12 13 14 15 15 15 15 15 16 16 16 16 17 19 19
27 30 33 34 35 37 35 35 35 36 35 34 34 33 31 28 24 23 21 20 18 11 10 10 11 11 10 11 13 14 14 15 14 14 15 16 16 16 17 18 19 18 18 18
32 34 36 38 39 40 39 38 37 37 37 34 32 29 27 26 21 19 22 16 12 11 11 12 12 11 12 13 14 14 14 14 15 15 15 16 17 17 18 19 19 20 21 22
36 35 39 41 41 41 42 37 36 33 32 29 26 22 19 20 21 17 17 13 10 9 10 12 12 13 14 14 14 13 13 14 15 16 16 16 17 18 19 20 21 22 22 23
40 41 42 42 41 39 37 35 34 31 29 28 24 21 17 16 14 17 12 11 9 9 10 11 12 13 13 13 13 14 15 15 15 16 16 17 17 18 19 20 21 22 23 24
39 39 38 37 37 35 33 30 30 27 25 25 23 20 19 16 15 13 10 9 8 9 10 11 11 12 12 13 13 13 13 14 15 16 16 16 17 18 19 20 21 22 23 24
36 35 34 32 28 27 26 25 25 24 20 19 22 18 15 13 11 10 8 8 8 9 9 9 10 11 11 11 12 13 13 14 14 15 15 16 17 18 19 21 22 23 22 22

GFSNGP_850_spd_090.txt.gz
Wind_Speed
12 16 16 27 23 15 17 12 10 6 12 10 10 9 14 26 17 13 14 10 17 23 23 24 26 26 27 27 28 31 35 41 45 50 50 49 48 47 47 45 43 42 42 43
12 14 18 22 21 14 9 5 4 5 6 7 11 14 8 17 19 17 19 17 19 25 25 27 28 27 28 29 30 31 31 32 34 39 42 44 45 44 42 41 41 39 37 36
5 5 15 8 22 20 10 6 8 7 8 4 6 7 13 27 32 29 27 21 27 26 26 25 28 30 32 30 29 30 30 30 30 29 30 31 31 33 33 32 30 28 26 32
3 4 5 7 6 16 14 10 9 6 6 7 8 21 30 26 28 31 29 29 27 23 21 24 24 23 22 23 24 24 25 26 24 24 24 24 24 23 21 20 20 25 25 26
2 3 7 12 7 3 7 15 11 13 9 9 16 8 17 19 28 30 25 20 20 19 17 14 12 11 11 12 12 12 14 15 16 14 11 11 12 14 17 18 19 21 24 21
2 3 5 6 7 22 2 6 6 8 9 9 7 1 7 13 14 16 13 15 19 14 13 9 6 4 3 3 2 4 5 5 5 4 5 5 7 8 11 12 15 14 13 14
11 5 7 9 4 22 4 5 3 6 11 8 4 9 21 7 9 11 16 20 20 16 12 9 7 4 5 7 10 10 9 7 6 6 5 4 6 7 9 10 11 11 13 13
6 5 5 8 4 2 4 14 7 14 18 9 5 5 13 8 12 17 18 17 16 16 15 13 10 7 11 11 10 7 6 5 3 1 1 3 5 6 7 7 9 11 14 13
6 5 7 5 8 19 18 12 16 21 21 20 6 17 25 10 13 17 19 19 17 16 17 16 13 8 11 11 7 5 4 5 4 3 3 2 2 3 5 8 10 11 12 10
1 7 14 17 15 19 22 17 16 20 20 23 16 4 12 17 19 20 20 19 16 16 17 17 14 14 14 12 9 7 5 7 5 3 4 5 5 6 6 6 5 5 4 3
6 14 18 15 11 18 9 3 12 10 16 14 16 7 17 20 19 18 18 18 15 13 19 19 17 17 16 13 10 10 12 11 10 9 9 8 8 9 8 10 7 4 3 4
5 11 8 14 21 22 14 11 7 13 15 10 9 7 14 17 19 18 18 19 15 15 19 21 18 17 15 13 10 10 13 14 13 11 11 10 9 7 5 4 6 7 7 7
12 19 21 26 14 9 4 2 9 10 6 15 13 15 12 13 12 18 21 20 21 20 20 20 19 18 16 14 13 14 15 14 11 9 8 7 7 6 7 8 9 9 9 11
19 24 20 18 12 10 1 5 8 14 11 7 13 18 22 25 24 20 21 23 23 22 22 23 24 25 21 18 15 13 11 11 9 8 8 7 7 8 7 8 8 9 10 8
26 24 22 22 13 6 10 15 13 20 15 16 14 17 19 26 25 27 27 26 27 28 27 25 24 23 16 12 10 10 10 10 10 10 10 10 9 9 9 9 9 8 7 7
9 14 15 13 11 11 12 14 14 14 20 16 21 24 26 29 32 32 33 33 29 28 24 21 21 18 13 11 12 12 12 12 10 10 10 10 10 11 11 11 11 11 12 13
10 15 15 16 15 15 12 11 15 18 21 23 27 30 31 34 36 36 34 29 27 26 22 19 21 17 15 13 12 13 12 11 11 10 11 12 12 12 12 13 13 14 14 15
12 18 18 19 18 17 17 17 20 23 25 29 33 36 38 36 37 34 31 28 27 26 23 21 18 16 15 15 13 13 12 12 11 12 12 12 13 13 13 13 13 14 14 16
9 9 12 16 17 20 23 26 27 28 32 35 38 40 38 36 35 34 30 28 26 26 24 19 17 15 15 15 13 12 12 11 11 12 12 13 13 13 13 14 15 15 16 17
5 8 14 20 21 23 30 31 34 37 38 40 40 40 39 35 31 30 26 28 26 24 19 16 13 13 13 13 12 12 11 11 12 13 13 14 14 15 16 15 16 16 16 17
12 15 19 26 29 29 32 35 40 41 38 36 36 37 38 35 31 28 26 28 23 17 15 13 12 13 12 11 11 12 13 14 14 15 15 15 14 14 14 15 16 17 18 19
19 24 28 32 35 37 37 37 38 41 39 38 37 36 35 32 27 26 24 23 20 13 12 12 13 12 12 12 13 14 15 15 15 14 13 13 14 16 17 18 18 18 19 20
26 30 33 36 37 39 38 37 36 37 38 37 35 33 31 29 25 24 26 20 16 12 12 13 14 13 13 13 15 15 14 13 13 14 15 16 17 17 18 18 20 21 22 23
31 34 38 41 41 42 44 40 39 37 35 32 30 26 24 25 25 22 21 17 14 12 13 14 13 14 14 14 13 13 13 13 15 16 16 16 16 17 18 20 21 22 23 24
35 37 38 41 43 43 41 38 37 34 32 30 27 25 21 18 17 21 16 15 13 12 13 14 13 12 11 12 12 12 14 15 16 16 15 16 17 19 20 20 21 22 23 23
36 37 37 38 39 38 37 34 34 30 28 28 25 22 21 19 18 17 15 14 13 13 12 12 11 11 11 11 13 14 15 15 15 14 15 17 17 18 19 20 21 22 22 21
36 36 36 35 33 31 30 28 28 28 24 22 25 21 18 17 15 14 13 12 12 11 10 10 10 10 11 12 13 13 13 13 14 15 16 16 17 19 20 21 22 22 21 21

GFSNGP_850_spd_093.txt.gz
Wind_Speed
13 13 18 14 17 21 20 19 13 10 16 16 15 13 15 18 17 13 12 14 12 18 18 20 21 20 19 20 22 24 30 35 39 38 39 39 38 35 34 34 35 35 36 39
10 14 17 17 22 22 24 21 22 21 20 10 17 14 13 18 15 17 19 22 18 17 19 20 20 20 20 22 23 23 23 25 27 30 34 37 36 36 35 34 34 34 32 30
4 8 11 12 11 15 15 19 18 16 14 6 7 8 12 15 17 20 25 28 21 22 23 24 24 22 22 23 20 19 20 19 20 20 20 22 23 24 24 23 21 22 22 25
5 6 8 4 6 9 13 20 19 17 8 9 10 13 14 18 21 27 27 29 32 28 23 22 22 22 20 19 18 17 17 16 15 14 15 15 14 15 15 16 17 19 24 28
4 6 11 12 2 3 6 23 16 18 15 13 17 10 18 25 19 24 26 23 19 20 21 20 17 14 11 10 10 10 10 11 10 10 10 10 11 12 13 15 18 20 19 15
4 5 6 1 4 4 5 12 14 8 10 14 14 10 11 7 8 11 14 11 14 14 18 17 16 15 14 13 11 10 9 8 8 8 9 10 11 11 11 10 8 8 10 11
11 8 7 8 1 2 3 5 22 14 18 15 8 9 8 5 6 5 3 13 20 23 24 24 21 19 20 20 19 16 14 12 10 10 9 8 6 4 1 3 4 4 6 6
8 6 10 3 2 3 6 20 22 17 14 17 7 9 14 14 18 14 15 19 22 27 28 25 21 19 26 25 20 17 16 16 14 11 9 8 5 4 2 2 3 5 6 7
6 5 11 23 13 21 19 15 24 12 9 15 11 6 18 19 17 17 19 23 26 32 34 31 28 20 25 25 19 15 15 15 13 11 9 7 5 6 6 6 5 7 6 7
3 2 10 24 31 21 20 21 7 8 4 17 13 13 17 20 19 20 23 24 25 27 32 31 27 24 25 21 19 14 13 14 14 11 13 12 12 10 10 11 10 10 8 7
6 9 9 7 14 27 33 18 9 3 1 7 11 14 15 22 22 25 25 25 24 25 28 30 26 25 20 17 16 18 19 18 17 15 16 15 15 16 14 14 10 8 7 6
7 13 12 17 22 27 21 11 5 5 7 12 8 16 16 20 23 26 26 25 27 29 29 28 25 23 20 19 17 18 20 20 18 16 15 15 14 14 12 11 9 8 7 5
19 27 20 26 23 14 17 9 6 10 6 14 18 17 17 21 21 21 24 27 28 30 29 29 28 24 20 19 18 18 19 18 16 14 13 12 12 11 10 11 10 8 8 6
23 19 16 20 18 22 12 6 11 17 14 11 12 18 23 27 26 26 27 27 28 29 29 29 29 27 24 20 17 17 16 15 13 13 12 12 11 11 10 9 8 8 7 5
34 26 24 26 19 14 7 12 8 17 19 18 12 21 22 26 28 29 32 33 33 34 33 30 29 28 19 15 15 16 15 15 14 14 13 12 11 10 9 8 8 6 4 4
15 12 12 17 10 9 10 10 12 16 19 23 26 24 28 30 35 36 37 36 35 34 31 29 27 24 19 16 16 17 17 15 14 14 13 12 12 11 10 9 9 9 10 13
15 15 14 16 11 11 11 12 12 12 20 24 24 28 32 36 38 38 36 33 34 33 29 26 27 22 20 17 16 17 16 14 13 12 12 12 11 11 12 11 11 12 13 15
13 15 16 17 16 12 10 9 14 18 25 29 33 36 38 39 41 38 37 34 33 32 28 26 23 21 19 17 15 15 13 13 12 13 13 13 13 13 13 12 12 12 12 13
9 10 9 7 13 14 15 17 20 25 30 34 39 41 40 40 39 38 34 32 31 31 28 22 19 17 17 16 13 13 13 13 14 14 14 13 13 14 13 13 14 13 13 13
8 7 6 9 13 16 21 22 28 33 36 40 42 44 43 41 37 35 32 33 30 29 23 19 16 16 16 15 13 14 14 14 14 15 14 14 14 14 14 14 13 12 12 13
4 7 10 15 19 21 25 31 34 38 39 39 41 42 40 38 33 32 31 33 27 22 19 17 16 16 16 15 14 14 14 15 15 15 15 15 14 14 13 12 12 13 14 15
10 13 17 21 26 31 31 34 37 41 41 41 40 40 38 36 32 30 28 28 24 18 17 17 16 16 15 14 15 15 15 15 15 15 14 14 13 12 12 13 14 15 15 16
17 21 24 27 32 36 37 38 39 40 41 40 40 37 35 34 30 30 30 24 20 16 16 17 17 16 15 15 15 15 15 14 14 14 13 12 12 13 14 14 15 15 16 16
25 28 31 34 37 39 42 41 42 41 40 37 35 32 30 29 28 26 26 22 18 16 17 18 16 15 14 15 14 14 13 13 12 12 12 13 13 14 14 14 15 16 17 17
30 34 36 37 39 38 40 41 40 38 37 34 31 28 25 22 23 26 22 21 18 16 16 16 15 15 14 13 13 12 12 11 11 12 12 12 12 13 14 15 16 17 18 17
33 35 35 37 39 39 38 37 37 33 32 32 28 26 25 24 23 22 20 19 17 15 15 15 13 12 11 11 10 9 9 10 11 11 11 11 12 14 15 17 18 18 18 17
33 35 36 36 34 33 32 32 31 30 28 28 30 25 23 22 20 19 18 17 15 14 13 12 11 10 9 8 8 9 9 9 9 9 9 11 13 15 16 17 18 19 18 17

GFSNGP_850_spd_096.txt.gz
Wind_Speed
14 19 18 17 18 17 16 14 14 15 19 13 14 19 19 19 15 11 11 9 11 16 20 21 22 23 25 24 26 28 29 29 28 28 27 27 27 28 28 28 29 28 26 27
14 16 18 20 21 21 21 19 21 22 27 20 23 23 26 25 27 24 16 15 12 13 17 20 22 22 23 23 23 24 25 24 23 23 24 25 25 25 26 27 28 28 27 26
11 5 12 15 22 22 22 20 17 19 20 18 20 22 24 21 20 21 20 19 16 15 16 17 19 20 20 21 21 21 20 19 19 19 20 21 20 20 21 23 21 21 21 22
6 9 9 7 3 14 18 15 10 14 18 21 17 25 27 24 18 14 13 15 16 20 17 17 15 17 17 18 18 18 16 15 14 14 13 12 13 14 16 20 20 23 23 23
4 9 16 18 8 10 12 10 5 11 11 14 25 24 25 22 17 14 13 11 9 11 13 19 16 17 16 17 16 18 19 17 15 15 15 15 15 16 17 17 17 16 15 14
8 7 5 4 12 6 8 13 8 10 13 14 15 14 14 16 8 8 5 2 3 9 12 14 16 19 21 23 23 21 18 17 16 14 13 13 13 12 11 9 9 8 6 3
13 11 8 15 13 12 8 6 19 21 21 21 13 15 5 5 7 5 5 5 9 13 17 21 21 25 28 28 28 26 24 22 20 18 16 14 13 11 9 8 7 5 4 4
6 7 13 7 6 6 12 25 24 22 24 26 20 5 3 6 9 12 16 18 20 24 27 27 26 29 33 32 30 28 25 24 23 21 18 14 10 9 8 6 6 7 7 8
7 5 13 14 5 19 23 24 25 18 30 20 8 2 8 13 18 21 25 30 30 34 33 31 33 30 33 33 29 28 26 23 21 18 16 14 12 12 11 9 9 10 8 9
5 7 13 3 19 25 17 23 19 20 23 12 4 7 11 11 19 25 25 28 28 29 31 34 31 31 33 30 28 26 26 23 22 20 20 18 16 14 14 13 12 11 10 9
9 11 14 13 13 17 22 20 15 11 15 7 8 14 17 14 13 26 31 28 32 34 34 33 30 30 28 26 25 28 28 26 24 22 21 19 19 18 15 14 11 9 8 6
11 14 15 15 19 19 22 19 17 11 2 6 7 13 19 22 19 21 33 29 31 31 33 32 30 29 28 27 26 26 27 25 24 23 21 19 18 17 14 11 8 6 5 5
17 20 18 17 17 18 13 13 10 5 4 5 11 13 19 23 23 21 26 32 32 34 34 34 33 32 29 28 26 27 24 23 21 19 18 16 15 14 13 11 9 7 6 4
28 27 23 22 18 11 9 11 4 4 6 5 9 17 22 26 24 20 25 30 34 35 35 34 34 33 28 24 21 23 23 20 18 17 17 15 15 13 11 10 8 7 6 7
29 22 22 20 15 11 5 4 5 7 10 9 9 18 22 27 30 31 27 28 30 34 35 35 34 32 26 23 22 22 19 19 19 18 16 14 13 12 10 9 8 8 7 8
21 11 11 13 10 6 4 6 8 9 11 15 16 17 21 26 32 33 33 34 37 37 33 31 32 29 24 21 21 21 21 19 17 17 15 13 12 10 9 8 8 6 6 8
17 18 14 7 5 6 7 7 9 14 15 17 18 20 26 30 33 34 35 35 36 35 32 28 30 25 22 20 19 19 18 17 15 14 13 12 11 10 10 9 8 7 7 9
11 10 11 10 8 8 9 10 12 15 17 20 23 27 31 35 38 37 35 33 31 31 30 27 25 23 21 18 17 16 15 15 14 13 13 12 12 11 10 9 9 7 6 7
10 9 9 8 8 11 12 14 15 17 21 25 29 33 35 37 39 38 36 32 31 31 28 24 21 19 18 17 15 14 14 14 14 15 14 14 13 12 11 10 8 7 6 7
7 4 3 5 8 12 16 16 19 24 27 31 35 38 38 39 39 38 34 31 28 29 24 21 18 18 17 16 15 15 15 15 15 15 14 13 13 12 10 9 8 7 8 8
2 2 4 7 11 13 16 20 25 29 32 36 41 42 39 35 34 32 32 32 27 24 22 19 18 18 17 16 16 16 15 15 15 15 14 13 12 10 9 8 8 7 8 9
2 5 8 12 15 19 21 25 29 35 37 38 39 40 38 35 31 29 28 28 25 21 20 19 18 18 17 16 16 16 16 15 15 14 12 11 9 9 8 7 7 8 9 10
8 11 15 17 21 26 27 29 33 37 40 40 40 38 35 32 28 29 28 24 21 19 20 20 20 18 16 16 16 16 15 13 13 11 10 9 9 8 7 8 8 9 10 11
14 15 18 21 24 28 34 33 37 39 40 38 36 33 30 28 25 24 26 23 20 19 20 20 19 17 15 15 14 13 12 11 10 9 8 8 7 7 8 9 10 11 11 11
19 23 26 28 31 33 36 36 38 36 36 35 31 27 25 24 26 26 24 22 19 19 20 19 17 15 13 12 12 11 10 9 8 7 7 6 7 8 10 10 11 12 12 12
21 22 25 27 32 35 37 37 38 35 33 32 28 25 25 25 25 24 22 21 18 17 17 16 14 12 11 10 9 8 7 6 6 5 5 6 8 8 9 11 12 13 14 13
25 28 30 32 32 33 35 35 34 32 28 28 30 27 25 23 22 21 20 18 16 15 14 12 11 9 8 7 6 5 5 4 4 4 5 6 7 8 10 12 13 14 14 14

GFSNGP_850_spd_099.txt.gz
Wind_Speed
17 23 17 15 17 15 16 16 15 15 16 15 14 12 14 21 20 22 10 7 11 17 21 24 26 25 25 25 24 26 26 26 26 24 23 23 23 23 23 25 25 23 23 23
19 19 20 22 23 22 22 20 20 19 21 17 21 27 31 25 22 21 22 16 12 14 19 21 22 23 24 25 26 25 26 26 24 23 22 23 22 22 21 21 21 20 20 20
14 16 20 20 23 24 25 23 20 20 19 16 16 19 23 34 30 27 22 21 18 14 15 18 20 20 22 23 24 24 24 23 23 22 22 21 19 19 19 18 17 23 26 26
7 9 12 14 14 12 14 17 20 22 22 15 19 27 32 30 30 30 23 16 14 12 8 12 15 18 19 20 21 22 22 21 20 20 19 18 19 23 24 24 25 25 26 27
7 9 15 17 12 13 10 11 8 8 7 13 22 20 26 25 27 29 10 5 7 6 7 12 14 17 19 20 20 19 18 18 18 19 25 27 25 25 23 22 22 22 20 18
6 9 10 8 10 14 15 10 14 14 11 13 15 10 9 18 15 1 1 1 4 3 7 8 11 15 19 21 26 31 32 28 28 28 26 24 21 20 20 18 17 14 12 9
13 9 8 14 16 14 9 4 19 21 18 15 11 12 31 13 10 4 2 4 5 8 12 16 21 27 33 31 31 30 29 24 22 23 22 21 20 19 17 16 16 16 14 14
10 5 9 4 8 5 9 15 19 25 25 15 16 24 12 9 6 1 4 6 7 10 14 15 15 20 26 30 29 30 30 27 26 27 27 25 23 23 20 19 18 16 14 14
7 4 3 11 5 3 9 17 25 27 30 12 21 25 2 1 0 3 6 11 15 21 24 25 25 28 35 35 34 35 37 33 29 30 29 26 22 22 21 18 16 16 13 13
6 6 6 11 3 4 14 23 26 26 26 15 23 15 5 5 4 5 8 14 19 23 26 30 32 34 37 37 35 36 39 34 28 28 27 26 25 23 21 17 16 15 13 10
9 8 11 5 4 6 14 19 22 16 25 19 22 10 7 9 10 11 12 17 24 28 32 35 34 35 32 33 32 33 35 31 27 27 26 29 27 22 18 17 14 12 11 8
7 11 10 13 14 13 17 18 13 13 12 5 4 3 7 11 13 15 18 20 29 33 35 33 31 31 29 27 28 30 32 29 26 26 25 23 23 24 20 15 10 9 8 6
12 17 15 18 17 18 19 12 8 6 3 2 3 5 7 10 14 19 24 24 27 33 33 34 34 32 28 27 27 29 31 30 26 23 22 21 20 17 18 15 10 9 7 6
23 23 23 19 16 14 13 7 3 4 5 3 3 7 9 12 14 17 21 26 28 30 35 36 34 34 32 30 29 29 28 26 24 22 21 19 17 16 13 12 11 10 9 10
20 17 17 15 10 12 7 5 2 3 5 6 8 9 14 18 19 20 20 19 22 24 31 34 36 35 31 28 26 25 24 23 22 21 20 19 16 15 13 12 11 11 9 12
15 15 17 15 11 9 4 5 4 4 5 7 14 17 17 20 24 27 28 30 35 35 33 32 31 27 23 20 22 24 25 22 20 20 18 17 15 14 13 11 9 8 7 8
19 19 16 15 5 5 4 2 4 7 8 11 14 17 19 22 26 29 33 34 34 33 31 29 29 25 22 21 21 22 21 19 18 17 16 15 14 13 12 11 10 9 10 10
10 13 15 13 12 8 4 5 7 8 11 13 15 18 24 28 30 31 31 31 30 30 27 25 24 22 19 18 19 19 18 17 16 16 15 14 14 13 13 11 10 9 8 9
9 11 10 9 7 6 8 10 11 12 13 16 20 25 28 33 36 35 32 31 29 28 25 22 21 19 18 18 17 17 17 16 15 15 15 14 14 13 12 10 9 8 7 7
8 7 4 2 3 7 13 12 11 14 17 22 25 29 34 36 36 34 30 29 24 24 22 20 18 18 17 16 15 16 16 15 15 15 14 13 13 12 11 9 8 7 6 6
5 4 4 5 5 7 7 12 14 17 22 26 31 35 35 34 32 30 28 29 21 19 19 18 17 17 17 15 14 15 15 16 15 14 13 13 11 10 8 8 7 6 6 6
3 1 3 5 8 11 12 14 18 23 27 29 33 38 37 33 29 28 27 27 24 18 16 16 17 17 17 15 15 15 14 14 14 13 12 11 9 8 6 6 5 5 6 7
4 5 7 9 12 16 18 19 22 25 28 32 36 35 32 29 26 28 28 22 20 18 17 18 17 15 14 14 14 14 12 13 13 11 10 9 8 6 5 5 5 6 7 8
8 8 10 13 16 20 25 26 28 31 34 33 33 29 28 29 26 24 24 22 20 18 19 19 16 14 13 13 13 12 11 10 10 9 8 7 6 5 5 6 7 8 9 10
12 14 15 18 18 21 25 28 32 33 33 30 28 25 25 23 23 25 22 21 19 18 18 17 14 12 12 11 10 10 8 8 7 6 6 5 5 4 6 7 8 10 10 10
12 13 14 16 19 22 23 28 35 32 31 29 26 23 22 24 25 24 22 21 19 18 16 14 12 11 10 8 7 7 6 5 4 4 3 3 4 5 6 8 9 11 11 11
15 16 17 18 18 22 25 28 30 28 26 25 25 23 23 22 22 22 20 19 16 14 13 11 10 8 7 6 5 4 3 3 2 2 2 3 5 6 7 9 10 11 12 12

GFSNGP_850_spd_102.txt.gz
Wind_Speed
23 26 18 18 15 18 20 16 10 13 15 13 8 7 14 21 19 17 16 14 14 17 22 28 29 29 28 28 31 30 30 28 27 25 26 27 27 26 27 29 29 29 29 27
23 23 24 22 22 18 22 22 19 17 17 14 14 19 16 17 17 21 23 24 25 8 19 24 29 31 29 29 28 33 30 30 28 27 26 27 26 25 25 24 25 23 23 26
18 20 23 22 20 20 21 21 18 17 15 16 18 15 13 18 21 21 20 29 32 13 13 23 26 29 30 30 27 24 31 28 27 27 27 26 25 24 23 23 27 28 28 27
7 12 14 17 16 19 19 18 18 18 19 20 18 22 17 24 22 27 22 25 26 14 10 9 24 26 26 28 27 25 23 26 25 25 24 22 25 30 28 28 28 28 27 27
5 8 14 14 8 7 6 2 16 15 16 18 17 15 9 22 31 29 22 9 1 4 7 7 8 20 22 25 25 25 23 22 22 24 31 32 30 29 29 30 28 25 22 20
6 10 12 10 7 9 7 7 12 11 12 17 15 7 7 31 24 22 20 17 11 4 5 8 8 15 19 22 24 28 32 35 36 35 33 31 29 27 26 25 25 21 19 14
12 6 7 13 9 7 6 3 16 14 14 18 15 13 20 24 15 14 15 12 9 5 10 13 16 19 30 32 37 33 30 31 31 30 29 25 25 24 24 24 24 22 20 20
8 7 11 5 11 5 4 8 8 14 17 23 22 20 19 18 12 14 12 10 3 4 5 9 12 18 25 27 27 29 29 29 30 29 28 25 23 24 24 24 26 26 24 22
6 4 3 10 5 3 3 7 10 14 19 22 22 19 17 15 19 15 8 8 7 6 6 8 11 14 23 26 28 31 31 29 28 30 30 31 31 29 29 25 23 23 20 18
9 15 4 10 7 3 5 8 14 16 21 21 23 15 22 7 7 7 4 3 5 7 8 10 14 20 22 28 31 33 32 37 38 39 38 37 38 30 27 23 20 18 17 16
5 11 10 8 14 11 7 12 18 15 11 19 16 5 6 4 1 1 4 6 8 11 16 20 22 27 29 31 35 40 40 39 37 35 33 31 33 28 24 21 15 16 16 14
5 6 4 11 13 12 9 14 5 7 10 7 8 3 2 3 4 5 9 17 21 21 23 25 26 28 30 31 34 38 39 37 36 34 34 30 30 31 23 19 15 13 15 12
9 15 15 15 18 15 15 5 8 8 1 5 6 5 4 2 6 10 19 23 25 28 30 31 29 32 27 30 32 34 36 36 33 30 29 26 24 23 24 20 16 15 14 12
19 19 18 18 19 13 9 6 6 4 4 4 3 1 2 6 10 12 16 19 23 27 31 32 31 30 27 30 33 35 36 32 28 26 25 24 22 20 18 17 17 19 17 16
11 13 10 11 15 10 6 4 6 5 5 3 3 5 5 12 17 19 19 18 19 22 24 28 32 32 29 29 29 29 29 29 27 25 24 22 22 21 19 18 17 17 16 18
19 14 13 15 20 12 5 5 7 4 3 2 6 8 11 15 19 22 23 24 27 31 30 31 32 29 26 24 24 25 25 25 25 25 24 21 18 17 15 14 13 13 13 14
14 13 12 14 18 13 10 3 3 5 4 6 9 13 15 19 22 27 30 31 33 34 32 29 29 24 22 21 22 25 25 23 22 22 21 20 17 15 14 14 16 15 15 11
9 9 8 10 13 14 13 5 7 5 5 8 12 15 20 23 26 29 32 31 29 29 26 25 24 23 22 20 19 22 23 22 20 20 19 18 17 16 16 15 13 12 12 11
10 10 10 7 7 9 9 10 6 6 9 13 17 21 24 28 31 32 32 33 30 29 25 22 22 21 20 19 19 19 19 19 19 20 19 19 17 16 15 14 12 10 8 7
10 9 7 6 4 5 7 4 4 9 12 16 20 25 30 32 32 31 29 30 27 26 23 22 21 21 20 19 18 18 18 18 18 19 18 18 17 15 13 13 10 8 8 7
10 9 7 5 1 3 4 5 8 13 17 21 25 29 31 30 29 28 26 28 24 23 21 19 19 20 19 18 18 18 18 18 18 17 17 16 14 13 11 9 8 7 6 5
9 7 5 2 2 6 8 10 12 17 20 23 26 31 33 31 28 27 25 26 24 20 19 18 19 18 18 16 17 16 16 16 16 15 14 13 12 10 9 7 6 4 4 4
7 5 3 4 5 8 11 13 16 19 24 26 30 31 30 28 25 26 27 22 19 18 19 20 18 16 15 15 15 14 14 13 13 12 11 10 9 7 7 4 4 4 5 6
5 6 8 10 11 14 19 21 23 25 28 30 30 29 28 28 26 21 23 21 19 19 19 18 16 15 14 14 14 13 12 11 10 9 9 8 7 5 4 4 5 6 6 6
9 10 10 12 14 17 21 22 24 26 28 28 26 24 23 21 24 25 21 21 19 18 18 16 13 13 13 12 10 10 9 8 8 7 6 5 4 4 4 4 5 6 6 7
10 10 10 11 15 16 19 19 25 27 27 27 25 23 23 23 23 22 22 21 19 17 15 13 11 11 11 10 9 9 7 6 5 4 3 2 1 2 3 5 6 7 8 9
12 13 15 16 15 15 17 22 25 24 24 24 26 23 22 22 22 20 19 18 16 14 12 11 10 9 8 7 6 6 5 3 2 1 1 2 3 4 5 6 7 8 9 10

GFSNGP_850_spd_105.txt.gz
Wind_Speed
14 18 19 19 22 18 14 5 5 7 12 14 7 6 8 24 30 22 17 23 17 12 11 40 38 35 29 28 33 31 29 28 30 29 30 26 25 24 25 27 25 24 23 22
14 16 21 21 23 20 17 15 9 14 15 12 9 12 14 17 18 17 22 23 21 11 10 16 39 38 33 31 33 35 33 29 27 27 32 32 28 27 28 24 24 27 29 31
17 14 19 17 12 15 18 15 9 14 17 13 12 10 13 17 20 24 27 28 28 14 16 24 36 40 37 34 31 35 34 32 29 26 27 30 28 25 26 32 32 31 31 32
7 5 13 13 13 17 16 16 11 9 10 13 15 13 24 25 23 25 26 28 27 26 14 20 24 36 39 34 32 34 37 32 29 28 27 26 30 33 32 33 33 32 31 31
5 5 10 14 4 8 5 6 11 8 11 14 28 12 15 29 20 21 23 25 26 23 14 2 19 33 24 34 32 32 34 36 34 31 35 37 35 34 33 33 31 28 25 23
3 4 5 3 8 17 6 2 8 9 11 14 19 9 7 23 20 22 23 25 25 22 18 8 16 18 26 30 29 34 34 38 38 40 39 37 37 36 34 30 29 26 25 21
7 4 7 9 6 8 2 2 3 7 9 11 7 9 25 20 20 17 19 24 20 18 17 12 7 26 36 35 36 34 34 36 37 37 37 33 33 33 32 31 29 27 25 23
4 2 8 8 5 1 3 5 4 5 9 11 16 25 20 19 17 18 16 18 19 16 14 12 6 7 26 31 30 30 31 33 35 37 37 34 33 32 32 32 33 32 29 28
7 6 3 8 7 4 6 2 4 8 12 11 16 18 16 9 14 14 13 13 12 12 12 12 7 3 14 21 24 27 27 30 34 37 39 38 40 39 38 38 36 35 32 28
4 5 6 12 12 6 2 5 3 10 8 11 14 12 8 11 13 14 13 10 9 6 4 4 2 6 10 18 24 28 32 34 36 38 39 39 39 38 37 35 33 31 28 27
4 0 1 8 2 6 12 14 8 3 5 12 10 8 8 10 12 12 10 6 4 1 4 6 9 13 16 20 26 34 37 39 41 43 42 42 40 34 34 29 26 26 25 23
2 7 5 16 20 19 18 8 7 2 2 8 9 9 9 9 7 5 2 9 12 12 9 10 12 16 20 24 28 33 37 40 42 43 43 41 42 39 31 29 26 24 22 16
5 11 15 15 11 15 8 10 7 3 4 6 7 6 3 3 2 3 10 13 17 19 22 23 21 21 21 24 29 37 42 42 41 41 41 39 36 34 34 29 25 21 17 14
21 24 9 16 14 19 4 9 6 9 9 7 5 4 5 5 8 10 12 14 17 21 24 24 23 23 22 28 32 35 37 35 35 36 34 31 30 29 27 24 23 23 20 18
17 13 8 15 18 9 3 1 5 6 7 7 5 6 7 9 12 15 17 20 20 20 21 20 25 28 28 32 32 33 34 34 32 31 29 28 25 24 25 25 25 25 21 18
14 13 12 10 14 17 15 3 3 5 6 6 5 8 11 13 17 20 22 23 25 28 28 28 30 29 29 29 31 31 29 28 26 27 25 24 23 23 22 21 21 20 18 16
17 19 16 14 14 15 11 5 4 2 2 3 6 10 15 16 18 20 21 24 27 30 30 29 30 27 26 26 26 29 29 27 25 24 24 22 21 21 21 21 21 19 16 12
8 6 7 8 10 10 6 5 6 4 4 4 7 13 16 18 22 25 26 27 28 29 27 26 25 25 25 24 23 23 22 22 22 23 23 22 22 22 22 20 18 16 14 11
11 9 8 8 9 7 3 5 4 2 6 9 12 16 18 22 26 27 28 29 28 28 24 23 24 23 22 19 18 19 20 21 22 22 21 21 20 18 17 16 15 13 11 9
12 9 8 7 4 3 2 2 1 2 6 11 17 22 25 27 27 27 26 26 24 24 21 19 19 20 18 18 17 18 19 20 21 22 21 19 18 18 16 13 11 10 9 7
12 11 8 5 3 1 1 1 2 8 14 16 19 23 26 27 25 25 25 27 24 23 21 20 20 20 20 19 18 18 19 19 19 19 18 17 16 15 13 11 9 8 7 6
11 9 7 5 3 2 3 3 6 11 15 19 21 25 28 29 27 26 23 25 24 21 20 19 19 19 20 19 19 19 19 18 18 17 16 15 13 12 10 9 8 7 5 5
9 7 5 5 4 6 7 8 12 14 18 20 24 27 28 27 25 24 26 22 21 19 17 18 17 17 16 17 17 17 16 15 15 14 13 12 11 9 8 7 7 5 3 3
7 7 8 8 8 10 14 15 16 19 22 24 26 26 26 27 24 21 25 23 20 20 19 19 18 16 16 16 16 15 14 13 12 12 11 10 9 8 6 5 4 4 4 5
6 7 7 7 10 14 16 17 19 20 22 23 23 22 21 21 22 26 23 23 21 19 19 17 15 14 14 14 13 13 11 11 10 9 8 7 6 5 4 3 3 4 5 5
7 7 5 6 10 14 16 17 20 21 22 23 22 20 20 24 25 25 23 22 20 18 16 15 14 13 12 11 11 10 9 8 7 6 4 4 3 3 2 3 3 4 4 5
6 9 11 13 13 11 11 15 20 22 21 22 23 23 24 24 23 21 20 18 16 15 14 13 12 11 11 10 9 8 7 5 4 3 2 3 2 2 2 3 5 6 7 7

GFSNGP_850_spd_108.txt.gz
Wind_Speed
6 6 6 11 15 14 13 12 7 9 15 16 11 6 6 8 21 28 21 13 19 9 16 23 27 30 31 30 30 29 28 29 29 28 27 25 23 24 24 24 21 18 19 20
5 5 10 16 16 14 18 17 16 17 18 9 13 17 8 2 4 13 12 18 19 1 8 18 17 27 31 30 31 31 30 28 30 29 29 27 24 22 23 24 23 21 23 25
9 6 9 12 15 14 17 16 10 15 10 3 5 6 11 10 10 11 14 19 23 24 12 12 11 13 30 32 31 32 32 29 28 28 26 29 25 22 23 27 31 29 29 30
4 2 10 7 6 13 17 15 9 3 5 5 5 13 17 12 14 15 19 22 23 25 25 14 16 20 24 27 30 31 33 32 28 27 28 28 29 31 29 29 29 30 31 30
3 4 12 18 9 2 5 7 7 4 3 5 13 15 9 13 20 20 19 20 22 21 21 23 3 17 13 22 23 27 30 31 28 26 31 34 36 34 34 34 32 32 31 31
2 3 5 4 5 7 12 3 1 2 2 3 8 3 3 12 16 16 17 18 21 22 18 15 3 18 22 24 17 32 34 33 33 34 32 33 34 35 35 33 33 32 30 26
9 3 7 10 9 17 2 2 3 4 4 5 1 2 14 12 14 15 15 16 17 19 17 14 8 6 24 24 26 34 34 32 33 33 34 33 33 35 35 34 34 32 31 27
5 4 9 6 9 2 4 2 2 0 6 12 11 13 8 11 15 17 18 17 15 16 16 12 8 1 12 19 23 25 29 33 33 33 36 37 37 36 36 36 35 33 33 32
6 5 3 6 3 2 4 2 3 5 9 7 10 10 9 8 12 17 18 17 15 14 12 9 6 4 9 16 18 21 26 29 33 35 37 37 37 38 38 39 38 39 38 37
1 4 7 10 5 2 6 9 5 7 2 6 7 9 11 12 14 16 15 15 12 8 7 6 4 4 9 13 15 18 23 28 32 36 38 39 41 40 42 42 42 41 37 38
3 4 10 12 2 15 15 15 9 4 2 2 6 10 9 9 11 11 10 9 8 5 6 7 7 9 10 12 18 25 29 31 34 36 37 38 37 37 38 33 32 33 33 26
3 11 8 15 15 16 14 11 4 7 2 6 6 10 10 9 9 7 4 3 1 5 6 7 8 11 13 15 19 27 30 32 35 36 36 37 38 37 31 32 30 27 27 22
5 16 22 19 5 3 6 7 7 6 7 7 8 6 6 9 10 8 5 5 3 4 4 5 8 11 12 16 21 25 30 35 37 39 39 42 42 41 40 34 31 24 22 20
16 7 12 18 7 7 8 8 6 9 10 10 9 7 7 8 8 7 9 11 11 8 7 6 9 11 9 11 17 25 30 34 36 38 38 38 36 35 33 31 32 30 27 24
12 10 12 15 14 6 3 2 5 8 10 10 8 6 6 6 9 10 12 14 14 14 16 17 19 21 18 20 26 31 33 35 36 36 34 33 32 32 29 27 29 30 28 23
9 7 9 14 12 7 3 4 4 1 3 6 6 4 6 8 10 12 13 14 14 17 19 21 25 27 31 36 38 38 37 34 33 31 31 29 26 26 28 27 27 26 24 21
16 19 18 15 15 11 7 5 6 2 1 3 4 5 8 10 12 13 14 14 16 20 22 23 26 27 28 29 30 30 29 28 27 25 25 26 26 26 26 25 23 22 21 19
9 8 9 9 10 8 9 4 2 2 1 2 4 8 10 12 14 17 18 18 20 23 22 23 23 23 23 23 23 25 25 23 23 24 23 23 24 23 22 21 19 19 19 17
12 11 10 8 6 5 6 4 2 1 1 1 6 11 13 15 17 20 21 21 22 23 20 18 18 19 20 19 18 17 18 21 21 22 23 23 23 23 21 19 17 16 14 13
14 11 9 8 6 4 3 3 3 3 4 7 10 14 17 19 20 21 21 22 21 21 19 18 19 19 18 14 15 18 19 20 21 23 24 24 23 21 18 16 14 14 13 11
13 11 10 8 6 4 2 2 3 6 9 11 13 17 19 21 20 21 21 23 20 19 19 18 17 17 17 16 17 19 20 21 21 22 21 20 19 17 15 13 12 11 10 8
11 8 7 5 4 3 1 1 3 7 10 14 17 20 22 23 22 22 20 20 20 17 18 18 17 16 16 16 17 17 18 17 18 17 16 15 14 13 11 10 9 9 8 6
10 8 5 3 2 1 2 4 7 9 13 15 18 21 22 22 20 20 21 19 19 18 18 16 15 15 15 16 15 15 15 15 15 14 13 13 12 11 10 8 7 7 6 5
10 7 5 3 1 2 5 8 9 11 14 16 18 18 19 21 20 18 20 20 18 17 16 16 15 14 14 14 14 14 13 13 13 12 11 11 10 9 8 6 5 5 4 3
6 6 5 2 2 6 8 9 11 13 14 16 17 16 16 18 18 22 20 19 17 15 16 15 14 13 13 13 12 12 12 11 11 10 9 8 7 6 5 4 4 3 2 1
2 4 4 2 5 7 8 9 12 14 15 17 16 15 16 17 21 22 20 18 15 15 15 15 14 13 12 12 11 11 10 10 9 8 7 6 5 4 3 1 1 1 2 2
1 1 3 5 4 3 5 8 12 15 14 15 17 16 19 21 21 20 18 16 14 13 13 13 12 12 11 11 10 9 9 7 6 6 5 3 2 1 1 2 3 4 5 5

GFSNGP_850_spd_111.txt.gz
Wind_Speed
3 5 3 4 7 3 6 9 6 12 16 17 19 9 8 13 4 11 23 20 27 16 6 8 13 21 26 29 32 32 29 26 27 29 26 23 20 17 17 16 15 15 16 18
4 4 4 8 10 11 11 13 13 17 21 17 19 13 13 6 6 12 17 22 20 22 14 9 6 17 20 27 29 30 29 25 25 27 25 23 21 19 20 19 17 17 19 20
4 1 5 9 10 10 7 10 9 14 16 6 6 9 3 10 6 5 9 17 21 25 24 13 17 14 17 20 27 26 28 25 22 24 24 23 22 20 21 22 22 21 19 19
3 1 6 5 8 9 12 15 15 16 12 3 2 4 13 12 6 9 9 13 15 19 19 17 14 17 22 22 29 25 24 24 24 20 21 22 23 24 24 24 24 23 22 21
2 5 10 13 8 2 6 10 12 8 5 1 2 8 2 10 7 9 9 12 13 17 18 18 14 10 19 24 25 22 9 17 23 22 24 24 26 26 25 24 24 25 24 23
3 3 5 4 4 4 3 10 3 1 1 0 3 3 2 8 7 8 10 12 15 15 16 16 9 3 14 24 27 25 15 10 18 26 27 27 26 27 25 24 25 25 26 26
9 3 7 7 7 9 1 5 12 1 1 3 2 2 5 5 6 10 12 12 12 13 16 16 12 2 12 24 26 25 23 20 16 24 26 27 27 28 26 27 27 26 26 23
4 3 7 2 7 1 2 18 10 1 1 3 3 1 1 5 8 12 16 16 13 12 12 14 12 4 6 15 18 19 21 25 20 23 25 28 30 32 32 33 33 33 32 29
5 5 3 11 6 6 6 13 6 4 4 1 2 1 3 8 9 11 15 14 13 11 9 8 8 5 5 10 12 16 21 21 22 25 27 28 31 32 34 35 35 36 34 33
2 2 9 15 16 7 8 9 15 8 1 3 3 1 4 8 9 11 12 15 12 8 6 5 4 3 1 8 12 16 21 25 30 31 33 33 34 35 34 32 34 31 37 40
2 3 11 8 16 20 25 23 16 10 3 5 1 2 4 6 8 10 9 8 9 7 5 4 4 3 4 4 8 17 22 24 27 30 31 32 32 33 34 33 35 38 31 30
3 8 8 15 25 21 8 7 7 3 4 7 5 4 5 5 6 8 8 7 7 8 7 4 2 3 6 7 10 15 19 23 25 28 28 29 30 30 22 24 27 28 29 26
5 6 12 11 9 7 10 11 10 10 9 8 7 6 7 9 10 9 7 7 8 8 6 4 4 4 4 5 10 15 22 26 26 28 31 34 36 39 43 34 30 26 23 20
19 6 10 16 9 10 11 12 7 9 10 11 10 8 10 11 10 9 9 7 6 6 7 6 7 9 8 6 11 17 21 26 28 31 33 37 38 39 38 37 35 30 22 22
20 14 11 9 11 7 6 7 9 9 9 10 10 10 9 8 9 10 8 6 7 8 10 9 12 13 11 13 17 22 26 31 35 39 41 41 39 38 36 33 31 30 29 26
15 11 11 13 14 11 10 11 10 8 7 8 8 8 7 7 8 8 6 6 5 11 11 11 14 14 16 21 28 32 35 39 40 39 38 36 34 32 31 28 29 27 23 21
15 18 18 17 16 15 14 11 8 5 5 6 7 6 4 5 7 8 9 9 9 12 13 15 18 18 21 23 27 30 31 31 31 31 30 28 25 25 26 27 26 23 21 19
9 9 9 9 11 11 10 9 9 6 5 3 2 2 3 5 8 10 11 12 14 17 16 16 17 18 20 21 23 25 26 26 24 23 24 25 25 25 24 24 23 21 21 19
12 11 11 10 9 9 9 8 5 5 3 2 1 2 5 7 9 12 13 15 16 18 17 14 13 15 18 19 20 20 20 21 23 23 23 23 23 22 21 20 20 18 17 16
13 11 11 10 8 8 7 6 5 4 3 2 3 5 8 10 11 13 13 15 14 16 16 15 15 16 16 14 11 13 17 18 20 21 22 22 21 21 19 18 17 15 14 13
14 13 12 12 10 8 6 6 5 4 3 3 4 8 11 14 14 14 14 15 15 14 14 14 15 16 14 11 11 13 15 17 18 19 20 19 19 18 17 15 14 12 11 11
13 10 9 10 10 9 7 5 3 2 2 5 7 10 13 14 14 14 13 12 14 12 13 14 16 15 11 11 12 14 15 16 17 17 17 17 16 16 15 13 12 11 10 9
12 11 11 9 8 8 6 4 1 1 4 6 9 13 14 15 14 14 15 13 13 13 14 15 13 11 12 13 14 15 15 15 16 16 16 15 14 13 12 11 10 8 7 6
12 12 11 10 8 6 4 2 1 2 4 7 10 11 12 14 14 11 12 14 14 14 14 13 14 14 14 14 14 14 14 14 14 14 14 13 12 11 10 9 8 7 6 5
9 11 11 9 6 3 2 1 3 5 6 9 10 11 11 12 12 16 15 14 13 13 15 15 14 14 12 12 13 13 13 13 12 12 12 11 10 9 8 7 6 4 3 3
8 9 9 6 4 3 1 1 2 6 7 10 11 11 11 12 13 15 15 15 15 13 13 15 13 13 12 12 12 12 11 11 11 10 9 8 7 6 5 4 3 2 2 2
6 6 5 4 3 3 2 2 3 7 7 9 12 12 12 15 16 17 16 15 14 13 13 13 13 12 11 11 11 10 10 9 8 7 7 6 5 4 4 3 3 3 4 5

GFSNGP_850_spd_114.txt.gz
Wind_Speed
4 4 3 3 4 6 7 6 5 13 8 19 12 17 18 27 10 4 10 19 28 32 38 31 17 16 17 18 21 25 24 23 22 22 23 21 20 16 13 11 9 9 13 21
7 3 6 5 7 9 8 10 8 16 20 20 24 27 23 22 8 6 14 15 14 24 31 29 22 14 15 13 18 22 24 23 22 21 23 21 20 17 15 14 12 11 14 14
5 2 3 7 16 13 7 8 9 11 18 7 14 14 8 4 4 6 9 9 14 17 22 27 25 16 9 14 14 19 22 22 23 22 22 23 21 17 15 17 16 15 14 14
3 2 6 6 2 3 8 13 10 14 15 12 15 5 4 4 2 6 11 12 16 22 21 20 24 13 12 12 20 19 21 22 21 20 20 21 20 19 17 18 18 16 15 14
3 4 9 10 9 4 4 6 9 15 15 10 11 9 2 2 4 6 11 13 15 18 21 20 20 13 12 11 20 13 20 23 21 18 19 24 22 21 19 20 18 18 17 16
3 4 5 5 1 3 3 7 9 16 3 1 2 5 1 4 7 8 10 14 15 16 17 17 17 11 8 15 14 16 19 21 21 22 18 20 21 22 21 20 18 17 17 18
11 4 6 6 8 4 3 4 5 15 9 1 2 2 2 2 5 9 12 15 16 14 14 15 17 11 4 16 21 21 21 21 21 23 20 19 18 21 22 22 20 20 20 19
2 2 6 6 5 3 1 13 12 16 9 4 2 3 2 6 10 12 15 17 17 15 15 16 14 10 1 10 15 17 22 21 26 25 19 19 23 25 26 25 25 24 24 21
3 3 4 12 7 13 4 10 10 13 12 3 4 4 6 9 12 14 16 17 17 16 15 13 11 8 4 3 8 18 17 19 23 23 22 18 27 31 32 32 33 31 29 28
2 2 8 16 9 13 3 10 18 12 5 3 3 3 5 8 11 13 15 16 15 15 14 13 11 8 6 0 5 12 20 24 26 26 22 17 22 26 28 30 31 33 32 31
4 5 12 3 16 16 11 7 8 1 4 5 5 5 6 8 8 10 12 13 14 14 13 12 10 8 5 3 2 9 16 21 24 26 27 29 26 24 27 28 30 34 33 32
2 11 6 6 9 10 16 14 8 6 9 11 11 9 8 8 9 9 9 9 10 10 10 9 9 7 5 3 3 9 14 17 19 23 25 26 27 29 21 20 20 23 29 30
8 22 13 9 15 16 19 16 13 15 11 11 11 9 8 8 8 8 8 9 10 10 9 8 7 6 7 5 5 9 15 20 21 23 27 32 35 38 43 35 32 33 30 29
22 21 19 22 14 15 15 12 11 10 10 10 10 8 6 6 6 7 8 9 9 8 7 7 6 6 6 5 7 13 17 22 26 30 32 35 38 41 43 43 41 36 28 25
24 16 12 11 13 14 12 13 11 11 10 10 9 7 6 5 5 6 7 8 8 6 7 6 6 9 6 7 12 18 22 25 28 32 36 40 42 44 43 41 38 35 30 23
22 16 16 16 17 17 15 14 13 10 8 8 7 6 4 3 3 4 4 4 4 9 11 10 11 11 9 9 15 20 25 29 33 37 41 41 40 38 36 33 31 29 26 24
18 21 23 19 18 16 15 13 11 8 6 4 3 3 3 3 4 6 7 8 9 11 12 13 15 12 12 12 16 22 25 27 29 32 32 32 32 31 29 27 27 27 25 22
9 9 10 11 13 13 13 11 9 7 5 3 2 2 3 4 6 8 9 9 11 14 15 14 14 14 15 15 19 23 26 28 28 28 27 26 25 24 24 25 25 25 25 23
13 12 12 11 11 10 10 10 8 6 4 2 1 1 4 6 8 10 11 11 13 14 15 11 12 15 17 18 19 21 22 21 21 21 20 20 22 22 22 22 22 22 21 20
14 12 12 11 11 11 10 9 8 6 5 4 1 4 7 9 9 10 10 12 11 13 12 11 13 16 18 17 15 15 16 16 18 19 20 21 22 22 21 20 20 19 18 17
14 14 14 13 12 11 10 9 8 6 4 2 1 5 8 10 10 10 10 12 14 12 11 11 12 13 13 12 10 12 14 16 18 19 20 20 21 20 19 18 17 16 15 14
13 13 13 14 14 12 10 9 7 5 4 2 2 5 7 9 9 9 9 8 12 10 11 12 13 13 10 11 12 13 14 15 17 18 18 18 17 18 17 16 15 15 13 12
12 14 15 14 12 12 11 8 6 5 3 2 4 7 7 8 8 8 10 10 9 9 10 13 13 11 12 12 14 15 16 17 17 17 17 16 15 14 14 14 12 11 9 8
12 13 15 15 13 10 7 5 5 3 3 4 5 6 6 8 9 7 7 10 10 11 13 13 12 13 12 13 14 15 16 16 16 15 15 14 13 13 12 10 9 8 7 6
12 13 15 13 10 8 7 6 4 2 3 5 7 7 6 6 4 10 10 11 11 12 13 15 15 14 13 13 13 14 14 14 14 13 13 12 11 10 9 8 7 6 4 3
11 12 11 10 8 7 6 5 3 1 3 5 7 7 7 8 10 11 11 13 13 13 13 15 14 12 12 12 12 13 12 12 12 12 11 10 9 8 7 5 4 3 2 2
9 9 9 9 8 7 6 4 2 1 3 5 7 8 9 10 12 12 13 13 13 13 13 13 13 12 11 11 11 11 11 10 10 8 8 7 6 5 4 3 3 2 3 4

GFSNGP_850_spd_117.txt.gz
Wind_Speed
12 9 7 7 9 7 10 8 7 12 11 17 20 16 19 21 22 17 18 12 11 16 24 30 33 32 18 13 22 24 25 28 22 20 23 23 22 16 12 9 6 6 6 6
8 6 9 12 11 12 15 13 15 18 20 24 25 20 20 19 21 16 10 7 9 12 19 30 31 30 23 7 22 19 25 28 22 20 21 23 22 19 14 11 8 8 7 6
13 7 7 8 19 17 16 15 14 15 19 16 17 13 15 21 15 8 6 7 11 13 18 25 28 29 26 13 10 18 23 28 25 21 22 23 21 20 17 14 12 11 10 9
6 3 10 11 4 5 11 15 11 16 20 19 21 24 19 8 5 6 9 12 15 17 21 20 22 23 27 15 7 21 23 26 27 23 23 25 23 24 19 18 16 14 14 12
3 7 11 14 15 10 9 14 6 10 13 19 26 17 11 2 4 8 10 12 14 17 20 20 20 20 23 14 6 16 21 25 27 27 26 28 27 25 21 20 19 18 17 15
4 5 5 3 3 3 3 10 2 5 8 15 5 5 4 2 4 6 10 13 16 18 18 18 18 19 18 12 9 14 17 22 24 28 29 29 28 26 24 22 21 21 20 18
12 5 6 5 11 4 4 3 6 11 15 10 4 3 6 3 6 10 13 15 16 17 17 17 17 17 15 5 8 19 23 23 26 27 26 30 30 28 26 25 22 25 22 20
2 4 5 10 6 2 7 9 14 17 11 12 8 7 6 6 9 12 15 15 16 16 16 15 14 16 14 8 5 10 23 28 29 31 26 29 29 29 29 28 27 27 24 23
3 3 3 7 9 12 4 10 13 14 15 8 5 6 7 9 12 14 15 15 16 15 14 13 12 13 13 11 5 2 11 23 29 31 30 31 33 34 36 34 32 33 31 29
5 2 7 15 9 7 9 13 9 7 9 9 8 7 8 10 12 14 15 14 16 15 14 13 11 11 12 11 8 2 13 15 20 26 28 32 34 36 38 39 37 35 34 33
5 4 16 15 17 10 13 14 13 13 13 13 12 11 9 10 13 13 13 14 14 15 15 14 13 11 10 10 7 4 10 16 23 24 29 30 27 27 28 29 31 35 34 33
3 21 3 8 15 16 22 19 16 14 15 14 12 11 10 11 11 12 14 15 14 14 14 14 14 11 8 7 6 3 10 16 21 28 26 26 29 29 19 17 17 18 23 26
7 20 17 15 20 18 18 16 15 14 12 11 12 11 10 10 12 12 12 14 16 16 14 13 12 10 8 6 5 7 11 17 21 20 25 31 34 34 37 29 31 32 35 37
20 17 12 18 13 14 15 15 13 12 12 12 12 12 12 11 11 11 13 16 16 14 12 12 10 10 10 7 6 11 17 20 23 27 30 34 35 38 43 46 45 41 34 32
21 12 9 8 12 16 13 13 14 13 13 11 11 12 12 12 11 11 12 14 15 13 14 12 12 13 11 7 9 15 19 25 28 30 33 36 41 45 45 45 44 41 36 28
17 11 15 15 14 15 15 15 13 13 12 11 10 10 10 10 9 10 11 12 13 16 17 16 15 14 10 9 12 16 20 23 27 31 36 39 42 43 43 40 38 35 32 28
14 18 19 17 16 15 14 13 12 11 11 10 9 8 8 8 8 9 10 11 12 15 17 16 15 12 11 11 12 17 21 23 25 29 32 34 35 35 34 32 31 29 27 24
12 10 10 11 13 13 13 12 12 11 9 9 8 7 6 5 6 6 8 8 10 13 15 14 13 13 13 14 17 19 21 25 27 29 31 30 29 29 28 28 27 27 27 26
14 13 12 11 12 10 10 10 9 9 8 7 6 5 3 2 4 5 6 6 9 11 13 12 12 14 16 17 19 21 23 25 27 27 25 24 23 22 23 24 24 24 24 24
13 12 11 11 11 11 10 8 7 6 6 5 3 1 2 3 4 4 4 5 8 10 10 9 11 15 16 17 17 19 20 20 20 20 18 19 22 23 22 22 22 22 21 20
13 14 13 13 12 12 10 8 6 5 4 2 1 2 3 5 4 4 4 5 8 8 9 10 11 12 12 11 12 13 13 14 16 18 19 21 22 22 21 21 20 19 18 17
13 14 16 16 15 12 10 8 6 4 2 0 3 4 5 6 6 5 5 4 7 7 7 9 10 10 9 9 10 12 13 14 17 19 19 19 19 20 19 18 18 18 16 15
11 13 15 15 13 12 11 8 5 3 2 2 4 5 6 7 7 6 6 7 7 7 8 9 10 10 9 10 12 13 15 17 18 19 18 18 18 17 17 17 16 15 14 12
11 13 14 14 12 9 7 6 5 3 2 3 5 5 5 6 7 5 7 8 8 9 11 12 12 13 11 13 15 16 17 17 17 17 17 17 16 16 15 14 13 12 11 9
11 12 12 12 10 9 7 6 5 2 2 3 5 5 5 6 3 8 8 9 10 10 12 14 15 13 12 14 15 15 16 16 16 16 15 15 15 14 13 12 11 10 9 8
9 10 11 10 10 9 7 5 4 1 1 3 5 5 5 6 9 10 10 11 13 12 14 16 15 14 13 13 14 14 14 15 14 14 13 13 12 11 10 10 8 7 6 5
9 10 10 10 10 8 7 4 2 1 2 3 5 8 8 9 9 10 11 13 13 13 13 14 14 13 13 13 12 12 12 12 12 11 11 10 9 9 8 7 6 5 4 3

GFSNGP_850_spd_120.txt.gz
Wind_Speed
15 16 14 13 15 13 12 12 11 14 14 13 15 15 17 18 18 18 18 15 11 10 13 15 16 21 28 27 22 14 25 27 28 24 23 21 22 20 17 13 10 12 12 12
15 16 14 16 17 17 17 16 17 18 18 19 16 13 14 19 18 20 17 10 10 10 13 15 19 21 21 34 31 12 28 29 25 23 24 23 24 21 18 15 11 11 9 8
14 10 13 13 17 17 20 17 15 15 19 18 16 16 19 21 20 18 10 9 10 13 14 17 18 20 19 31 30 16 21 27 29 22 22 24 26 24 21 17 14 13 12 8
10 11 12 11 9 9 12 14 14 15 18 18 19 24 26 24 19 7 4 7 9 12 15 16 17 18 19 18 29 23 19 27 32 26 23 23 27 27 23 19 17 15 14 12
8 9 13 18 8 9 12 15 14 13 14 18 24 28 23 6 2 1 4 7 10 13 16 17 19 20 21 14 24 24 19 28 34 30 27 29 31 29 25 22 20 18 17 15
9 6 4 3 4 11 8 11 9 5 10 16 18 10 5 7 5 6 8 10 13 15 15 17 19 19 19 17 14 15 11 27 32 32 31 34 31 31 28 24 22 20 20 18
12 8 6 5 10 12 9 5 12 10 17 19 9 5 7 8 9 11 11 13 14 14 15 18 19 18 17 16 14 12 12 24 33 34 34 31 32 31 29 27 27 25 24 23
3 4 3 11 6 5 12 18 16 18 14 12 5 8 8 8 11 13 13 14 16 15 16 17 18 17 17 16 14 13 11 17 34 35 33 31 34 34 32 30 32 31 29 28
5 5 18 23 18 19 16 14 7 10 13 13 13 12 11 11 11 12 13 15 15 16 16 17 18 17 16 16 13 9 7 8 28 33 30 31 36 37 38 36 34 35 34 32
11 10 17 16 19 17 13 9 8 11 13 13 12 12 10 11 12 13 14 14 14 15 17 18 17 17 14 12 10 7 3 7 16 26 34 36 39 41 40 40 40 39 36 35
4 9 14 23 26 21 16 16 16 14 15 15 13 13 12 12 13 13 14 14 14 16 16 17 17 16 14 11 9 6 3 4 14 17 24 32 38 40 42 40 40 40 37 36
4 15 11 10 21 20 17 15 15 15 15 15 14 13 11 12 12 13 14 14 14 15 14 15 15 14 12 10 8 7 7 10 11 18 21 24 27 28 21 22 20 20 22 26
7 17 7 16 11 17 17 16 15 14 14 13 13 13 13 11 12 13 15 17 17 16 14 13 12 11 11 10 7 7 14 17 19 22 29 30 31 33 36 27 24 22 24 27
14 15 5 14 12 16 15 15 13 12 12 12 11 12 12 12 12 13 15 17 17 15 14 12 12 12 12 10 6 9 14 19 21 24 25 28 31 35 37 41 42 38 35 37
16 11 9 10 11 14 14 15 14 14 13 13 12 12 13 13 14 15 15 14 14 15 16 14 13 14 12 9 8 12 15 19 24 27 31 34 37 39 42 45 47 44 40 35
9 8 11 12 12 14 14 14 14 14 13 12 11 12 12 12 12 13 14 14 16 18 17 16 16 14 11 10 10 13 17 19 23 28 32 36 40 44 46 46 43 40 36 32
10 11 12 12 13 13 13 12 12 12 11 10 10 10 9 9 9 10 12 14 16 17 17 16 16 13 11 11 12 16 18 20 23 27 31 35 37 39 39 40 37 34 29 27
8 8 9 10 12 13 13 12 12 12 12 12 12 10 8 7 9 9 11 12 13 15 18 17 17 15 14 13 15 17 19 21 25 28 30 32 34 34 33 31 30 30 29 27
10 10 10 11 12 12 12 13 12 12 12 12 11 9 7 7 7 8 8 8 10 12 15 14 14 15 16 17 17 17 20 22 24 26 27 29 29 28 27 27 28 28 28 26
11 11 12 12 13 14 13 12 12 11 10 9 8 7 6 5 5 6 7 8 10 11 12 12 13 15 17 16 18 19 20 22 24 26 26 26 25 25 24 24 25 24 24 23
12 13 15 16 16 15 13 12 11 10 9 7 5 4 4 3 3 5 6 6 7 9 9 10 11 13 14 14 15 17 17 19 20 20 19 20 21 21 22 22 22 22 22 21
12 14 16 17 17 16 14 11 10 8 7 5 3 2 2 3 3 4 3 4 4 5 6 6 8 9 9 10 11 13 14 15 17 18 19 20 20 21 21 21 21 20 20 19
11 13 15 16 16 15 14 12 9 7 5 3 2 1 1 1 1 3 3 2 3 4 4 5 8 8 8 8 11 11 12 14 16 17 18 18 18 18 18 18 18 17 17 16
10 11 13 13 14 12 11 11 9 7 4 3 2 1 2 2 1 1 1 3 4 4 5 7 8 8 7 10 12 13 15 15 16 17 17 17 17 17 16 16 16 15 14 14
10 11 11 11 10 10 10 9 8 7 4 3 2 1 1 2 1 2 3 4 5 7 9 10 11 10 10 12 13 14 15 15 16 16 16 16 16 16 15 14 14 13 12 11
8 6 7 10 10 9 8 7 5 5 3 2 2 0 1 1 4 4 4 6 8 9 11 12 11 11 12 13 14 14 15 15 14 13 14 13 13 13 12 12 11 11 9 8
6 7 7 7 7 7 6 5 4 3 2 1 1 3 4 4 5 5 7 8 10 11 12 13 12 11 11 12 12 12 12 13 13 12 12 12 12 11 10 10 9 8 7 7

GFSNGP_850_spd_123.txt.gz
Wind_Speed
17 22 21 17 16 12 10 13 14 16 7 11 14 9 10 10 10 14 13 16 16 12 10 12 13 16 17 19 18 20 20 17 15 21 26 27 25 24 25 22 20 19 20 19
17 18 21 21 20 15 15 14 17 18 19 14 15 9 11 14 15 17 18 18 13 9 13 15 15 16 18 20 20 18 22 18 21 20 28 26 25 25 22 21 19 16 17 19
16 16 14 14 17 18 18 16 14 16 17 16 14 13 15 18 19 21 20 10 11 12 13 14 15 16 17 20 21 19 19 21 22 23 27 26 26 26 25 23 19 17 17 15
13 16 15 12 7 12 11 12 16 17 17 15 13 19 23 24 26 21 11 8 10 11 14 14 15 16 20 20 19 19 19 25 20 24 26 25 28 29 28 24 21 19 17 13
5 9 15 17 9 12 13 13 13 14 14 16 21 23 20 13 12 9 9 9 11 13 15 15 16 18 19 19 19 19 17 25 18 22 27 25 31 32 29 26 23 21 19 16
11 5 4 2 3 7 12 11 13 15 15 17 20 7 6 12 11 11 10 10 12 13 13 14 18 18 18 20 20 17 15 22 20 23 28 29 34 32 30 27 25 22 20 18
10 7 6 14 18 14 6 5 14 16 18 17 5 5 5 6 9 10 11 12 13 12 12 15 18 18 16 19 21 17 16 14 18 25 28 36 34 31 32 31 29 26 24 23
5 4 2 27 14 11 14 22 16 17 17 13 11 4 4 8 10 12 12 13 14 13 14 15 17 18 17 18 19 17 12 12 18 21 33 38 36 34 35 34 33 30 29 27
6 6 15 20 11 20 21 13 12 12 11 10 11 10 9 9 10 11 14 14 15 14 14 15 18 19 19 19 18 15 13 9 13 19 36 41 37 37 40 38 37 34 32 31
10 7 16 18 26 25 24 18 15 14 14 14 14 14 12 13 13 13 14 16 16 16 16 17 18 18 17 17 15 12 10 8 7 12 26 37 39 39 41 42 40 38 37 35
4 6 18 12 24 21 19 20 19 15 15 14 12 13 12 12 13 14 15 16 15 16 16 17 19 18 16 14 13 10 7 3 2 5 16 26 35 37 41 40 39 40 38 38
4 13 11 12 21 21 21 21 19 17 16 16 16 15 13 12 13 14 15 16 17 16 16 16 17 18 16 13 11 8 4 6 10 7 13 17 27 27 24 29 36 39 40 38
8 20 19 11 12 19 19 18 15 15 15 15 15 14 13 12 15 15 15 17 18 18 17 17 17 18 17 15 10 7 8 11 16 21 25 25 21 23 33 25 22 20 20 20
13 15 8 15 15 15 15 15 13 13 14 14 13 13 13 13 14 17 18 17 19 18 18 17 17 19 18 15 10 8 10 13 18 22 27 31 34 35 34 36 38 34 28 32
13 8 10 11 12 14 14 15 14 14 15 14 13 14 14 14 15 16 16 15 15 17 18 18 17 18 17 15 11 9 11 15 19 23 26 31 35 36 38 41 44 44 40 38
12 8 12 12 14 15 16 16 15 15 15 14 14 14 13 12 12 13 14 16 17 18 18 17 17 17 15 15 14 13 14 16 19 25 29 32 34 38 41 42 43 43 40 38
11 13 15 15 17 17 16 15 15 14 13 13 13 13 11 8 10 11 13 16 17 17 17 17 17 15 15 14 15 16 15 16 21 25 29 32 35 36 39 41 39 35 31 26
8 8 10 11 14 15 14 14 14 14 13 13 12 11 10 9 9 9 11 12 13 15 17 17 16 15 14 13 13 15 18 19 21 25 27 29 31 33 34 36 33 31 31 28
8 8 10 10 12 12 12 13 14 13 13 12 11 9 9 7 8 8 8 8 11 12 15 15 15 16 16 15 16 16 17 20 24 25 26 27 27 27 27 28 28 27 26 23
7 9 10 12 13 15 15 15 14 13 13 11 8 6 7 6 6 9 13 11 11 10 10 12 14 15 15 16 17 18 19 21 23 24 23 23 24 25 27 26 25 23 21 19
9 11 14 17 18 17 16 16 14 13 12 11 7 6 5 6 5 5 5 5 6 6 8 8 10 12 13 13 15 17 19 20 21 21 20 21 22 22 22 20 19 19 19 18
11 14 16 18 19 16 17 15 13 13 11 9 7 6 8 8 10 9 4 4 3 3 3 4 6 8 10 10 12 13 14 15 16 17 17 17 17 17 17 16 17 17 17 17
9 11 12 16 17 15 14 17 14 13 10 9 6 4 5 5 3 2 2 3 3 3 2 4 6 6 6 7 9 11 12 13 14 14 14 15 15 16 16 17 17 16 16 16
8 10 11 13 15 12 14 14 14 11 10 8 10 5 3 4 6 5 5 4 3 2 3 5 6 6 7 9 10 11 11 12 13 13 14 15 14 15 16 16 15 15 15 14
12 12 11 13 12 12 12 12 11 10 9 7 7 7 5 2 1 2 3 4 5 5 6 7 8 9 9 10 10 11 11 11 11 12 12 13 14 14 13 13 13 13 12 12
9 9 9 11 10 11 11 10 8 8 7 6 6 5 6 5 5 4 3 4 5 7 7 8 8 9 9 10 11 12 12 13 12 13 13 12 12 12 12 12 12 11 11 11
8 10 9 8 9 9 9 8 7 6 6 6 5 5 5 5 5 5 6 5 6 7 8 9 9 10 10 11 11 11 11 12 12 12 11 12 11 11 11 11 11 10 9 9

GFSNGP_850_spd_126.txt.gz
Wind_Speed
19 20 21 17 16 16 12 11 11 15 13 8 4 7 24 34 3 4 8 12 12 15 8 10 11 12 16 20 24 28 22 20 17 19 19 21 25 29 30 26 24 25 22 19
13 21 17 17 19 18 17 14 14 12 15 17 15 5 12 14 9 10 11 13 11 11 12 13 16 18 19 23 27 25 25 20 20 16 18 19 22 29 26 24 24 25 27 26
9 15 20 15 13 16 15 13 12 9 11 15 11 8 18 22 20 18 19 13 8 8 9 11 15 16 22 26 25 25 24 20 20 17 17 21 22 29 26 26 25 26 25 23
10 11 11 6 12 18 11 5 11 10 12 13 19 20 18 20 20 21 18 15 13 12 12 12 14 20 25 23 24 24 24 23 18 18 15 20 23 27 29 28 28 25 23 24
4 8 13 11 11 13 13 11 16 16 21 24 25 20 12 17 15 15 16 15 14 14 12 11 14 20 22 22 23 24 24 25 21 20 15 23 22 38 33 31 28 24 22 20
7 5 4 12 23 28 16 6 18 18 14 15 18 6 4 16 14 13 13 14 15 15 13 14 18 21 23 22 24 25 26 25 23 20 16 25 20 38 34 30 30 27 25 21
4 5 5 18 23 23 4 8 19 17 10 6 4 4 7 11 14 14 15 17 17 17 17 18 21 24 23 22 23 25 25 25 21 20 20 17 20 37 37 33 33 30 27 24
5 6 5 26 10 8 10 17 17 16 17 15 13 13 13 15 17 18 19 19 18 18 17 17 20 24 24 23 24 23 22 21 19 18 19 20 23 37 38 36 36 32 30 27
5 3 4 8 7 15 16 17 22 21 20 18 17 18 17 17 17 17 17 18 18 17 16 16 20 22 25 24 24 21 19 18 17 15 16 19 28 41 38 39 39 36 33 30
10 5 14 8 21 20 20 21 20 19 17 17 15 15 14 14 14 16 17 18 19 18 17 18 19 21 23 23 20 17 16 14 12 12 13 16 28 28 38 40 43 40 37 35
6 6 16 15 18 19 18 16 16 15 15 15 14 14 15 13 14 16 17 18 18 18 18 19 20 21 21 20 17 14 11 9 6 4 6 9 20 26 33 43 43 41 40 37
3 11 9 11 17 17 18 19 14 16 16 15 15 14 14 13 14 16 17 18 19 19 19 20 20 20 20 19 16 13 9 6 2 3 8 9 14 18 14 32 39 40 40 39
4 14 9 13 13 15 16 18 13 14 14 13 13 13 13 12 15 16 17 16 20 21 20 19 19 21 20 18 15 11 7 6 3 5 12 17 20 21 23 18 18 21 26 30
8 10 10 14 14 14 14 14 12 13 13 14 14 14 14 14 16 18 19 16 17 20 19 18 18 19 22 18 13 9 8 7 8 10 14 19 24 27 30 31 36 34 25 28
10 8 10 10 11 13 13 15 14 15 15 16 15 15 16 16 16 17 17 18 15 18 20 20 18 19 19 19 14 11 10 13 14 15 18 22 26 31 36 39 44 47 44 41
10 8 11 11 13 14 15 15 15 15 16 16 16 16 14 12 14 14 16 20 21 21 20 20 19 17 16 16 14 13 13 15 19 22 24 27 30 35 40 42 43 43 42 39
9 11 13 13 14 14 14 14 14 14 14 15 15 15 13 10 10 12 14 17 19 18 18 18 17 15 13 13 15 13 13 16 17 21 26 27 30 34 36 36 36 38 36 35
8 8 9 10 12 13 13 13 13 13 14 14 13 13 12 10 10 11 11 9 11 14 18 18 16 15 15 13 11 13 13 15 17 21 23 27 32 35 36 36 36 35 31 30
8 9 10 11 12 12 12 13 14 13 14 14 10 11 12 10 8 10 13 10 9 12 15 17 16 16 16 14 14 14 15 17 18 20 24 27 30 30 30 31 31 31 28 27
7 8 9 11 13 14 14 14 14 13 13 13 7 9 7 10 7 5 8 13 10 10 9 9 12 14 14 14 13 15 17 18 19 21 23 24 25 26 26 27 26 25 23 22
7 8 11 15 16 15 18 16 16 15 13 12 11 8 7 10 9 5 5 7 7 6 6 6 8 11 12 12 14 14 15 16 17 19 20 22 23 23 23 22 23 22 21 20
9 12 15 18 17 15 16 16 21 14 14 11 8 5 8 5 8 11 8 5 7 5 5 4 7 10 9 9 9 10 12 14 16 17 18 18 19 19 19 18 18 18 18 17
9 10 11 15 16 13 11 16 19 15 17 9 15 6 7 7 10 3 7 8 5 5 4 5 8 7 8 8 8 9 10 11 12 14 14 14 15 15 16 16 16 16 16 16
10 11 10 10 15 10 12 13 15 10 15 10 13 12 6 6 5 7 7 7 6 5 3 6 7 6 7 8 9 9 10 10 11 12 12 12 13 13 14 14 15 15 15 15
11 11 7 13 11 11 12 12 11 11 10 9 10 9 10 7 4 4 4 6 8 8 7 9 9 8 8 9 9 9 9 10 10 10 11 12 13 13 12 13 13 13 13 13
10 7 8 10 8 10 11 10 9 10 10 9 10 8 8 7 8 9 7 5 2 2 4 6 7 6 7 8 9 10 11 11 10 11 11 11 11 11 11 11 11 11 10 10
8 5 8 7 9 10 11 9 9 9 9 4 7 8 8 9 8 6 5 5 4 5 6 7 8 8 9 9 10 10 11 12 11 10 10 10 10 11 11 10 9 9 9 10